<?xml version="1.0" encoding="utf-8"?>
<gpx xmlns:xsi="http://www.w3.org/2001/XMLSchema-instance" xmlns:xsd="http://www.w3.org/2001/XMLSchema" version="1.1" creator="Shapelink.com" xmlns="http://www.topografix.com/GPX/1/1" xmlns:gpxtpx="http://www.garmin.com/xmlschemas/TrackPointExtension/v1">
  <metadata>
    <name>Løping 5.14 km, 2014-06-15</name>
    <desc></desc>
    <author><name>Mikael Blom</name></author> 
    <time>2014-06-15T09:33:13Z</time>
  </metadata>
  <trk>
    <name>Løping 5.14 km, 2014-06-15</name>
    <trkseg>
      <trkpt lat="60.0211891" lon="17.7508348">
        <ele>46.2806</ele>
        <time>2014-06-15T09:33:13Z</time>
      </trkpt>
      <trkpt lat="60.0211808" lon="17.7508717">
        <ele>47.2418</ele>
        <time>2014-06-15T09:33:14Z</time>
      </trkpt>
      <trkpt lat="60.0211684" lon="17.7509142">
        <ele>48.684</ele>
        <time>2014-06-15T09:33:15Z</time>
      </trkpt>
      <trkpt lat="60.0211534" lon="17.75097">
        <ele>48.684</ele>
        <time>2014-06-15T09:33:16Z</time>
      </trkpt>
      <trkpt lat="60.0211388" lon="17.7510251">
        <ele>48.684</ele>
        <time>2014-06-15T09:33:17Z</time>
      </trkpt>
      <trkpt lat="60.0211187" lon="17.7510769">
        <ele>48.684</ele>
        <time>2014-06-15T09:33:18Z</time>
      </trkpt>
      <trkpt lat="60.0211005" lon="17.7511329">
        <ele>48.684</ele>
        <time>2014-06-15T09:33:19Z</time>
      </trkpt>
      <trkpt lat="60.0210926" lon="17.7511882">
        <ele>49.6453</ele>
        <time>2014-06-15T09:33:20Z</time>
      </trkpt>
      <trkpt lat="60.021081" lon="17.7512464">
        <ele>50.126</ele>
        <time>2014-06-15T09:33:21Z</time>
      </trkpt>
      <trkpt lat="60.0210604" lon="17.7513054">
        <ele>49.6453</ele>
        <time>2014-06-15T09:33:22Z</time>
      </trkpt>
      <trkpt lat="60.021041" lon="17.7513619">
        <ele>49.1646</ele>
        <time>2014-06-15T09:33:23Z</time>
      </trkpt>
      <trkpt lat="60.0210253" lon="17.7514172">
        <ele>49.1646</ele>
        <time>2014-06-15T09:33:24Z</time>
      </trkpt>
      <trkpt lat="60.0210167" lon="17.751466">
        <ele>49.6453</ele>
        <time>2014-06-15T09:33:25Z</time>
      </trkpt>
      <trkpt lat="60.0210086" lon="17.7515128">
        <ele>50.126</ele>
        <time>2014-06-15T09:33:26Z</time>
      </trkpt>
      <trkpt lat="60.0209979" lon="17.7515575">
        <ele>49.6453</ele>
        <time>2014-06-15T09:33:27Z</time>
      </trkpt>
      <trkpt lat="60.0209841" lon="17.7516073">
        <ele>49.6453</ele>
        <time>2014-06-15T09:33:28Z</time>
      </trkpt>
      <trkpt lat="60.0209708" lon="17.7516607">
        <ele>50.126</ele>
        <time>2014-06-15T09:33:29Z</time>
      </trkpt>
      <trkpt lat="60.0209589" lon="17.7517185">
        <ele>50.6066</ele>
        <time>2014-06-15T09:33:30Z</time>
      </trkpt>
      <trkpt lat="60.0209446" lon="17.7517692">
        <ele>50.6066</ele>
        <time>2014-06-15T09:33:31Z</time>
      </trkpt>
      <trkpt lat="60.0209266" lon="17.7518164">
        <ele>50.6066</ele>
        <time>2014-06-15T09:33:32Z</time>
      </trkpt>
      <trkpt lat="60.0209062" lon="17.7518694">
        <ele>50.126</ele>
        <time>2014-06-15T09:33:33Z</time>
      </trkpt>
      <trkpt lat="60.0208869" lon="17.7519161">
        <ele>49.6453</ele>
        <time>2014-06-15T09:33:34Z</time>
      </trkpt>
      <trkpt lat="60.0208708" lon="17.7519596">
        <ele>49.6453</ele>
        <time>2014-06-15T09:33:35Z</time>
      </trkpt>
      <trkpt lat="60.0208571" lon="17.7520086">
        <ele>49.1646</ele>
        <time>2014-06-15T09:33:36Z</time>
      </trkpt>
      <trkpt lat="60.0208442" lon="17.7520678">
        <ele>49.1646</ele>
        <time>2014-06-15T09:33:37Z</time>
      </trkpt>
      <trkpt lat="60.0208339" lon="17.7521233">
        <ele>49.6453</ele>
        <time>2014-06-15T09:33:38Z</time>
      </trkpt>
      <trkpt lat="60.0208204" lon="17.7521778">
        <ele>49.1646</ele>
        <time>2014-06-15T09:33:39Z</time>
      </trkpt>
      <trkpt lat="60.0208037" lon="17.7522315">
        <ele>49.1646</ele>
        <time>2014-06-15T09:33:40Z</time>
      </trkpt>
      <trkpt lat="60.0207935" lon="17.7522802">
        <ele>49.1646</ele>
        <time>2014-06-15T09:33:41Z</time>
      </trkpt>
      <trkpt lat="60.0207826" lon="17.7523271">
        <ele>48.684</ele>
        <time>2014-06-15T09:33:42Z</time>
      </trkpt>
      <trkpt lat="60.0207659" lon="17.7523755">
        <ele>48.2034</ele>
        <time>2014-06-15T09:33:43Z</time>
      </trkpt>
      <trkpt lat="60.0207478" lon="17.7524268">
        <ele>47.2418</ele>
        <time>2014-06-15T09:33:44Z</time>
      </trkpt>
      <trkpt lat="60.020731" lon="17.7524812">
        <ele>46.7612</ele>
        <time>2014-06-15T09:33:45Z</time>
      </trkpt>
      <trkpt lat="60.0207162" lon="17.752533">
        <ele>46.2806</ele>
        <time>2014-06-15T09:33:46Z</time>
      </trkpt>
      <trkpt lat="60.0206997" lon="17.752587">
        <ele>45.7999</ele>
        <time>2014-06-15T09:33:47Z</time>
      </trkpt>
      <trkpt lat="60.0206886" lon="17.7526329">
        <ele>46.2806</ele>
        <time>2014-06-15T09:33:48Z</time>
      </trkpt>
      <trkpt lat="60.0206731" lon="17.7526797">
        <ele>45.7999</ele>
        <time>2014-06-15T09:33:49Z</time>
      </trkpt>
      <trkpt lat="60.0206612" lon="17.7527268">
        <ele>45.7999</ele>
        <time>2014-06-15T09:33:50Z</time>
      </trkpt>
      <trkpt lat="60.0206526" lon="17.7527774">
        <ele>45.7999</ele>
        <time>2014-06-15T09:33:51Z</time>
      </trkpt>
      <trkpt lat="60.0206367" lon="17.7528369">
        <ele>45.7999</ele>
        <time>2014-06-15T09:33:52Z</time>
      </trkpt>
      <trkpt lat="60.0206209" lon="17.7528895">
        <ele>45.7999</ele>
        <time>2014-06-15T09:33:53Z</time>
      </trkpt>
      <trkpt lat="60.02061" lon="17.7529396">
        <ele>46.2806</ele>
        <time>2014-06-15T09:33:54Z</time>
      </trkpt>
      <trkpt lat="60.0205969" lon="17.7529877">
        <ele>45.7999</ele>
        <time>2014-06-15T09:33:55Z</time>
      </trkpt>
      <trkpt lat="60.020583" lon="17.7530312">
        <ele>45.3192</ele>
        <time>2014-06-15T09:33:56Z</time>
      </trkpt>
      <trkpt lat="60.0205612" lon="17.7530667">
        <ele>45.3192</ele>
        <time>2014-06-15T09:33:57Z</time>
      </trkpt>
      <trkpt lat="60.0205421" lon="17.7530997">
        <ele>45.7999</ele>
        <time>2014-06-15T09:33:58Z</time>
      </trkpt>
      <trkpt lat="60.0205323" lon="17.7531359">
        <ele>45.7999</ele>
        <time>2014-06-15T09:33:59Z</time>
      </trkpt>
      <trkpt lat="60.020525" lon="17.7531728">
        <ele>45.3192</ele>
        <time>2014-06-15T09:34:00Z</time>
      </trkpt>
      <trkpt lat="60.0205162" lon="17.7532159">
        <ele>45.3192</ele>
        <time>2014-06-15T09:34:01Z</time>
      </trkpt>
      <trkpt lat="60.0205033" lon="17.7532551">
        <ele>45.3192</ele>
        <time>2014-06-15T09:34:02Z</time>
      </trkpt>
      <trkpt lat="60.0204898" lon="17.7532956">
        <ele>45.3192</ele>
        <time>2014-06-15T09:34:03Z</time>
      </trkpt>
      <trkpt lat="60.0204805" lon="17.7533478">
        <ele>45.3192</ele>
        <time>2014-06-15T09:34:04Z</time>
      </trkpt>
      <trkpt lat="60.0204685" lon="17.7534029">
        <ele>44.358</ele>
        <time>2014-06-15T09:34:05Z</time>
      </trkpt>
      <trkpt lat="60.0204572" lon="17.7534514">
        <ele>44.8386</ele>
        <time>2014-06-15T09:34:06Z</time>
      </trkpt>
      <trkpt lat="60.0204519" lon="17.7534933">
        <ele>44.8386</ele>
        <time>2014-06-15T09:34:07Z</time>
      </trkpt>
      <trkpt lat="60.0204432" lon="17.7535391">
        <ele>44.8386</ele>
        <time>2014-06-15T09:34:08Z</time>
      </trkpt>
      <trkpt lat="60.0204316" lon="17.7535856">
        <ele>43.8773</ele>
        <time>2014-06-15T09:34:09Z</time>
      </trkpt>
      <trkpt lat="60.0204217" lon="17.7536384">
        <ele>43.8773</ele>
        <time>2014-06-15T09:34:10Z</time>
      </trkpt>
      <trkpt lat="60.0204117" lon="17.7536958">
        <ele>43.8773</ele>
        <time>2014-06-15T09:34:11Z</time>
      </trkpt>
      <trkpt lat="60.0204028" lon="17.7537498">
        <ele>43.8773</ele>
        <time>2014-06-15T09:34:12Z</time>
      </trkpt>
      <trkpt lat="60.0203919" lon="17.7538026">
        <ele>43.3966</ele>
        <time>2014-06-15T09:34:13Z</time>
      </trkpt>
      <trkpt lat="60.0203844" lon="17.7538486">
        <ele>43.8773</ele>
        <time>2014-06-15T09:34:14Z</time>
      </trkpt>
      <trkpt lat="60.020379" lon="17.7538923">
        <ele>44.358</ele>
        <time>2014-06-15T09:34:15Z</time>
      </trkpt>
      <trkpt lat="60.0203732" lon="17.7539409">
        <ele>43.8773</ele>
        <time>2014-06-15T09:34:16Z</time>
      </trkpt>
      <trkpt lat="60.0203655" lon="17.7539916">
        <ele>43.8773</ele>
        <time>2014-06-15T09:34:17Z</time>
      </trkpt>
      <trkpt lat="60.020356" lon="17.7540438">
        <ele>43.8773</ele>
        <time>2014-06-15T09:34:18Z</time>
      </trkpt>
      <trkpt lat="60.0203477" lon="17.7540959">
        <ele>44.358</ele>
        <time>2014-06-15T09:34:19Z</time>
      </trkpt>
      <trkpt lat="60.0203437" lon="17.7541485">
        <ele>44.8386</ele>
        <time>2014-06-15T09:34:20Z</time>
      </trkpt>
      <trkpt lat="60.0203376" lon="17.7541975">
        <ele>44.8386</ele>
        <time>2014-06-15T09:34:21Z</time>
      </trkpt>
      <trkpt lat="60.0203339" lon="17.7542477">
        <ele>45.3192</ele>
        <time>2014-06-15T09:34:22Z</time>
      </trkpt>
      <trkpt lat="60.02033" lon="17.7543004">
        <ele>45.3192</ele>
        <time>2014-06-15T09:34:23Z</time>
      </trkpt>
      <trkpt lat="60.0203181" lon="17.7543529">
        <ele>44.8386</ele>
        <time>2014-06-15T09:34:24Z</time>
      </trkpt>
      <trkpt lat="60.0203071" lon="17.7543979">
        <ele>45.3192</ele>
        <time>2014-06-15T09:34:25Z</time>
      </trkpt>
      <trkpt lat="60.0203003" lon="17.7544414">
        <ele>45.7999</ele>
        <time>2014-06-15T09:34:26Z</time>
      </trkpt>
      <trkpt lat="60.0202944" lon="17.7544855">
        <ele>46.2806</ele>
        <time>2014-06-15T09:34:27Z</time>
      </trkpt>
      <trkpt lat="60.0202839" lon="17.7545274">
        <ele>45.7999</ele>
        <time>2014-06-15T09:34:28Z</time>
      </trkpt>
      <trkpt lat="60.0202696" lon="17.7545761">
        <ele>46.7612</ele>
        <time>2014-06-15T09:34:29Z</time>
      </trkpt>
      <trkpt lat="60.0202594" lon="17.7546202">
        <ele>46.7612</ele>
        <time>2014-06-15T09:34:30Z</time>
      </trkpt>
      <trkpt lat="60.0202494" lon="17.7546666">
        <ele>46.2806</ele>
        <time>2014-06-15T09:34:31Z</time>
      </trkpt>
      <trkpt lat="60.020236" lon="17.7547136">
        <ele>46.2806</ele>
        <time>2014-06-15T09:34:32Z</time>
      </trkpt>
      <trkpt lat="60.0202268" lon="17.754762">
        <ele>46.7612</ele>
        <time>2014-06-15T09:34:33Z</time>
      </trkpt>
      <trkpt lat="60.0202179" lon="17.7548076">
        <ele>46.2806</ele>
        <time>2014-06-15T09:34:34Z</time>
      </trkpt>
      <trkpt lat="60.020208" lon="17.7548528">
        <ele>46.2806</ele>
        <time>2014-06-15T09:34:35Z</time>
      </trkpt>
      <trkpt lat="60.0201943" lon="17.7549009">
        <ele>46.2806</ele>
        <time>2014-06-15T09:34:36Z</time>
      </trkpt>
      <trkpt lat="60.0201826" lon="17.7549476">
        <ele>46.2806</ele>
        <time>2014-06-15T09:34:37Z</time>
      </trkpt>
      <trkpt lat="60.0201726" lon="17.7550013">
        <ele>46.2806</ele>
        <time>2014-06-15T09:34:38Z</time>
      </trkpt>
      <trkpt lat="60.0201608" lon="17.7550569">
        <ele>46.2806</ele>
        <time>2014-06-15T09:34:39Z</time>
      </trkpt>
      <trkpt lat="60.0201482" lon="17.7551132">
        <ele>46.2806</ele>
        <time>2014-06-15T09:34:40Z</time>
      </trkpt>
      <trkpt lat="60.0201374" lon="17.755164">
        <ele>45.7999</ele>
        <time>2014-06-15T09:34:41Z</time>
      </trkpt>
      <trkpt lat="60.0201246" lon="17.7552096">
        <ele>45.3192</ele>
        <time>2014-06-15T09:34:42Z</time>
      </trkpt>
      <trkpt lat="60.0201137" lon="17.7552661">
        <ele>45.3192</ele>
        <time>2014-06-15T09:34:43Z</time>
      </trkpt>
      <trkpt lat="60.0201035" lon="17.7553194">
        <ele>44.358</ele>
        <time>2014-06-15T09:34:44Z</time>
      </trkpt>
      <trkpt lat="60.0200944" lon="17.7553696">
        <ele>44.8386</ele>
        <time>2014-06-15T09:34:45Z</time>
      </trkpt>
      <trkpt lat="60.020085" lon="17.755423">
        <ele>43.8773</ele>
        <time>2014-06-15T09:34:46Z</time>
      </trkpt>
      <trkpt lat="60.0200738" lon="17.7554725">
        <ele>43.3966</ele>
        <time>2014-06-15T09:34:47Z</time>
      </trkpt>
      <trkpt lat="60.0200617" lon="17.7555236">
        <ele>42.916</ele>
        <time>2014-06-15T09:34:48Z</time>
      </trkpt>
      <trkpt lat="60.0200521" lon="17.7555722">
        <ele>42.4354</ele>
        <time>2014-06-15T09:34:49Z</time>
      </trkpt>
      <trkpt lat="60.0200453" lon="17.7556167">
        <ele>41.9547</ele>
        <time>2014-06-15T09:34:50Z</time>
      </trkpt>
      <trkpt lat="60.0200389" lon="17.7556598">
        <ele>41.474</ele>
        <time>2014-06-15T09:34:51Z</time>
      </trkpt>
      <trkpt lat="60.0200323" lon="17.7557035">
        <ele>41.474</ele>
        <time>2014-06-15T09:34:52Z</time>
      </trkpt>
      <trkpt lat="60.0200272" lon="17.7557497">
        <ele>40.5128</ele>
        <time>2014-06-15T09:34:53Z</time>
      </trkpt>
      <trkpt lat="60.0200262" lon="17.7558009">
        <ele>40.9934</ele>
        <time>2014-06-15T09:34:54Z</time>
      </trkpt>
      <trkpt lat="60.0200234" lon="17.7558602">
        <ele>41.474</ele>
        <time>2014-06-15T09:34:55Z</time>
      </trkpt>
      <trkpt lat="60.0200163" lon="17.7559193">
        <ele>40.9934</ele>
        <time>2014-06-15T09:34:56Z</time>
      </trkpt>
      <trkpt lat="60.0200096" lon="17.7559765">
        <ele>40.9934</ele>
        <time>2014-06-15T09:34:57Z</time>
      </trkpt>
      <trkpt lat="60.020004" lon="17.756032">
        <ele>40.5128</ele>
        <time>2014-06-15T09:34:58Z</time>
      </trkpt>
      <trkpt lat="60.0200014" lon="17.7560834">
        <ele>40.0321</ele>
        <time>2014-06-15T09:34:59Z</time>
      </trkpt>
      <trkpt lat="60.0199991" lon="17.7561408">
        <ele>39.5513</ele>
        <time>2014-06-15T09:35:00Z</time>
      </trkpt>
      <trkpt lat="60.0199983" lon="17.7561972">
        <ele>40.0321</ele>
        <time>2014-06-15T09:35:01Z</time>
      </trkpt>
      <trkpt lat="60.0199983" lon="17.7562425">
        <ele>40.0321</ele>
        <time>2014-06-15T09:35:02Z</time>
      </trkpt>
      <trkpt lat="60.0199937" lon="17.7562937">
        <ele>39.5513</ele>
        <time>2014-06-15T09:35:03Z</time>
      </trkpt>
      <trkpt lat="60.0199921" lon="17.7563461">
        <ele>40.5128</ele>
        <time>2014-06-15T09:35:04Z</time>
      </trkpt>
      <trkpt lat="60.0199898" lon="17.7564032">
        <ele>40.9934</ele>
        <time>2014-06-15T09:35:05Z</time>
      </trkpt>
      <trkpt lat="60.0199845" lon="17.7564648">
        <ele>40.9934</ele>
        <time>2014-06-15T09:35:06Z</time>
      </trkpt>
      <trkpt lat="60.0199807" lon="17.7565253">
        <ele>42.4354</ele>
        <time>2014-06-15T09:35:07Z</time>
      </trkpt>
      <trkpt lat="60.0199749" lon="17.7565833">
        <ele>42.4354</ele>
        <time>2014-06-15T09:35:08Z</time>
      </trkpt>
      <trkpt lat="60.0199661" lon="17.7566336">
        <ele>42.4354</ele>
        <time>2014-06-15T09:35:09Z</time>
      </trkpt>
      <trkpt lat="60.0199556" lon="17.756688">
        <ele>42.4354</ele>
        <time>2014-06-15T09:35:10Z</time>
      </trkpt>
      <trkpt lat="60.0199443" lon="17.7567481">
        <ele>42.4354</ele>
        <time>2014-06-15T09:35:11Z</time>
      </trkpt>
      <trkpt lat="60.019933" lon="17.756801">
        <ele>42.916</ele>
        <time>2014-06-15T09:35:12Z</time>
      </trkpt>
      <trkpt lat="60.0199211" lon="17.7568487">
        <ele>42.916</ele>
        <time>2014-06-15T09:35:13Z</time>
      </trkpt>
      <trkpt lat="60.019912" lon="17.7569009">
        <ele>42.4354</ele>
        <time>2014-06-15T09:35:14Z</time>
      </trkpt>
      <trkpt lat="60.019904" lon="17.756947">
        <ele>42.4354</ele>
        <time>2014-06-15T09:35:15Z</time>
      </trkpt>
      <trkpt lat="60.0198871" lon="17.7569962">
        <ele>42.4354</ele>
        <time>2014-06-15T09:35:16Z</time>
      </trkpt>
      <trkpt lat="60.0198661" lon="17.7570437">
        <ele>41.9547</ele>
        <time>2014-06-15T09:35:17Z</time>
      </trkpt>
      <trkpt lat="60.0198454" lon="17.7570846">
        <ele>41.9547</ele>
        <time>2014-06-15T09:35:18Z</time>
      </trkpt>
      <trkpt lat="60.0198297" lon="17.7571256">
        <ele>41.9547</ele>
        <time>2014-06-15T09:35:19Z</time>
      </trkpt>
      <trkpt lat="60.0198199" lon="17.757169">
        <ele>41.9547</ele>
        <time>2014-06-15T09:35:20Z</time>
      </trkpt>
      <trkpt lat="60.0198059" lon="17.7572156">
        <ele>41.9547</ele>
        <time>2014-06-15T09:35:21Z</time>
      </trkpt>
      <trkpt lat="60.0197879" lon="17.7572532">
        <ele>40.9934</ele>
        <time>2014-06-15T09:35:22Z</time>
      </trkpt>
      <trkpt lat="60.0197759" lon="17.7572904">
        <ele>40.9934</ele>
        <time>2014-06-15T09:35:23Z</time>
      </trkpt>
      <trkpt lat="60.0197687" lon="17.7573347">
        <ele>40.9934</ele>
        <time>2014-06-15T09:35:24Z</time>
      </trkpt>
      <trkpt lat="60.0197587" lon="17.7573842">
        <ele>40.0321</ele>
        <time>2014-06-15T09:35:25Z</time>
      </trkpt>
      <trkpt lat="60.019753" lon="17.7574295">
        <ele>40.0321</ele>
        <time>2014-06-15T09:35:26Z</time>
      </trkpt>
      <trkpt lat="60.0197537" lon="17.7574773">
        <ele>40.0321</ele>
        <time>2014-06-15T09:35:27Z</time>
      </trkpt>
      <trkpt lat="60.0197538" lon="17.7575275">
        <ele>40.9934</ele>
        <time>2014-06-15T09:35:28Z</time>
      </trkpt>
      <trkpt lat="60.0197521" lon="17.7575803">
        <ele>41.474</ele>
        <time>2014-06-15T09:35:29Z</time>
      </trkpt>
      <trkpt lat="60.0197507" lon="17.7576344">
        <ele>41.9547</ele>
        <time>2014-06-15T09:35:30Z</time>
      </trkpt>
      <trkpt lat="60.0197439" lon="17.7576908">
        <ele>41.474</ele>
        <time>2014-06-15T09:35:31Z</time>
      </trkpt>
      <trkpt lat="60.0197319" lon="17.75775">
        <ele>41.474</ele>
        <time>2014-06-15T09:35:32Z</time>
      </trkpt>
      <trkpt lat="60.0197221" lon="17.7578079">
        <ele>41.474</ele>
        <time>2014-06-15T09:35:33Z</time>
      </trkpt>
      <trkpt lat="60.0197183" lon="17.7578628">
        <ele>42.4354</ele>
        <time>2014-06-15T09:35:34Z</time>
      </trkpt>
      <trkpt lat="60.0197164" lon="17.7579109">
        <ele>41.474</ele>
        <time>2014-06-15T09:35:35Z</time>
      </trkpt>
      <trkpt lat="60.0197138" lon="17.7579587">
        <ele>41.474</ele>
        <time>2014-06-15T09:35:36Z</time>
      </trkpt>
      <trkpt lat="60.0197106" lon="17.7580094">
        <ele>41.9547</ele>
        <time>2014-06-15T09:35:37Z</time>
      </trkpt>
      <trkpt lat="60.0197046" lon="17.7580544">
        <ele>42.916</ele>
        <time>2014-06-15T09:35:38Z</time>
      </trkpt>
      <trkpt lat="60.0197001" lon="17.7581041">
        <ele>42.4354</ele>
        <time>2014-06-15T09:35:39Z</time>
      </trkpt>
      <trkpt lat="60.0196993" lon="17.758157">
        <ele>42.916</ele>
        <time>2014-06-15T09:35:40Z</time>
      </trkpt>
      <trkpt lat="60.0196967" lon="17.7582128">
        <ele>42.916</ele>
        <time>2014-06-15T09:35:41Z</time>
      </trkpt>
      <trkpt lat="60.01969" lon="17.7582597">
        <ele>43.3966</ele>
        <time>2014-06-15T09:35:42Z</time>
      </trkpt>
      <trkpt lat="60.0196794" lon="17.7583016">
        <ele>43.3966</ele>
        <time>2014-06-15T09:35:43Z</time>
      </trkpt>
      <trkpt lat="60.0196656" lon="17.7583517">
        <ele>42.916</ele>
        <time>2014-06-15T09:35:44Z</time>
      </trkpt>
      <trkpt lat="60.0196579" lon="17.7583995">
        <ele>43.3966</ele>
        <time>2014-06-15T09:35:45Z</time>
      </trkpt>
      <trkpt lat="60.0196514" lon="17.758446">
        <ele>42.916</ele>
        <time>2014-06-15T09:35:46Z</time>
      </trkpt>
      <trkpt lat="60.0196439" lon="17.7584902">
        <ele>43.3966</ele>
        <time>2014-06-15T09:35:47Z</time>
      </trkpt>
      <trkpt lat="60.0196319" lon="17.7585252">
        <ele>43.8773</ele>
        <time>2014-06-15T09:35:48Z</time>
      </trkpt>
      <trkpt lat="60.0196224" lon="17.7585564">
        <ele>44.358</ele>
        <time>2014-06-15T09:35:49Z</time>
      </trkpt>
      <trkpt lat="60.0196178" lon="17.7585985">
        <ele>44.358</ele>
        <time>2014-06-15T09:35:50Z</time>
      </trkpt>
      <trkpt lat="60.0196132" lon="17.758645">
        <ele>45.3192</ele>
        <time>2014-06-15T09:35:51Z</time>
      </trkpt>
      <trkpt lat="60.0196061" lon="17.7587007">
        <ele>44.8386</ele>
        <time>2014-06-15T09:35:52Z</time>
      </trkpt>
      <trkpt lat="60.0195963" lon="17.7587605">
        <ele>44.358</ele>
        <time>2014-06-15T09:35:53Z</time>
      </trkpt>
      <trkpt lat="60.0195888" lon="17.7588225">
        <ele>44.358</ele>
        <time>2014-06-15T09:35:54Z</time>
      </trkpt>
      <trkpt lat="60.0195878" lon="17.7588782">
        <ele>44.8386</ele>
        <time>2014-06-15T09:35:55Z</time>
      </trkpt>
      <trkpt lat="60.0195947" lon="17.7589361">
        <ele>45.3192</ele>
        <time>2014-06-15T09:35:56Z</time>
      </trkpt>
      <trkpt lat="60.0195968" lon="17.7589899">
        <ele>46.2806</ele>
        <time>2014-06-15T09:35:57Z</time>
      </trkpt>
      <trkpt lat="60.0195976" lon="17.7590435">
        <ele>46.7612</ele>
        <time>2014-06-15T09:35:58Z</time>
      </trkpt>
      <trkpt lat="60.0195999" lon="17.7590977">
        <ele>46.7612</ele>
        <time>2014-06-15T09:35:59Z</time>
      </trkpt>
      <trkpt lat="60.019606" lon="17.7591495">
        <ele>46.7612</ele>
        <time>2014-06-15T09:36:00Z</time>
      </trkpt>
      <trkpt lat="60.0196186" lon="17.7592008">
        <ele>47.2418</ele>
        <time>2014-06-15T09:36:01Z</time>
      </trkpt>
      <trkpt lat="60.0196331" lon="17.7592542">
        <ele>48.2034</ele>
        <time>2014-06-15T09:36:02Z</time>
      </trkpt>
      <trkpt lat="60.0196471" lon="17.7593064">
        <ele>48.684</ele>
        <time>2014-06-15T09:36:03Z</time>
      </trkpt>
      <trkpt lat="60.0196548" lon="17.7593613">
        <ele>49.1646</ele>
        <time>2014-06-15T09:36:04Z</time>
      </trkpt>
      <trkpt lat="60.0196553" lon="17.7594168">
        <ele>49.6453</ele>
        <time>2014-06-15T09:36:05Z</time>
      </trkpt>
      <trkpt lat="60.0196511" lon="17.7594698">
        <ele>49.6453</ele>
        <time>2014-06-15T09:36:06Z</time>
      </trkpt>
      <trkpt lat="60.0196484" lon="17.7595184">
        <ele>49.6453</ele>
        <time>2014-06-15T09:36:07Z</time>
      </trkpt>
      <trkpt lat="60.0196486" lon="17.7595649">
        <ele>50.126</ele>
        <time>2014-06-15T09:36:08Z</time>
      </trkpt>
      <trkpt lat="60.0196418" lon="17.7596198">
        <ele>50.6066</ele>
        <time>2014-06-15T09:36:09Z</time>
      </trkpt>
      <trkpt lat="60.0196352" lon="17.7596743">
        <ele>50.6066</ele>
        <time>2014-06-15T09:36:10Z</time>
      </trkpt>
      <trkpt lat="60.0196289" lon="17.7597235">
        <ele>50.126</ele>
        <time>2014-06-15T09:36:11Z</time>
      </trkpt>
      <trkpt lat="60.0196273" lon="17.7597732">
        <ele>50.126</ele>
        <time>2014-06-15T09:36:12Z</time>
      </trkpt>
      <trkpt lat="60.0196273" lon="17.7598311">
        <ele>51.0872</ele>
        <time>2014-06-15T09:36:13Z</time>
      </trkpt>
      <trkpt lat="60.0196216" lon="17.7598909">
        <ele>50.6066</ele>
        <time>2014-06-15T09:36:14Z</time>
      </trkpt>
      <trkpt lat="60.0196204" lon="17.7599453">
        <ele>51.0872</ele>
        <time>2014-06-15T09:36:15Z</time>
      </trkpt>
      <trkpt lat="60.0196238" lon="17.7600002">
        <ele>52.0486</ele>
        <time>2014-06-15T09:36:16Z</time>
      </trkpt>
      <trkpt lat="60.0196282" lon="17.760058">
        <ele>53.0098</ele>
        <time>2014-06-15T09:36:17Z</time>
      </trkpt>
      <trkpt lat="60.0196241" lon="17.7601141">
        <ele>52.5292</ele>
        <time>2014-06-15T09:36:18Z</time>
      </trkpt>
      <trkpt lat="60.0196165" lon="17.760168">
        <ele>52.0486</ele>
        <time>2014-06-15T09:36:19Z</time>
      </trkpt>
      <trkpt lat="60.0196128" lon="17.7602199">
        <ele>52.5292</ele>
        <time>2014-06-15T09:36:20Z</time>
      </trkpt>
      <trkpt lat="60.0195993" lon="17.7602695">
        <ele>52.0486</ele>
        <time>2014-06-15T09:36:21Z</time>
      </trkpt>
      <trkpt lat="60.0195776" lon="17.760318">
        <ele>51.0872</ele>
        <time>2014-06-15T09:36:22Z</time>
      </trkpt>
      <trkpt lat="60.0195569" lon="17.7603631">
        <ele>50.126</ele>
        <time>2014-06-15T09:36:23Z</time>
      </trkpt>
      <trkpt lat="60.0195425" lon="17.7604004">
        <ele>50.126</ele>
        <time>2014-06-15T09:36:24Z</time>
      </trkpt>
      <trkpt lat="60.0195311" lon="17.7604511">
        <ele>50.126</ele>
        <time>2014-06-15T09:36:25Z</time>
      </trkpt>
      <trkpt lat="60.0195215" lon="17.7605035">
        <ele>50.6066</ele>
        <time>2014-06-15T09:36:26Z</time>
      </trkpt>
      <trkpt lat="60.0195102" lon="17.7605557">
        <ele>49.6453</ele>
        <time>2014-06-15T09:36:27Z</time>
      </trkpt>
      <trkpt lat="60.0195062" lon="17.7606046">
        <ele>49.6453</ele>
        <time>2014-06-15T09:36:28Z</time>
      </trkpt>
      <trkpt lat="60.0195023" lon="17.76065">
        <ele>49.1646</ele>
        <time>2014-06-15T09:36:29Z</time>
      </trkpt>
      <trkpt lat="60.0194994" lon="17.7607036">
        <ele>49.6453</ele>
        <time>2014-06-15T09:36:30Z</time>
      </trkpt>
      <trkpt lat="60.0194969" lon="17.7607637">
        <ele>48.684</ele>
        <time>2014-06-15T09:36:31Z</time>
      </trkpt>
      <trkpt lat="60.0194935" lon="17.7608176">
        <ele>48.684</ele>
        <time>2014-06-15T09:36:32Z</time>
      </trkpt>
      <trkpt lat="60.0194894" lon="17.7608724">
        <ele>48.684</ele>
        <time>2014-06-15T09:36:33Z</time>
      </trkpt>
      <trkpt lat="60.0194832" lon="17.760935">
        <ele>48.684</ele>
        <time>2014-06-15T09:36:34Z</time>
      </trkpt>
      <trkpt lat="60.0194764" lon="17.7609842">
        <ele>48.2034</ele>
        <time>2014-06-15T09:36:35Z</time>
      </trkpt>
      <trkpt lat="60.0194719" lon="17.7610355">
        <ele>48.684</ele>
        <time>2014-06-15T09:36:36Z</time>
      </trkpt>
      <trkpt lat="60.0194735" lon="17.7610886">
        <ele>48.684</ele>
        <time>2014-06-15T09:36:37Z</time>
      </trkpt>
      <trkpt lat="60.0194734" lon="17.761147">
        <ele>49.1646</ele>
        <time>2014-06-15T09:36:38Z</time>
      </trkpt>
      <trkpt lat="60.0194714" lon="17.7611983">
        <ele>49.1646</ele>
        <time>2014-06-15T09:36:39Z</time>
      </trkpt>
      <trkpt lat="60.0194652" lon="17.7612537">
        <ele>49.6453</ele>
        <time>2014-06-15T09:36:40Z</time>
      </trkpt>
      <trkpt lat="60.0194536" lon="17.7613091">
        <ele>49.1646</ele>
        <time>2014-06-15T09:36:41Z</time>
      </trkpt>
      <trkpt lat="60.0194368" lon="17.7613682">
        <ele>48.684</ele>
        <time>2014-06-15T09:36:42Z</time>
      </trkpt>
      <trkpt lat="60.0194196" lon="17.7614251">
        <ele>48.2034</ele>
        <time>2014-06-15T09:36:43Z</time>
      </trkpt>
      <trkpt lat="60.0194093" lon="17.7614696">
        <ele>48.2034</ele>
        <time>2014-06-15T09:36:44Z</time>
      </trkpt>
      <trkpt lat="60.0193933" lon="17.7615179">
        <ele>48.684</ele>
        <time>2014-06-15T09:36:45Z</time>
      </trkpt>
      <trkpt lat="60.0193777" lon="17.7615667">
        <ele>48.684</ele>
        <time>2014-06-15T09:36:46Z</time>
      </trkpt>
      <trkpt lat="60.0193672" lon="17.7616218">
        <ele>48.2034</ele>
        <time>2014-06-15T09:36:47Z</time>
      </trkpt>
      <trkpt lat="60.0193559" lon="17.7616827">
        <ele>48.684</ele>
        <time>2014-06-15T09:36:48Z</time>
      </trkpt>
      <trkpt lat="60.0193409" lon="17.7617391">
        <ele>47.7225</ele>
        <time>2014-06-15T09:36:49Z</time>
      </trkpt>
      <trkpt lat="60.0193258" lon="17.7617961">
        <ele>46.7612</ele>
        <time>2014-06-15T09:36:50Z</time>
      </trkpt>
      <trkpt lat="60.0193134" lon="17.7618545">
        <ele>46.7612</ele>
        <time>2014-06-15T09:36:51Z</time>
      </trkpt>
      <trkpt lat="60.0192997" lon="17.7619147">
        <ele>45.7999</ele>
        <time>2014-06-15T09:36:52Z</time>
      </trkpt>
      <trkpt lat="60.0192852" lon="17.761973">
        <ele>45.7999</ele>
        <time>2014-06-15T09:36:53Z</time>
      </trkpt>
      <trkpt lat="60.0192754" lon="17.7620199">
        <ele>44.8386</ele>
        <time>2014-06-15T09:36:54Z</time>
      </trkpt>
      <trkpt lat="60.0192745" lon="17.762067">
        <ele>45.3192</ele>
        <time>2014-06-15T09:36:55Z</time>
      </trkpt>
      <trkpt lat="60.0192739" lon="17.762117">
        <ele>45.3192</ele>
        <time>2014-06-15T09:36:56Z</time>
      </trkpt>
      <trkpt lat="60.0192735" lon="17.7621702">
        <ele>45.3192</ele>
        <time>2014-06-15T09:36:57Z</time>
      </trkpt>
      <trkpt lat="60.0192682" lon="17.7622202">
        <ele>44.8386</ele>
        <time>2014-06-15T09:36:58Z</time>
      </trkpt>
      <trkpt lat="60.0192625" lon="17.7622618">
        <ele>44.8386</ele>
        <time>2014-06-15T09:36:59Z</time>
      </trkpt>
      <trkpt lat="60.0192547" lon="17.7623058">
        <ele>45.7999</ele>
        <time>2014-06-15T09:37:00Z</time>
      </trkpt>
      <trkpt lat="60.019256" lon="17.7623576">
        <ele>46.2806</ele>
        <time>2014-06-15T09:37:01Z</time>
      </trkpt>
      <trkpt lat="60.0192549" lon="17.7624125">
        <ele>46.7612</ele>
        <time>2014-06-15T09:37:02Z</time>
      </trkpt>
      <trkpt lat="60.0192558" lon="17.7624674">
        <ele>47.7225</ele>
        <time>2014-06-15T09:37:03Z</time>
      </trkpt>
      <trkpt lat="60.0192505" lon="17.7625221">
        <ele>47.2418</ele>
        <time>2014-06-15T09:37:04Z</time>
      </trkpt>
      <trkpt lat="60.0192543" lon="17.7625793">
        <ele>48.684</ele>
        <time>2014-06-15T09:37:05Z</time>
      </trkpt>
      <trkpt lat="60.0192586" lon="17.7626383">
        <ele>49.1646</ele>
        <time>2014-06-15T09:37:06Z</time>
      </trkpt>
      <trkpt lat="60.0192617" lon="17.762698">
        <ele>50.126</ele>
        <time>2014-06-15T09:37:07Z</time>
      </trkpt>
      <trkpt lat="60.0192619" lon="17.7627558">
        <ele>51.0872</ele>
        <time>2014-06-15T09:37:08Z</time>
      </trkpt>
      <trkpt lat="60.0192596" lon="17.7628067">
        <ele>52.0486</ele>
        <time>2014-06-15T09:37:09Z</time>
      </trkpt>
      <trkpt lat="60.0192471" lon="17.7628508">
        <ele>51.5679</ele>
        <time>2014-06-15T09:37:10Z</time>
      </trkpt>
      <trkpt lat="60.0192374" lon="17.7628854">
        <ele>52.5292</ele>
        <time>2014-06-15T09:37:11Z</time>
      </trkpt>
      <trkpt lat="60.0192222" lon="17.7629201">
        <ele>53.0098</ele>
        <time>2014-06-15T09:37:12Z</time>
      </trkpt>
      <trkpt lat="60.0192046" lon="17.7629601">
        <ele>52.5292</ele>
        <time>2014-06-15T09:37:13Z</time>
      </trkpt>
      <trkpt lat="60.0191953" lon="17.7629947">
        <ele>53.4905</ele>
        <time>2014-06-15T09:37:14Z</time>
      </trkpt>
      <trkpt lat="60.0191856" lon="17.7630326">
        <ele>53.4905</ele>
        <time>2014-06-15T09:37:15Z</time>
      </trkpt>
      <trkpt lat="60.0191719" lon="17.7630671">
        <ele>52.0486</ele>
        <time>2014-06-15T09:37:16Z</time>
      </trkpt>
      <trkpt lat="60.0191579" lon="17.7630911">
        <ele>51.5679</ele>
        <time>2014-06-15T09:37:17Z</time>
      </trkpt>
      <trkpt lat="60.0191379" lon="17.7631197">
        <ele>50.6066</ele>
        <time>2014-06-15T09:37:18Z</time>
      </trkpt>
      <trkpt lat="60.0191207" lon="17.7631334">
        <ele>51.5679</ele>
        <time>2014-06-15T09:37:19Z</time>
      </trkpt>
      <trkpt lat="60.0191057" lon="17.7631577">
        <ele>51.0872</ele>
        <time>2014-06-15T09:37:20Z</time>
      </trkpt>
      <trkpt lat="60.0190897" lon="17.7631843">
        <ele>50.6066</ele>
        <time>2014-06-15T09:37:21Z</time>
      </trkpt>
      <trkpt lat="60.0190759" lon="17.7632082">
        <ele>49.6453</ele>
        <time>2014-06-15T09:37:22Z</time>
      </trkpt>
      <trkpt lat="60.0190663" lon="17.763229">
        <ele>50.126</ele>
        <time>2014-06-15T09:37:23Z</time>
      </trkpt>
      <trkpt lat="60.0190549" lon="17.7632484">
        <ele>51.0872</ele>
        <time>2014-06-15T09:37:24Z</time>
      </trkpt>
      <trkpt lat="60.019034" lon="17.7632714">
        <ele>51.0872</ele>
        <time>2014-06-15T09:37:25Z</time>
      </trkpt>
      <trkpt lat="60.0190136" lon="17.7633019">
        <ele>50.126</ele>
        <time>2014-06-15T09:37:26Z</time>
      </trkpt>
      <trkpt lat="60.0189937" lon="17.763333">
        <ele>49.1646</ele>
        <time>2014-06-15T09:37:27Z</time>
      </trkpt>
      <trkpt lat="60.0189704" lon="17.7633594">
        <ele>49.1646</ele>
        <time>2014-06-15T09:37:28Z</time>
      </trkpt>
      <trkpt lat="60.018953" lon="17.7633869">
        <ele>49.1646</ele>
        <time>2014-06-15T09:37:29Z</time>
      </trkpt>
      <trkpt lat="60.0189408" lon="17.7634179">
        <ele>50.126</ele>
        <time>2014-06-15T09:37:30Z</time>
      </trkpt>
      <trkpt lat="60.0189259" lon="17.763451">
        <ele>49.1646</ele>
        <time>2014-06-15T09:37:31Z</time>
      </trkpt>
      <trkpt lat="60.018914" lon="17.7634802">
        <ele>49.1646</ele>
        <time>2014-06-15T09:37:32Z</time>
      </trkpt>
      <trkpt lat="60.0189027" lon="17.7635094">
        <ele>49.1646</ele>
        <time>2014-06-15T09:37:33Z</time>
      </trkpt>
      <trkpt lat="60.0188898" lon="17.7635327">
        <ele>49.1646</ele>
        <time>2014-06-15T09:37:34Z</time>
      </trkpt>
      <trkpt lat="60.018873" lon="17.7635604">
        <ele>49.1646</ele>
        <time>2014-06-15T09:37:35Z</time>
      </trkpt>
      <trkpt lat="60.0188553" lon="17.7636029">
        <ele>49.1646</ele>
        <time>2014-06-15T09:37:36Z</time>
      </trkpt>
      <trkpt lat="60.0188356" lon="17.7636338">
        <ele>48.684</ele>
        <time>2014-06-15T09:37:37Z</time>
      </trkpt>
      <trkpt lat="60.018815" lon="17.7636532">
        <ele>48.2034</ele>
        <time>2014-06-15T09:37:38Z</time>
      </trkpt>
      <trkpt lat="60.0187965" lon="17.7636651">
        <ele>47.7225</ele>
        <time>2014-06-15T09:37:39Z</time>
      </trkpt>
      <trkpt lat="60.0187781" lon="17.763678">
        <ele>47.2418</ele>
        <time>2014-06-15T09:37:40Z</time>
      </trkpt>
      <trkpt lat="60.0187596" lon="17.7636852">
        <ele>46.7612</ele>
        <time>2014-06-15T09:37:41Z</time>
      </trkpt>
      <trkpt lat="60.018738" lon="17.7636977">
        <ele>45.7999</ele>
        <time>2014-06-15T09:37:42Z</time>
      </trkpt>
      <trkpt lat="60.0187133" lon="17.763712">
        <ele>45.7999</ele>
        <time>2014-06-15T09:37:43Z</time>
      </trkpt>
      <trkpt lat="60.0186857" lon="17.763724">
        <ele>45.3192</ele>
        <time>2014-06-15T09:37:44Z</time>
      </trkpt>
      <trkpt lat="60.018656" lon="17.7637368">
        <ele>45.3192</ele>
        <time>2014-06-15T09:37:45Z</time>
      </trkpt>
      <trkpt lat="60.0186235" lon="17.7637521">
        <ele>44.8386</ele>
        <time>2014-06-15T09:37:46Z</time>
      </trkpt>
      <trkpt lat="60.0185933" lon="17.7637583">
        <ele>43.3966</ele>
        <time>2014-06-15T09:37:47Z</time>
      </trkpt>
      <trkpt lat="60.0185673" lon="17.7637489">
        <ele>42.916</ele>
        <time>2014-06-15T09:37:48Z</time>
      </trkpt>
      <trkpt lat="60.0185432" lon="17.7637372">
        <ele>41.9547</ele>
        <time>2014-06-15T09:37:49Z</time>
      </trkpt>
      <trkpt lat="60.0185206" lon="17.7637172">
        <ele>41.9547</ele>
        <time>2014-06-15T09:37:50Z</time>
      </trkpt>
      <trkpt lat="60.018498" lon="17.7636961">
        <ele>40.5128</ele>
        <time>2014-06-15T09:37:51Z</time>
      </trkpt>
      <trkpt lat="60.0184735" lon="17.7636703">
        <ele>40.5128</ele>
        <time>2014-06-15T09:37:52Z</time>
      </trkpt>
      <trkpt lat="60.0184509" lon="17.7636474">
        <ele>40.5128</ele>
        <time>2014-06-15T09:37:53Z</time>
      </trkpt>
      <trkpt lat="60.0184274" lon="17.763635">
        <ele>39.5513</ele>
        <time>2014-06-15T09:37:54Z</time>
      </trkpt>
      <trkpt lat="60.0184039" lon="17.7636076">
        <ele>39.5513</ele>
        <time>2014-06-15T09:37:55Z</time>
      </trkpt>
      <trkpt lat="60.018383" lon="17.7635821">
        <ele>38.5901</ele>
        <time>2014-06-15T09:37:56Z</time>
      </trkpt>
      <trkpt lat="60.0183627" lon="17.7635535">
        <ele>38.1094</ele>
        <time>2014-06-15T09:37:57Z</time>
      </trkpt>
      <trkpt lat="60.0183446" lon="17.7635288">
        <ele>37.1481</ele>
        <time>2014-06-15T09:37:58Z</time>
      </trkpt>
      <trkpt lat="60.0183272" lon="17.7634981">
        <ele>36.6675</ele>
        <time>2014-06-15T09:37:59Z</time>
      </trkpt>
      <trkpt lat="60.0183101" lon="17.763464">
        <ele>37.1481</ele>
        <time>2014-06-15T09:38:00Z</time>
      </trkpt>
      <trkpt lat="60.0182836" lon="17.7634501">
        <ele>37.6287</ele>
        <time>2014-06-15T09:38:01Z</time>
      </trkpt>
      <trkpt lat="60.0182588" lon="17.7634382">
        <ele>37.6287</ele>
        <time>2014-06-15T09:38:02Z</time>
      </trkpt>
      <trkpt lat="60.0182433" lon="17.7634188">
        <ele>36.6675</ele>
        <time>2014-06-15T09:38:03Z</time>
      </trkpt>
      <trkpt lat="60.0182235" lon="17.7633882">
        <ele>37.1481</ele>
        <time>2014-06-15T09:38:04Z</time>
      </trkpt>
      <trkpt lat="60.0181974" lon="17.7633682">
        <ele>37.1481</ele>
        <time>2014-06-15T09:38:05Z</time>
      </trkpt>
      <trkpt lat="60.0181734" lon="17.7633382">
        <ele>36.6675</ele>
        <time>2014-06-15T09:38:06Z</time>
      </trkpt>
      <trkpt lat="60.0181478" lon="17.763305">
        <ele>36.1868</ele>
        <time>2014-06-15T09:38:07Z</time>
      </trkpt>
      <trkpt lat="60.0181233" lon="17.7632691">
        <ele>35.7061</ele>
        <time>2014-06-15T09:38:08Z</time>
      </trkpt>
      <trkpt lat="60.0181052" lon="17.7632253">
        <ele>35.7061</ele>
        <time>2014-06-15T09:38:09Z</time>
      </trkpt>
      <trkpt lat="60.0180893" lon="17.7631789">
        <ele>35.7061</ele>
        <time>2014-06-15T09:38:10Z</time>
      </trkpt>
      <trkpt lat="60.0180728" lon="17.7631299">
        <ele>35.7061</ele>
        <time>2014-06-15T09:38:11Z</time>
      </trkpt>
      <trkpt lat="60.0180575" lon="17.7630867">
        <ele>35.2255</ele>
        <time>2014-06-15T09:38:12Z</time>
      </trkpt>
      <trkpt lat="60.018041" lon="17.763046">
        <ele>34.7449</ele>
        <time>2014-06-15T09:38:13Z</time>
      </trkpt>
      <trkpt lat="60.0180237" lon="17.7630023">
        <ele>34.2642</ele>
        <time>2014-06-15T09:38:14Z</time>
      </trkpt>
      <trkpt lat="60.0180081" lon="17.7629532">
        <ele>33.7834</ele>
        <time>2014-06-15T09:38:15Z</time>
      </trkpt>
      <trkpt lat="60.0179952" lon="17.7629065">
        <ele>33.7834</ele>
        <time>2014-06-15T09:38:16Z</time>
      </trkpt>
      <trkpt lat="60.0179816" lon="17.7628628">
        <ele>33.7834</ele>
        <time>2014-06-15T09:38:17Z</time>
      </trkpt>
      <trkpt lat="60.0179727" lon="17.7628097">
        <ele>33.3029</ele>
        <time>2014-06-15T09:38:18Z</time>
      </trkpt>
      <trkpt lat="60.0179605" lon="17.7627619">
        <ele>32.3416</ele>
        <time>2014-06-15T09:38:19Z</time>
      </trkpt>
      <trkpt lat="60.0179413" lon="17.7627203">
        <ele>32.3416</ele>
        <time>2014-06-15T09:38:20Z</time>
      </trkpt>
      <trkpt lat="60.017926" lon="17.7626694">
        <ele>31.8607</ele>
        <time>2014-06-15T09:38:21Z</time>
      </trkpt>
      <trkpt lat="60.0179148" lon="17.7626213">
        <ele>31.8607</ele>
        <time>2014-06-15T09:38:22Z</time>
      </trkpt>
      <trkpt lat="60.0179023" lon="17.7625786">
        <ele>31.8607</ele>
        <time>2014-06-15T09:38:23Z</time>
      </trkpt>
      <trkpt lat="60.0178889" lon="17.7625327">
        <ele>31.3801</ele>
        <time>2014-06-15T09:38:24Z</time>
      </trkpt>
      <trkpt lat="60.0178771" lon="17.7624912">
        <ele>30.8995</ele>
        <time>2014-06-15T09:38:25Z</time>
      </trkpt>
      <trkpt lat="60.0178664" lon="17.7624529">
        <ele>30.8995</ele>
        <time>2014-06-15T09:38:26Z</time>
      </trkpt>
      <trkpt lat="60.0178562" lon="17.7624102">
        <ele>30.8995</ele>
        <time>2014-06-15T09:38:27Z</time>
      </trkpt>
      <trkpt lat="60.0178443" lon="17.7623679">
        <ele>30.4188</ele>
        <time>2014-06-15T09:38:28Z</time>
      </trkpt>
      <trkpt lat="60.0178334" lon="17.7623253">
        <ele>30.4188</ele>
        <time>2014-06-15T09:38:29Z</time>
      </trkpt>
      <trkpt lat="60.0178218" lon="17.7622864">
        <ele>30.4188</ele>
        <time>2014-06-15T09:38:30Z</time>
      </trkpt>
      <trkpt lat="60.017805" lon="17.7622379">
        <ele>29.9381</ele>
        <time>2014-06-15T09:38:31Z</time>
      </trkpt>
      <trkpt lat="60.0177837" lon="17.7621856">
        <ele>29.4575</ele>
        <time>2014-06-15T09:38:32Z</time>
      </trkpt>
      <trkpt lat="60.0177617" lon="17.7621332">
        <ele>29.4575</ele>
        <time>2014-06-15T09:38:33Z</time>
      </trkpt>
      <trkpt lat="60.0177407" lon="17.7620924">
        <ele>28.9769</ele>
        <time>2014-06-15T09:38:34Z</time>
      </trkpt>
      <trkpt lat="60.0177213" lon="17.762042">
        <ele>30.4188</ele>
        <time>2014-06-15T09:38:35Z</time>
      </trkpt>
      <trkpt lat="60.0177028" lon="17.7620029">
        <ele>29.9381</ele>
        <time>2014-06-15T09:38:36Z</time>
      </trkpt>
      <trkpt lat="60.0176879" lon="17.7619652">
        <ele>30.4188</ele>
        <time>2014-06-15T09:38:37Z</time>
      </trkpt>
      <trkpt lat="60.0176718" lon="17.761928">
        <ele>30.4188</ele>
        <time>2014-06-15T09:38:38Z</time>
      </trkpt>
      <trkpt lat="60.0176557" lon="17.7618851">
        <ele>30.4188</ele>
        <time>2014-06-15T09:38:39Z</time>
      </trkpt>
      <trkpt lat="60.0176367" lon="17.7618431">
        <ele>31.3801</ele>
        <time>2014-06-15T09:38:40Z</time>
      </trkpt>
      <trkpt lat="60.0176142" lon="17.7618064">
        <ele>32.8223</ele>
        <time>2014-06-15T09:38:41Z</time>
      </trkpt>
      <trkpt lat="60.0175918" lon="17.7617639">
        <ele>33.3029</ele>
        <time>2014-06-15T09:38:42Z</time>
      </trkpt>
      <trkpt lat="60.0175722" lon="17.7617252">
        <ele>33.7834</ele>
        <time>2014-06-15T09:38:43Z</time>
      </trkpt>
      <trkpt lat="60.0175514" lon="17.7616904">
        <ele>34.2642</ele>
        <time>2014-06-15T09:38:44Z</time>
      </trkpt>
      <trkpt lat="60.0175343" lon="17.7616624">
        <ele>34.2642</ele>
        <time>2014-06-15T09:38:45Z</time>
      </trkpt>
      <trkpt lat="60.0175111" lon="17.7616381">
        <ele>34.2642</ele>
        <time>2014-06-15T09:38:46Z</time>
      </trkpt>
      <trkpt lat="60.0174916" lon="17.7616105">
        <ele>34.2642</ele>
        <time>2014-06-15T09:38:47Z</time>
      </trkpt>
      <trkpt lat="60.0174686" lon="17.7615745">
        <ele>35.2255</ele>
        <time>2014-06-15T09:38:48Z</time>
      </trkpt>
      <trkpt lat="60.0174434" lon="17.7615361">
        <ele>35.7061</ele>
        <time>2014-06-15T09:38:49Z</time>
      </trkpt>
      <trkpt lat="60.0174145" lon="17.7615094">
        <ele>35.7061</ele>
        <time>2014-06-15T09:38:50Z</time>
      </trkpt>
      <trkpt lat="60.017388" lon="17.761478">
        <ele>35.2255</ele>
        <time>2014-06-15T09:38:51Z</time>
      </trkpt>
      <trkpt lat="60.017366" lon="17.7614376">
        <ele>34.7449</ele>
        <time>2014-06-15T09:38:52Z</time>
      </trkpt>
      <trkpt lat="60.0173438" lon="17.761391">
        <ele>35.2255</ele>
        <time>2014-06-15T09:38:53Z</time>
      </trkpt>
      <trkpt lat="60.017321" lon="17.7613413">
        <ele>35.7061</ele>
        <time>2014-06-15T09:38:54Z</time>
      </trkpt>
      <trkpt lat="60.0172967" lon="17.7613012">
        <ele>35.7061</ele>
        <time>2014-06-15T09:38:55Z</time>
      </trkpt>
      <trkpt lat="60.0172762" lon="17.761255">
        <ele>35.7061</ele>
        <time>2014-06-15T09:38:56Z</time>
      </trkpt>
      <trkpt lat="60.0172537" lon="17.7612108">
        <ele>35.2255</ele>
        <time>2014-06-15T09:38:57Z</time>
      </trkpt>
      <trkpt lat="60.0172357" lon="17.7611644">
        <ele>35.2255</ele>
        <time>2014-06-15T09:38:58Z</time>
      </trkpt>
      <trkpt lat="60.0172223" lon="17.7611184">
        <ele>35.7061</ele>
        <time>2014-06-15T09:38:59Z</time>
      </trkpt>
      <trkpt lat="60.0172065" lon="17.7610786">
        <ele>35.2255</ele>
        <time>2014-06-15T09:39:00Z</time>
      </trkpt>
      <trkpt lat="60.0171921" lon="17.7610373">
        <ele>35.2255</ele>
        <time>2014-06-15T09:39:01Z</time>
      </trkpt>
      <trkpt lat="60.0171813" lon="17.7609932">
        <ele>34.7449</ele>
        <time>2014-06-15T09:39:02Z</time>
      </trkpt>
      <trkpt lat="60.0171717" lon="17.7609417">
        <ele>35.2255</ele>
        <time>2014-06-15T09:39:03Z</time>
      </trkpt>
      <trkpt lat="60.0171619" lon="17.7608906">
        <ele>35.2255</ele>
        <time>2014-06-15T09:39:04Z</time>
      </trkpt>
      <trkpt lat="60.0171496" lon="17.7608451">
        <ele>35.2255</ele>
        <time>2014-06-15T09:39:05Z</time>
      </trkpt>
      <trkpt lat="60.0171377" lon="17.7607993">
        <ele>34.7449</ele>
        <time>2014-06-15T09:39:06Z</time>
      </trkpt>
      <trkpt lat="60.0171273" lon="17.7607573">
        <ele>33.3029</ele>
        <time>2014-06-15T09:39:07Z</time>
      </trkpt>
      <trkpt lat="60.0171144" lon="17.7607247">
        <ele>33.7834</ele>
        <time>2014-06-15T09:39:08Z</time>
      </trkpt>
      <trkpt lat="60.0171014" lon="17.7606907">
        <ele>33.7834</ele>
        <time>2014-06-15T09:39:09Z</time>
      </trkpt>
      <trkpt lat="60.0170892" lon="17.7606518">
        <ele>33.3029</ele>
        <time>2014-06-15T09:39:10Z</time>
      </trkpt>
      <trkpt lat="60.0170823" lon="17.7606089">
        <ele>33.3029</ele>
        <time>2014-06-15T09:39:11Z</time>
      </trkpt>
      <trkpt lat="60.017074" lon="17.7605632">
        <ele>33.7834</ele>
        <time>2014-06-15T09:39:12Z</time>
      </trkpt>
      <trkpt lat="60.0170683" lon="17.7605218">
        <ele>34.2642</ele>
        <time>2014-06-15T09:39:13Z</time>
      </trkpt>
      <trkpt lat="60.017061" lon="17.7604739">
        <ele>34.2642</ele>
        <time>2014-06-15T09:39:14Z</time>
      </trkpt>
      <trkpt lat="60.0170498" lon="17.7604195">
        <ele>34.7449</ele>
        <time>2014-06-15T09:39:15Z</time>
      </trkpt>
      <trkpt lat="60.0170373" lon="17.7603742">
        <ele>35.2255</ele>
        <time>2014-06-15T09:39:16Z</time>
      </trkpt>
      <trkpt lat="60.0170277" lon="17.76033">
        <ele>35.2255</ele>
        <time>2014-06-15T09:39:17Z</time>
      </trkpt>
      <trkpt lat="60.0170179" lon="17.760283">
        <ele>34.7449</ele>
        <time>2014-06-15T09:39:18Z</time>
      </trkpt>
      <trkpt lat="60.017004" lon="17.7602397">
        <ele>34.7449</ele>
        <time>2014-06-15T09:39:19Z</time>
      </trkpt>
      <trkpt lat="60.0169894" lon="17.7601918">
        <ele>34.2642</ele>
        <time>2014-06-15T09:39:20Z</time>
      </trkpt>
      <trkpt lat="60.0169799" lon="17.7601401">
        <ele>33.7834</ele>
        <time>2014-06-15T09:39:21Z</time>
      </trkpt>
      <trkpt lat="60.0169737" lon="17.7600807">
        <ele>33.7834</ele>
        <time>2014-06-15T09:39:22Z</time>
      </trkpt>
      <trkpt lat="60.0169667" lon="17.7600219">
        <ele>33.7834</ele>
        <time>2014-06-15T09:39:23Z</time>
      </trkpt>
      <trkpt lat="60.0169596" lon="17.7599621">
        <ele>32.8223</ele>
        <time>2014-06-15T09:39:24Z</time>
      </trkpt>
      <trkpt lat="60.0169501" lon="17.7599167">
        <ele>32.8223</ele>
        <time>2014-06-15T09:39:25Z</time>
      </trkpt>
      <trkpt lat="60.0169404" lon="17.7598711">
        <ele>32.8223</ele>
        <time>2014-06-15T09:39:26Z</time>
      </trkpt>
      <trkpt lat="60.0169342" lon="17.7598095">
        <ele>32.3416</ele>
        <time>2014-06-15T09:39:27Z</time>
      </trkpt>
      <trkpt lat="60.0169264" lon="17.7597476">
        <ele>32.3416</ele>
        <time>2014-06-15T09:39:28Z</time>
      </trkpt>
      <trkpt lat="60.0169186" lon="17.7596929">
        <ele>31.8607</ele>
        <time>2014-06-15T09:39:29Z</time>
      </trkpt>
      <trkpt lat="60.0169097" lon="17.7596406">
        <ele>32.3416</ele>
        <time>2014-06-15T09:39:30Z</time>
      </trkpt>
      <trkpt lat="60.0169036" lon="17.7595862">
        <ele>32.3416</ele>
        <time>2014-06-15T09:39:31Z</time>
      </trkpt>
      <trkpt lat="60.0168984" lon="17.7595343">
        <ele>32.3416</ele>
        <time>2014-06-15T09:39:32Z</time>
      </trkpt>
      <trkpt lat="60.0168922" lon="17.7594821">
        <ele>31.8607</ele>
        <time>2014-06-15T09:39:33Z</time>
      </trkpt>
      <trkpt lat="60.016887" lon="17.7594294">
        <ele>31.8607</ele>
        <time>2014-06-15T09:39:34Z</time>
      </trkpt>
      <trkpt lat="60.0168767" lon="17.7593754">
        <ele>32.3416</ele>
        <time>2014-06-15T09:39:35Z</time>
      </trkpt>
      <trkpt lat="60.0168683" lon="17.7593165">
        <ele>32.3416</ele>
        <time>2014-06-15T09:39:36Z</time>
      </trkpt>
      <trkpt lat="60.0168575" lon="17.7592661">
        <ele>32.3416</ele>
        <time>2014-06-15T09:39:37Z</time>
      </trkpt>
      <trkpt lat="60.0168532" lon="17.7592136">
        <ele>32.8223</ele>
        <time>2014-06-15T09:39:38Z</time>
      </trkpt>
      <trkpt lat="60.0168492" lon="17.7591535">
        <ele>33.7834</ele>
        <time>2014-06-15T09:39:39Z</time>
      </trkpt>
      <trkpt lat="60.0168466" lon="17.7590919">
        <ele>34.2642</ele>
        <time>2014-06-15T09:39:40Z</time>
      </trkpt>
      <trkpt lat="60.0168408" lon="17.7590289">
        <ele>35.2255</ele>
        <time>2014-06-15T09:39:41Z</time>
      </trkpt>
      <trkpt lat="60.0168387" lon="17.7589714">
        <ele>35.7061</ele>
        <time>2014-06-15T09:39:42Z</time>
      </trkpt>
      <trkpt lat="60.0168312" lon="17.7589174">
        <ele>36.1868</ele>
        <time>2014-06-15T09:39:43Z</time>
      </trkpt>
      <trkpt lat="60.0168223" lon="17.758852">
        <ele>36.1868</ele>
        <time>2014-06-15T09:39:44Z</time>
      </trkpt>
      <trkpt lat="60.0168133" lon="17.7587833">
        <ele>36.6675</ele>
        <time>2014-06-15T09:39:45Z</time>
      </trkpt>
      <trkpt lat="60.0168052" lon="17.7587171">
        <ele>37.1481</ele>
        <time>2014-06-15T09:39:46Z</time>
      </trkpt>
      <trkpt lat="60.0167991" lon="17.7586513">
        <ele>37.6287</ele>
        <time>2014-06-15T09:39:47Z</time>
      </trkpt>
      <trkpt lat="60.0167895" lon="17.75859">
        <ele>37.6287</ele>
        <time>2014-06-15T09:39:48Z</time>
      </trkpt>
      <trkpt lat="60.0167794" lon="17.758531">
        <ele>37.6287</ele>
        <time>2014-06-15T09:39:49Z</time>
      </trkpt>
      <trkpt lat="60.0167689" lon="17.7584813">
        <ele>37.6287</ele>
        <time>2014-06-15T09:39:50Z</time>
      </trkpt>
      <trkpt lat="60.0167519" lon="17.7584319">
        <ele>37.6287</ele>
        <time>2014-06-15T09:39:51Z</time>
      </trkpt>
      <trkpt lat="60.0167322" lon="17.7583855">
        <ele>37.6287</ele>
        <time>2014-06-15T09:39:52Z</time>
      </trkpt>
      <trkpt lat="60.01671" lon="17.7583434">
        <ele>38.5901</ele>
        <time>2014-06-15T09:39:53Z</time>
      </trkpt>
      <trkpt lat="60.0166943" lon="17.7583253">
        <ele>38.5901</ele>
        <time>2014-06-15T09:39:54Z</time>
      </trkpt>
      <trkpt lat="60.0166788" lon="17.7583061">
        <ele>38.1094</ele>
        <time>2014-06-15T09:39:55Z</time>
      </trkpt>
      <trkpt lat="60.016659" lon="17.7582902">
        <ele>38.5901</ele>
        <time>2014-06-15T09:39:56Z</time>
      </trkpt>
      <trkpt lat="60.0166354" lon="17.7582703">
        <ele>38.5901</ele>
        <time>2014-06-15T09:39:57Z</time>
      </trkpt>
      <trkpt lat="60.0166115" lon="17.7582524">
        <ele>38.1094</ele>
        <time>2014-06-15T09:39:58Z</time>
      </trkpt>
      <trkpt lat="60.0165902" lon="17.7582415">
        <ele>38.1094</ele>
        <time>2014-06-15T09:39:59Z</time>
      </trkpt>
      <trkpt lat="60.0165704" lon="17.7582254">
        <ele>37.6287</ele>
        <time>2014-06-15T09:40:00Z</time>
      </trkpt>
      <trkpt lat="60.0165514" lon="17.7582032">
        <ele>38.1094</ele>
        <time>2014-06-15T09:40:01Z</time>
      </trkpt>
      <trkpt lat="60.0165265" lon="17.7582011">
        <ele>37.6287</ele>
        <time>2014-06-15T09:40:02Z</time>
      </trkpt>
      <trkpt lat="60.0165031" lon="17.7581845">
        <ele>36.6675</ele>
        <time>2014-06-15T09:40:03Z</time>
      </trkpt>
      <trkpt lat="60.0164779" lon="17.7581602">
        <ele>35.7061</ele>
        <time>2014-06-15T09:40:04Z</time>
      </trkpt>
      <trkpt lat="60.0164514" lon="17.7581253">
        <ele>34.7449</ele>
        <time>2014-06-15T09:40:05Z</time>
      </trkpt>
      <trkpt lat="60.0164327" lon="17.7580844">
        <ele>33.7834</ele>
        <time>2014-06-15T09:40:06Z</time>
      </trkpt>
      <trkpt lat="60.0164188" lon="17.7580379">
        <ele>33.3029</ele>
        <time>2014-06-15T09:40:07Z</time>
      </trkpt>
      <trkpt lat="60.0164028" lon="17.7579948">
        <ele>32.8223</ele>
        <time>2014-06-15T09:40:08Z</time>
      </trkpt>
      <trkpt lat="60.0163921" lon="17.7579395">
        <ele>32.3416</ele>
        <time>2014-06-15T09:40:09Z</time>
      </trkpt>
      <trkpt lat="60.0163841" lon="17.7578721">
        <ele>33.3029</ele>
        <time>2014-06-15T09:40:10Z</time>
      </trkpt>
      <trkpt lat="60.0163784" lon="17.757817">
        <ele>32.3416</ele>
        <time>2014-06-15T09:40:11Z</time>
      </trkpt>
      <trkpt lat="60.0163752" lon="17.7577621">
        <ele>31.3801</ele>
        <time>2014-06-15T09:40:12Z</time>
      </trkpt>
      <trkpt lat="60.0163726" lon="17.7577084">
        <ele>30.8995</ele>
        <time>2014-06-15T09:40:13Z</time>
      </trkpt>
      <trkpt lat="60.0163741" lon="17.7576582">
        <ele>29.9381</ele>
        <time>2014-06-15T09:40:14Z</time>
      </trkpt>
      <trkpt lat="60.0163706" lon="17.757607">
        <ele>29.9381</ele>
        <time>2014-06-15T09:40:15Z</time>
      </trkpt>
      <trkpt lat="60.0163575" lon="17.7575582">
        <ele>28.9769</ele>
        <time>2014-06-15T09:40:16Z</time>
      </trkpt>
      <trkpt lat="60.0163448" lon="17.7575161">
        <ele>28.9769</ele>
        <time>2014-06-15T09:40:17Z</time>
      </trkpt>
      <trkpt lat="60.0163337" lon="17.757472">
        <ele>28.4962</ele>
        <time>2014-06-15T09:40:18Z</time>
      </trkpt>
      <trkpt lat="60.016325" lon="17.7574199">
        <ele>27.5349</ele>
        <time>2014-06-15T09:40:19Z</time>
      </trkpt>
      <trkpt lat="60.0163144" lon="17.7573672">
        <ele>27.5349</ele>
        <time>2014-06-15T09:40:20Z</time>
      </trkpt>
      <trkpt lat="60.0163004" lon="17.7573169">
        <ele>27.0543</ele>
        <time>2014-06-15T09:40:21Z</time>
      </trkpt>
      <trkpt lat="60.0162876" lon="17.7572661">
        <ele>27.0543</ele>
        <time>2014-06-15T09:40:22Z</time>
      </trkpt>
      <trkpt lat="60.0162757" lon="17.7572125">
        <ele>26.5736</ele>
        <time>2014-06-15T09:40:23Z</time>
      </trkpt>
      <trkpt lat="60.0162691" lon="17.7571573">
        <ele>26.0929</ele>
        <time>2014-06-15T09:40:24Z</time>
      </trkpt>
      <trkpt lat="60.0162612" lon="17.7571039">
        <ele>26.0929</ele>
        <time>2014-06-15T09:40:25Z</time>
      </trkpt>
      <trkpt lat="60.0162564" lon="17.7570412">
        <ele>26.0929</ele>
        <time>2014-06-15T09:40:26Z</time>
      </trkpt>
      <trkpt lat="60.0162524" lon="17.7569802">
        <ele>26.0929</ele>
        <time>2014-06-15T09:40:27Z</time>
      </trkpt>
      <trkpt lat="60.0162452" lon="17.7569193">
        <ele>25.6123</ele>
        <time>2014-06-15T09:40:28Z</time>
      </trkpt>
      <trkpt lat="60.0162391" lon="17.7568579">
        <ele>26.0929</ele>
        <time>2014-06-15T09:40:29Z</time>
      </trkpt>
      <trkpt lat="60.0162292" lon="17.7568051">
        <ele>26.0929</ele>
        <time>2014-06-15T09:40:30Z</time>
      </trkpt>
      <trkpt lat="60.0162162" lon="17.7567496">
        <ele>26.0929</ele>
        <time>2014-06-15T09:40:31Z</time>
      </trkpt>
      <trkpt lat="60.0162036" lon="17.7566834">
        <ele>28.0155</ele>
        <time>2014-06-15T09:40:32Z</time>
      </trkpt>
      <trkpt lat="60.0161919" lon="17.7566165">
        <ele>28.9769</ele>
        <time>2014-06-15T09:40:33Z</time>
      </trkpt>
      <trkpt lat="60.016184" lon="17.7565542">
        <ele>29.9381</ele>
        <time>2014-06-15T09:40:34Z</time>
      </trkpt>
      <trkpt lat="60.0161767" lon="17.7565011">
        <ele>29.9381</ele>
        <time>2014-06-15T09:40:35Z</time>
      </trkpt>
      <trkpt lat="60.0161736" lon="17.7564449">
        <ele>30.4188</ele>
        <time>2014-06-15T09:40:36Z</time>
      </trkpt>
      <trkpt lat="60.016168" lon="17.7563878">
        <ele>30.4188</ele>
        <time>2014-06-15T09:40:37Z</time>
      </trkpt>
      <trkpt lat="60.0161655" lon="17.7563274">
        <ele>30.8995</ele>
        <time>2014-06-15T09:40:38Z</time>
      </trkpt>
      <trkpt lat="60.0161731" lon="17.7562671">
        <ele>30.8995</ele>
        <time>2014-06-15T09:40:39Z</time>
      </trkpt>
      <trkpt lat="60.0161779" lon="17.7562109">
        <ele>31.3801</ele>
        <time>2014-06-15T09:40:40Z</time>
      </trkpt>
      <trkpt lat="60.0161769" lon="17.7561583">
        <ele>31.8607</ele>
        <time>2014-06-15T09:40:41Z</time>
      </trkpt>
      <trkpt lat="60.0161727" lon="17.7561154">
        <ele>32.3416</ele>
        <time>2014-06-15T09:40:42Z</time>
      </trkpt>
      <trkpt lat="60.0161709" lon="17.7560719">
        <ele>32.3416</ele>
        <time>2014-06-15T09:40:43Z</time>
      </trkpt>
      <trkpt lat="60.0161591" lon="17.7560155">
        <ele>32.3416</ele>
        <time>2014-06-15T09:40:44Z</time>
      </trkpt>
      <trkpt lat="60.0161456" lon="17.7559546">
        <ele>32.3416</ele>
        <time>2014-06-15T09:40:45Z</time>
      </trkpt>
      <trkpt lat="60.0161324" lon="17.7558927">
        <ele>32.3416</ele>
        <time>2014-06-15T09:40:46Z</time>
      </trkpt>
      <trkpt lat="60.0161131" lon="17.7558308">
        <ele>31.8607</ele>
        <time>2014-06-15T09:40:47Z</time>
      </trkpt>
      <trkpt lat="60.0161037" lon="17.75577">
        <ele>32.3416</ele>
        <time>2014-06-15T09:40:48Z</time>
      </trkpt>
      <trkpt lat="60.0160995" lon="17.7557099">
        <ele>32.3416</ele>
        <time>2014-06-15T09:40:49Z</time>
      </trkpt>
      <trkpt lat="60.0160992" lon="17.7556505">
        <ele>32.3416</ele>
        <time>2014-06-15T09:40:50Z</time>
      </trkpt>
      <trkpt lat="60.0161032" lon="17.7555923">
        <ele>32.3416</ele>
        <time>2014-06-15T09:40:51Z</time>
      </trkpt>
      <trkpt lat="60.0161122" lon="17.7555349">
        <ele>31.8607</ele>
        <time>2014-06-15T09:40:52Z</time>
      </trkpt>
      <trkpt lat="60.0161248" lon="17.7554794">
        <ele>32.3416</ele>
        <time>2014-06-15T09:40:53Z</time>
      </trkpt>
      <trkpt lat="60.0161312" lon="17.7554302">
        <ele>32.8223</ele>
        <time>2014-06-15T09:40:54Z</time>
      </trkpt>
      <trkpt lat="60.0161339" lon="17.7553798">
        <ele>32.8223</ele>
        <time>2014-06-15T09:40:55Z</time>
      </trkpt>
      <trkpt lat="60.01614" lon="17.7553259">
        <ele>33.3029</ele>
        <time>2014-06-15T09:40:56Z</time>
      </trkpt>
      <trkpt lat="60.0161509" lon="17.7552722">
        <ele>33.7834</ele>
        <time>2014-06-15T09:40:57Z</time>
      </trkpt>
      <trkpt lat="60.0161624" lon="17.7552204">
        <ele>33.7834</ele>
        <time>2014-06-15T09:40:58Z</time>
      </trkpt>
      <trkpt lat="60.016172" lon="17.755163">
        <ele>33.3029</ele>
        <time>2014-06-15T09:40:59Z</time>
      </trkpt>
      <trkpt lat="60.0161815" lon="17.7551096">
        <ele>33.3029</ele>
        <time>2014-06-15T09:41:00Z</time>
      </trkpt>
      <trkpt lat="60.0161904" lon="17.7550521">
        <ele>33.3029</ele>
        <time>2014-06-15T09:41:01Z</time>
      </trkpt>
      <trkpt lat="60.016197" lon="17.7549966">
        <ele>33.3029</ele>
        <time>2014-06-15T09:41:02Z</time>
      </trkpt>
      <trkpt lat="60.0162047" lon="17.7549503">
        <ele>33.3029</ele>
        <time>2014-06-15T09:41:03Z</time>
      </trkpt>
      <trkpt lat="60.0162104" lon="17.7548965">
        <ele>33.7834</ele>
        <time>2014-06-15T09:41:04Z</time>
      </trkpt>
      <trkpt lat="60.0162192" lon="17.7548412">
        <ele>33.7834</ele>
        <time>2014-06-15T09:41:05Z</time>
      </trkpt>
      <trkpt lat="60.0162296" lon="17.7547915">
        <ele>32.8223</ele>
        <time>2014-06-15T09:41:06Z</time>
      </trkpt>
      <trkpt lat="60.0162303" lon="17.7547388">
        <ele>32.8223</ele>
        <time>2014-06-15T09:41:07Z</time>
      </trkpt>
      <trkpt lat="60.0162151" lon="17.7546875">
        <ele>32.8223</ele>
        <time>2014-06-15T09:41:08Z</time>
      </trkpt>
      <trkpt lat="60.0161914" lon="17.7546324">
        <ele>32.8223</ele>
        <time>2014-06-15T09:41:09Z</time>
      </trkpt>
      <trkpt lat="60.0161653" lon="17.7545772">
        <ele>31.8607</ele>
        <time>2014-06-15T09:41:10Z</time>
      </trkpt>
      <trkpt lat="60.01614" lon="17.754532">
        <ele>31.3801</ele>
        <time>2014-06-15T09:41:11Z</time>
      </trkpt>
      <trkpt lat="60.0161116" lon="17.7544992">
        <ele>30.4188</ele>
        <time>2014-06-15T09:41:12Z</time>
      </trkpt>
      <trkpt lat="60.0160839" lon="17.7544714">
        <ele>29.9381</ele>
        <time>2014-06-15T09:41:13Z</time>
      </trkpt>
      <trkpt lat="60.0160606" lon="17.7544292">
        <ele>29.9381</ele>
        <time>2014-06-15T09:41:14Z</time>
      </trkpt>
      <trkpt lat="60.0160347" lon="17.7543952">
        <ele>29.9381</ele>
        <time>2014-06-15T09:41:15Z</time>
      </trkpt>
      <trkpt lat="60.0160047" lon="17.7543652">
        <ele>30.4188</ele>
        <time>2014-06-15T09:41:16Z</time>
      </trkpt>
      <trkpt lat="60.015978" lon="17.7543466">
        <ele>29.9381</ele>
        <time>2014-06-15T09:41:17Z</time>
      </trkpt>
      <trkpt lat="60.0159504" lon="17.7543258">
        <ele>30.4188</ele>
        <time>2014-06-15T09:41:18Z</time>
      </trkpt>
      <trkpt lat="60.0159213" lon="17.754303">
        <ele>30.4188</ele>
        <time>2014-06-15T09:41:19Z</time>
      </trkpt>
      <trkpt lat="60.0158905" lon="17.7542769">
        <ele>30.4188</ele>
        <time>2014-06-15T09:41:20Z</time>
      </trkpt>
      <trkpt lat="60.0158599" lon="17.7542495">
        <ele>29.9381</ele>
        <time>2014-06-15T09:41:21Z</time>
      </trkpt>
      <trkpt lat="60.0158334" lon="17.754222">
        <ele>29.4575</ele>
        <time>2014-06-15T09:41:22Z</time>
      </trkpt>
      <trkpt lat="60.0158075" lon="17.7541811">
        <ele>29.4575</ele>
        <time>2014-06-15T09:41:23Z</time>
      </trkpt>
      <trkpt lat="60.0157811" lon="17.7541485">
        <ele>28.4962</ele>
        <time>2014-06-15T09:41:24Z</time>
      </trkpt>
      <trkpt lat="60.0157571" lon="17.7541123">
        <ele>28.4962</ele>
        <time>2014-06-15T09:41:25Z</time>
      </trkpt>
      <trkpt lat="60.0157371" lon="17.754069">
        <ele>27.5349</ele>
        <time>2014-06-15T09:41:26Z</time>
      </trkpt>
      <trkpt lat="60.0157209" lon="17.7540143">
        <ele>27.0543</ele>
        <time>2014-06-15T09:41:27Z</time>
      </trkpt>
      <trkpt lat="60.015706" lon="17.7539679">
        <ele>26.5736</ele>
        <time>2014-06-15T09:41:28Z</time>
      </trkpt>
      <trkpt lat="60.0156918" lon="17.7539275">
        <ele>26.5736</ele>
        <time>2014-06-15T09:41:29Z</time>
      </trkpt>
      <trkpt lat="60.0156785" lon="17.7538833">
        <ele>26.5736</ele>
        <time>2014-06-15T09:41:30Z</time>
      </trkpt>
      <trkpt lat="60.0156569" lon="17.7538466">
        <ele>27.0543</ele>
        <time>2014-06-15T09:41:31Z</time>
      </trkpt>
      <trkpt lat="60.0156302" lon="17.7538083">
        <ele>27.5349</ele>
        <time>2014-06-15T09:41:32Z</time>
      </trkpt>
      <trkpt lat="60.0156022" lon="17.7537746">
        <ele>28.0155</ele>
        <time>2014-06-15T09:41:33Z</time>
      </trkpt>
      <trkpt lat="60.0155744" lon="17.7537435">
        <ele>28.0155</ele>
        <time>2014-06-15T09:41:34Z</time>
      </trkpt>
      <trkpt lat="60.0155483" lon="17.7537142">
        <ele>28.4962</ele>
        <time>2014-06-15T09:41:35Z</time>
      </trkpt>
      <trkpt lat="60.0155276" lon="17.7536819">
        <ele>28.4962</ele>
        <time>2014-06-15T09:41:36Z</time>
      </trkpt>
      <trkpt lat="60.0155106" lon="17.7536472">
        <ele>28.4962</ele>
        <time>2014-06-15T09:41:37Z</time>
      </trkpt>
      <trkpt lat="60.0154991" lon="17.7536016">
        <ele>28.4962</ele>
        <time>2014-06-15T09:41:38Z</time>
      </trkpt>
      <trkpt lat="60.0154899" lon="17.7535652">
        <ele>28.0155</ele>
        <time>2014-06-15T09:41:39Z</time>
      </trkpt>
      <trkpt lat="60.0154838" lon="17.7535353">
        <ele>28.0155</ele>
        <time>2014-06-15T09:41:40Z</time>
      </trkpt>
      <trkpt lat="60.0154733" lon="17.7534886">
        <ele>27.5349</ele>
        <time>2014-06-15T09:41:41Z</time>
      </trkpt>
      <trkpt lat="60.0154672" lon="17.7534372">
        <ele>27.5349</ele>
        <time>2014-06-15T09:41:42Z</time>
      </trkpt>
      <trkpt lat="60.0154691" lon="17.7533902">
        <ele>27.0543</ele>
        <time>2014-06-15T09:41:43Z</time>
      </trkpt>
      <trkpt lat="60.0154732" lon="17.7533474">
        <ele>27.0543</ele>
        <time>2014-06-15T09:41:44Z</time>
      </trkpt>
      <trkpt lat="60.0154812" lon="17.7533038">
        <ele>27.5349</ele>
        <time>2014-06-15T09:41:45Z</time>
      </trkpt>
      <trkpt lat="60.0154983" lon="17.7532645">
        <ele>27.5349</ele>
        <time>2014-06-15T09:41:46Z</time>
      </trkpt>
      <trkpt lat="60.0155196" lon="17.7532297">
        <ele>28.0155</ele>
        <time>2014-06-15T09:41:47Z</time>
      </trkpt>
      <trkpt lat="60.0155407" lon="17.753193">
        <ele>27.5349</ele>
        <time>2014-06-15T09:41:48Z</time>
      </trkpt>
      <trkpt lat="60.0155646" lon="17.7531562">
        <ele>28.4962</ele>
        <time>2014-06-15T09:41:49Z</time>
      </trkpt>
      <trkpt lat="60.0155754" lon="17.7531151">
        <ele>28.4962</ele>
        <time>2014-06-15T09:41:50Z</time>
      </trkpt>
      <trkpt lat="60.0155853" lon="17.7530718">
        <ele>28.4962</ele>
        <time>2014-06-15T09:41:51Z</time>
      </trkpt>
      <trkpt lat="60.0155944" lon="17.7530148">
        <ele>28.9769</ele>
        <time>2014-06-15T09:41:52Z</time>
      </trkpt>
      <trkpt lat="60.015605" lon="17.752961">
        <ele>28.9769</ele>
        <time>2014-06-15T09:41:53Z</time>
      </trkpt>
      <trkpt lat="60.0156143" lon="17.7529116">
        <ele>29.4575</ele>
        <time>2014-06-15T09:41:54Z</time>
      </trkpt>
      <trkpt lat="60.0156257" lon="17.7528635">
        <ele>29.9381</ele>
        <time>2014-06-15T09:41:55Z</time>
      </trkpt>
      <trkpt lat="60.015633" lon="17.7528073">
        <ele>29.4575</ele>
        <time>2014-06-15T09:41:56Z</time>
      </trkpt>
      <trkpt lat="60.0156493" lon="17.7527541">
        <ele>28.9769</ele>
        <time>2014-06-15T09:41:57Z</time>
      </trkpt>
      <trkpt lat="60.0156558" lon="17.7526967">
        <ele>28.9769</ele>
        <time>2014-06-15T09:41:58Z</time>
      </trkpt>
      <trkpt lat="60.0156617" lon="17.7526445">
        <ele>29.9381</ele>
        <time>2014-06-15T09:41:59Z</time>
      </trkpt>
      <trkpt lat="60.0156656" lon="17.7525952">
        <ele>29.4575</ele>
        <time>2014-06-15T09:42:00Z</time>
      </trkpt>
      <trkpt lat="60.0156738" lon="17.7525418">
        <ele>29.4575</ele>
        <time>2014-06-15T09:42:01Z</time>
      </trkpt>
      <trkpt lat="60.015685" lon="17.7524991">
        <ele>29.4575</ele>
        <time>2014-06-15T09:42:02Z</time>
      </trkpt>
      <trkpt lat="60.0156904" lon="17.7524599">
        <ele>28.9769</ele>
        <time>2014-06-15T09:42:03Z</time>
      </trkpt>
      <trkpt lat="60.0156986" lon="17.7524085">
        <ele>28.0155</ele>
        <time>2014-06-15T09:42:04Z</time>
      </trkpt>
      <trkpt lat="60.0157092" lon="17.7523527">
        <ele>28.4962</ele>
        <time>2014-06-15T09:42:05Z</time>
      </trkpt>
      <trkpt lat="60.015712" lon="17.7522869">
        <ele>28.0155</ele>
        <time>2014-06-15T09:42:06Z</time>
      </trkpt>
      <trkpt lat="60.0157158" lon="17.7522238">
        <ele>27.5349</ele>
        <time>2014-06-15T09:42:07Z</time>
      </trkpt>
      <trkpt lat="60.0157159" lon="17.752175">
        <ele>27.5349</ele>
        <time>2014-06-15T09:42:08Z</time>
      </trkpt>
      <trkpt lat="60.0157143" lon="17.752128">
        <ele>28.0155</ele>
        <time>2014-06-15T09:42:09Z</time>
      </trkpt>
      <trkpt lat="60.0157153" lon="17.7520684">
        <ele>28.4962</ele>
        <time>2014-06-15T09:42:10Z</time>
      </trkpt>
      <trkpt lat="60.0157117" lon="17.752">
        <ele>28.0155</ele>
        <time>2014-06-15T09:42:11Z</time>
      </trkpt>
      <trkpt lat="60.0157063" lon="17.7519449">
        <ele>28.4962</ele>
        <time>2014-06-15T09:42:12Z</time>
      </trkpt>
      <trkpt lat="60.0157122" lon="17.7518851">
        <ele>28.4962</ele>
        <time>2014-06-15T09:42:13Z</time>
      </trkpt>
      <trkpt lat="60.0157272" lon="17.7518223">
        <ele>28.4962</ele>
        <time>2014-06-15T09:42:14Z</time>
      </trkpt>
      <trkpt lat="60.0157335" lon="17.7517612">
        <ele>28.0155</ele>
        <time>2014-06-15T09:42:15Z</time>
      </trkpt>
      <trkpt lat="60.0157495" lon="17.7517092">
        <ele>28.4962</ele>
        <time>2014-06-15T09:42:16Z</time>
      </trkpt>
      <trkpt lat="60.015765" lon="17.751652">
        <ele>28.4962</ele>
        <time>2014-06-15T09:42:17Z</time>
      </trkpt>
      <trkpt lat="60.0157888" lon="17.7515881">
        <ele>28.9769</ele>
        <time>2014-06-15T09:42:18Z</time>
      </trkpt>
      <trkpt lat="60.0158117" lon="17.7515325">
        <ele>28.4962</ele>
        <time>2014-06-15T09:42:19Z</time>
      </trkpt>
      <trkpt lat="60.0158319" lon="17.7514736">
        <ele>28.9769</ele>
        <time>2014-06-15T09:42:20Z</time>
      </trkpt>
      <trkpt lat="60.0158552" lon="17.7514239">
        <ele>28.9769</ele>
        <time>2014-06-15T09:42:21Z</time>
      </trkpt>
      <trkpt lat="60.0158653" lon="17.751381">
        <ele>28.0155</ele>
        <time>2014-06-15T09:42:22Z</time>
      </trkpt>
      <trkpt lat="60.0158754" lon="17.7513318">
        <ele>28.4962</ele>
        <time>2014-06-15T09:42:23Z</time>
      </trkpt>
      <trkpt lat="60.0158807" lon="17.7512737">
        <ele>27.0543</ele>
        <time>2014-06-15T09:42:24Z</time>
      </trkpt>
      <trkpt lat="60.0158897" lon="17.751211">
        <ele>26.0929</ele>
        <time>2014-06-15T09:42:25Z</time>
      </trkpt>
      <trkpt lat="60.0158955" lon="17.7511598">
        <ele>25.1317</ele>
        <time>2014-06-15T09:42:26Z</time>
      </trkpt>
      <trkpt lat="60.0158961" lon="17.7511084">
        <ele>23.6896</ele>
        <time>2014-06-15T09:42:27Z</time>
      </trkpt>
      <trkpt lat="60.0159028" lon="17.7510541">
        <ele>23.209</ele>
        <time>2014-06-15T09:42:28Z</time>
      </trkpt>
      <trkpt lat="60.0159096" lon="17.7510093">
        <ele>22.7283</ele>
        <time>2014-06-15T09:42:29Z</time>
      </trkpt>
      <trkpt lat="60.0159054" lon="17.7509565">
        <ele>21.767</ele>
        <time>2014-06-15T09:42:30Z</time>
      </trkpt>
      <trkpt lat="60.0159048" lon="17.7509055">
        <ele>21.2864</ele>
        <time>2014-06-15T09:42:31Z</time>
      </trkpt>
      <trkpt lat="60.0158955" lon="17.7508484">
        <ele>20.8057</ele>
        <time>2014-06-15T09:42:32Z</time>
      </trkpt>
      <trkpt lat="60.0158897" lon="17.7508061">
        <ele>20.325</ele>
        <time>2014-06-15T09:42:33Z</time>
      </trkpt>
      <trkpt lat="60.0158814" lon="17.7507573">
        <ele>19.8444</ele>
        <time>2014-06-15T09:42:34Z</time>
      </trkpt>
      <trkpt lat="60.0158775" lon="17.750694">
        <ele>19.3638</ele>
        <time>2014-06-15T09:42:35Z</time>
      </trkpt>
      <trkpt lat="60.0158763" lon="17.7506436">
        <ele>18.4023</ele>
        <time>2014-06-15T09:42:36Z</time>
      </trkpt>
      <trkpt lat="60.015879" lon="17.7506003">
        <ele>17.9218</ele>
        <time>2014-06-15T09:42:37Z</time>
      </trkpt>
      <trkpt lat="60.015877" lon="17.7505454">
        <ele>17.4412</ele>
        <time>2014-06-15T09:42:38Z</time>
      </trkpt>
      <trkpt lat="60.0158687" lon="17.7505012">
        <ele>17.4412</ele>
        <time>2014-06-15T09:42:39Z</time>
      </trkpt>
      <trkpt lat="60.0158618" lon="17.7504484">
        <ele>16.9604</ele>
        <time>2014-06-15T09:42:40Z</time>
      </trkpt>
      <trkpt lat="60.0158664" lon="17.7503753">
        <ele>17.9218</ele>
        <time>2014-06-15T09:42:41Z</time>
      </trkpt>
      <trkpt lat="60.0158749" lon="17.7503127">
        <ele>18.4023</ele>
        <time>2014-06-15T09:42:42Z</time>
      </trkpt>
      <trkpt lat="60.0158793" lon="17.7502583">
        <ele>17.9218</ele>
        <time>2014-06-15T09:42:43Z</time>
      </trkpt>
      <trkpt lat="60.0158881" lon="17.7501989">
        <ele>18.8831</ele>
        <time>2014-06-15T09:42:44Z</time>
      </trkpt>
      <trkpt lat="60.0159147" lon="17.7501418">
        <ele>18.8831</ele>
        <time>2014-06-15T09:42:45Z</time>
      </trkpt>
      <trkpt lat="60.0159375" lon="17.7500833">
        <ele>19.8444</ele>
        <time>2014-06-15T09:42:46Z</time>
      </trkpt>
      <trkpt lat="60.0159521" lon="17.7500313">
        <ele>19.8444</ele>
        <time>2014-06-15T09:42:47Z</time>
      </trkpt>
      <trkpt lat="60.0159594" lon="17.7499541">
        <ele>21.2864</ele>
        <time>2014-06-15T09:42:48Z</time>
      </trkpt>
      <trkpt lat="60.0159691" lon="17.7498656">
        <ele>21.767</ele>
        <time>2014-06-15T09:42:49Z</time>
      </trkpt>
      <trkpt lat="60.0159795" lon="17.749802">
        <ele>21.767</ele>
        <time>2014-06-15T09:42:50Z</time>
      </trkpt>
      <trkpt lat="60.0159974" lon="17.7497604">
        <ele>22.2476</ele>
        <time>2014-06-15T09:42:51Z</time>
      </trkpt>
      <trkpt lat="60.0160122" lon="17.7497187">
        <ele>22.7283</ele>
        <time>2014-06-15T09:42:52Z</time>
      </trkpt>
      <trkpt lat="60.0160321" lon="17.7496784">
        <ele>22.7283</ele>
        <time>2014-06-15T09:42:53Z</time>
      </trkpt>
      <trkpt lat="60.0160524" lon="17.7496361">
        <ele>23.209</ele>
        <time>2014-06-15T09:42:54Z</time>
      </trkpt>
      <trkpt lat="60.0160789" lon="17.7495881">
        <ele>23.6896</ele>
        <time>2014-06-15T09:42:55Z</time>
      </trkpt>
      <trkpt lat="60.0160971" lon="17.7495435">
        <ele>23.6896</ele>
        <time>2014-06-15T09:42:56Z</time>
      </trkpt>
      <trkpt lat="60.0161057" lon="17.749498">
        <ele>23.6896</ele>
        <time>2014-06-15T09:42:57Z</time>
      </trkpt>
      <trkpt lat="60.0161109" lon="17.7494623">
        <ele>23.6896</ele>
        <time>2014-06-15T09:42:58Z</time>
      </trkpt>
      <trkpt lat="60.0161156" lon="17.7493984">
        <ele>24.1703</ele>
        <time>2014-06-15T09:42:59Z</time>
      </trkpt>
      <trkpt lat="60.016123" lon="17.7493352">
        <ele>24.1703</ele>
        <time>2014-06-15T09:43:00Z</time>
      </trkpt>
      <trkpt lat="60.0161277" lon="17.7492871">
        <ele>24.1703</ele>
        <time>2014-06-15T09:43:01Z</time>
      </trkpt>
      <trkpt lat="60.0161314" lon="17.7492405">
        <ele>24.1703</ele>
        <time>2014-06-15T09:43:02Z</time>
      </trkpt>
      <trkpt lat="60.0161347" lon="17.7491907">
        <ele>24.651</ele>
        <time>2014-06-15T09:43:03Z</time>
      </trkpt>
      <trkpt lat="60.0161307" lon="17.7490986">
        <ele>26.0929</ele>
        <time>2014-06-15T09:43:04Z</time>
      </trkpt>
      <trkpt lat="60.0161298" lon="17.7490313">
        <ele>26.0929</ele>
        <time>2014-06-15T09:43:05Z</time>
      </trkpt>
      <trkpt lat="60.0161323" lon="17.7489603">
        <ele>27.0543</ele>
        <time>2014-06-15T09:43:06Z</time>
      </trkpt>
      <trkpt lat="60.0161402" lon="17.748896">
        <ele>27.5349</ele>
        <time>2014-06-15T09:43:07Z</time>
      </trkpt>
      <trkpt lat="60.0161426" lon="17.7488479">
        <ele>27.5349</ele>
        <time>2014-06-15T09:43:08Z</time>
      </trkpt>
      <trkpt lat="60.0161456" lon="17.7488039">
        <ele>27.5349</ele>
        <time>2014-06-15T09:43:09Z</time>
      </trkpt>
      <trkpt lat="60.0161478" lon="17.7487558">
        <ele>28.0155</ele>
        <time>2014-06-15T09:43:10Z</time>
      </trkpt>
      <trkpt lat="60.0161461" lon="17.7487065">
        <ele>28.0155</ele>
        <time>2014-06-15T09:43:11Z</time>
      </trkpt>
      <trkpt lat="60.016149" lon="17.7486428">
        <ele>28.4962</ele>
        <time>2014-06-15T09:43:12Z</time>
      </trkpt>
      <trkpt lat="60.0161608" lon="17.7485898">
        <ele>28.9769</ele>
        <time>2014-06-15T09:43:13Z</time>
      </trkpt>
      <trkpt lat="60.0161625" lon="17.7485273">
        <ele>29.4575</ele>
        <time>2014-06-15T09:43:14Z</time>
      </trkpt>
      <trkpt lat="60.0161656" lon="17.7484635">
        <ele>29.9381</ele>
        <time>2014-06-15T09:43:15Z</time>
      </trkpt>
      <trkpt lat="60.0161668" lon="17.748408">
        <ele>29.9381</ele>
        <time>2014-06-15T09:43:16Z</time>
      </trkpt>
      <trkpt lat="60.0161639" lon="17.7483576">
        <ele>30.4188</ele>
        <time>2014-06-15T09:43:17Z</time>
      </trkpt>
      <trkpt lat="60.0161654" lon="17.7483086">
        <ele>31.3801</ele>
        <time>2014-06-15T09:43:18Z</time>
      </trkpt>
      <trkpt lat="60.0161664" lon="17.7482567">
        <ele>31.3801</ele>
        <time>2014-06-15T09:43:19Z</time>
      </trkpt>
      <trkpt lat="60.0161748" lon="17.7482069">
        <ele>31.3801</ele>
        <time>2014-06-15T09:43:20Z</time>
      </trkpt>
      <trkpt lat="60.0161801" lon="17.7481496">
        <ele>31.3801</ele>
        <time>2014-06-15T09:43:21Z</time>
      </trkpt>
      <trkpt lat="60.016187" lon="17.7481026">
        <ele>31.8607</ele>
        <time>2014-06-15T09:43:22Z</time>
      </trkpt>
      <trkpt lat="60.0161996" lon="17.7480569">
        <ele>31.8607</ele>
        <time>2014-06-15T09:43:23Z</time>
      </trkpt>
      <trkpt lat="60.0162099" lon="17.7480102">
        <ele>32.3416</ele>
        <time>2014-06-15T09:43:24Z</time>
      </trkpt>
      <trkpt lat="60.0162241" lon="17.7479593">
        <ele>32.3416</ele>
        <time>2014-06-15T09:43:25Z</time>
      </trkpt>
      <trkpt lat="60.0162406" lon="17.7479109">
        <ele>32.3416</ele>
        <time>2014-06-15T09:43:26Z</time>
      </trkpt>
      <trkpt lat="60.0162549" lon="17.7478569">
        <ele>32.8223</ele>
        <time>2014-06-15T09:43:27Z</time>
      </trkpt>
      <trkpt lat="60.0162658" lon="17.7477984">
        <ele>33.3029</ele>
        <time>2014-06-15T09:43:28Z</time>
      </trkpt>
      <trkpt lat="60.0162777" lon="17.7477377">
        <ele>33.7834</ele>
        <time>2014-06-15T09:43:29Z</time>
      </trkpt>
      <trkpt lat="60.0162944" lon="17.7476848">
        <ele>33.7834</ele>
        <time>2014-06-15T09:43:30Z</time>
      </trkpt>
      <trkpt lat="60.0163099" lon="17.747639">
        <ele>33.7834</ele>
        <time>2014-06-15T09:43:31Z</time>
      </trkpt>
      <trkpt lat="60.0163267" lon="17.7475953">
        <ele>34.2642</ele>
        <time>2014-06-15T09:43:32Z</time>
      </trkpt>
      <trkpt lat="60.0163466" lon="17.7475544">
        <ele>34.2642</ele>
        <time>2014-06-15T09:43:33Z</time>
      </trkpt>
      <trkpt lat="60.0163587" lon="17.7475037">
        <ele>34.7449</ele>
        <time>2014-06-15T09:43:34Z</time>
      </trkpt>
      <trkpt lat="60.0163623" lon="17.7474497">
        <ele>34.2642</ele>
        <time>2014-06-15T09:43:35Z</time>
      </trkpt>
      <trkpt lat="60.0163643" lon="17.7473959">
        <ele>34.2642</ele>
        <time>2014-06-15T09:43:36Z</time>
      </trkpt>
      <trkpt lat="60.0163669" lon="17.7473432">
        <ele>33.7834</ele>
        <time>2014-06-15T09:43:37Z</time>
      </trkpt>
      <trkpt lat="60.016372" lon="17.747285">
        <ele>33.7834</ele>
        <time>2014-06-15T09:43:38Z</time>
      </trkpt>
      <trkpt lat="60.0163784" lon="17.7472296">
        <ele>33.3029</ele>
        <time>2014-06-15T09:43:39Z</time>
      </trkpt>
      <trkpt lat="60.0163864" lon="17.7471662">
        <ele>32.8223</ele>
        <time>2014-06-15T09:43:40Z</time>
      </trkpt>
      <trkpt lat="60.0163953" lon="17.7470973">
        <ele>33.3029</ele>
        <time>2014-06-15T09:43:41Z</time>
      </trkpt>
      <trkpt lat="60.0164044" lon="17.7470395">
        <ele>34.2642</ele>
        <time>2014-06-15T09:43:42Z</time>
      </trkpt>
      <trkpt lat="60.016414" lon="17.7469782">
        <ele>34.7449</ele>
        <time>2014-06-15T09:43:43Z</time>
      </trkpt>
      <trkpt lat="60.016427" lon="17.7469269">
        <ele>34.7449</ele>
        <time>2014-06-15T09:43:44Z</time>
      </trkpt>
      <trkpt lat="60.0164364" lon="17.7468793">
        <ele>34.7449</ele>
        <time>2014-06-15T09:43:45Z</time>
      </trkpt>
      <trkpt lat="60.0164471" lon="17.746823">
        <ele>34.7449</ele>
        <time>2014-06-15T09:43:46Z</time>
      </trkpt>
      <trkpt lat="60.0164596" lon="17.7467777">
        <ele>34.7449</ele>
        <time>2014-06-15T09:43:47Z</time>
      </trkpt>
      <trkpt lat="60.0164664" lon="17.7467252">
        <ele>35.2255</ele>
        <time>2014-06-15T09:43:48Z</time>
      </trkpt>
      <trkpt lat="60.0164731" lon="17.7466609">
        <ele>35.7061</ele>
        <time>2014-06-15T09:43:49Z</time>
      </trkpt>
      <trkpt lat="60.01648" lon="17.7466023">
        <ele>36.1868</ele>
        <time>2014-06-15T09:43:50Z</time>
      </trkpt>
      <trkpt lat="60.0164949" lon="17.7465374">
        <ele>35.7061</ele>
        <time>2014-06-15T09:43:51Z</time>
      </trkpt>
      <trkpt lat="60.0165162" lon="17.7464662">
        <ele>35.7061</ele>
        <time>2014-06-15T09:43:52Z</time>
      </trkpt>
      <trkpt lat="60.0165323" lon="17.7464047">
        <ele>35.2255</ele>
        <time>2014-06-15T09:43:53Z</time>
      </trkpt>
      <trkpt lat="60.0165493" lon="17.7463581">
        <ele>35.2255</ele>
        <time>2014-06-15T09:43:54Z</time>
      </trkpt>
      <trkpt lat="60.0165616" lon="17.7463107">
        <ele>35.7061</ele>
        <time>2014-06-15T09:43:55Z</time>
      </trkpt>
      <trkpt lat="60.0165711" lon="17.746249">
        <ele>36.1868</ele>
        <time>2014-06-15T09:43:56Z</time>
      </trkpt>
      <trkpt lat="60.0165771" lon="17.7461935">
        <ele>37.1481</ele>
        <time>2014-06-15T09:43:57Z</time>
      </trkpt>
      <trkpt lat="60.0165828" lon="17.7461537">
        <ele>37.6287</ele>
        <time>2014-06-15T09:43:58Z</time>
      </trkpt>
      <trkpt lat="60.016594" lon="17.7461149">
        <ele>37.6287</ele>
        <time>2014-06-15T09:43:59Z</time>
      </trkpt>
      <trkpt lat="60.016614" lon="17.7460843">
        <ele>37.6287</ele>
        <time>2014-06-15T09:44:00Z</time>
      </trkpt>
      <trkpt lat="60.0166434" lon="17.7460765">
        <ele>37.6287</ele>
        <time>2014-06-15T09:44:01Z</time>
      </trkpt>
      <trkpt lat="60.0166778" lon="17.7460807">
        <ele>38.1094</ele>
        <time>2014-06-15T09:44:02Z</time>
      </trkpt>
      <trkpt lat="60.0167128" lon="17.7460952">
        <ele>38.5901</ele>
        <time>2014-06-15T09:44:03Z</time>
      </trkpt>
      <trkpt lat="60.0167477" lon="17.7461141">
        <ele>39.5513</ele>
        <time>2014-06-15T09:44:04Z</time>
      </trkpt>
      <trkpt lat="60.0167838" lon="17.7461242">
        <ele>40.9934</ele>
        <time>2014-06-15T09:44:05Z</time>
      </trkpt>
      <trkpt lat="60.0168164" lon="17.7461382">
        <ele>42.4354</ele>
        <time>2014-06-15T09:44:06Z</time>
      </trkpt>
      <trkpt lat="60.0168496" lon="17.7461516">
        <ele>44.358</ele>
        <time>2014-06-15T09:44:07Z</time>
      </trkpt>
      <trkpt lat="60.0168771" lon="17.7461619">
        <ele>44.358</ele>
        <time>2014-06-15T09:44:08Z</time>
      </trkpt>
      <trkpt lat="60.016906" lon="17.7461725">
        <ele>44.358</ele>
        <time>2014-06-15T09:44:09Z</time>
      </trkpt>
      <trkpt lat="60.0169337" lon="17.7461786">
        <ele>44.358</ele>
        <time>2014-06-15T09:44:10Z</time>
      </trkpt>
      <trkpt lat="60.0169707" lon="17.7461787">
        <ele>45.7999</ele>
        <time>2014-06-15T09:44:11Z</time>
      </trkpt>
      <trkpt lat="60.0170006" lon="17.7461874">
        <ele>46.2806</ele>
        <time>2014-06-15T09:44:12Z</time>
      </trkpt>
      <trkpt lat="60.0170279" lon="17.7461909">
        <ele>47.2418</ele>
        <time>2014-06-15T09:44:13Z</time>
      </trkpt>
      <trkpt lat="60.0170588" lon="17.7461939">
        <ele>48.2034</ele>
        <time>2014-06-15T09:44:14Z</time>
      </trkpt>
      <trkpt lat="60.0170902" lon="17.7462017">
        <ele>49.1646</ele>
        <time>2014-06-15T09:44:15Z</time>
      </trkpt>
      <trkpt lat="60.0171179" lon="17.7462067">
        <ele>49.6453</ele>
        <time>2014-06-15T09:44:16Z</time>
      </trkpt>
      <trkpt lat="60.0171537" lon="17.7462084">
        <ele>50.126</ele>
        <time>2014-06-15T09:44:17Z</time>
      </trkpt>
      <trkpt lat="60.0171941" lon="17.7462169">
        <ele>51.0872</ele>
        <time>2014-06-15T09:44:18Z</time>
      </trkpt>
      <trkpt lat="60.0172253" lon="17.7462229">
        <ele>51.5679</ele>
        <time>2014-06-15T09:44:19Z</time>
      </trkpt>
      <trkpt lat="60.0172475" lon="17.746226">
        <ele>52.0486</ele>
        <time>2014-06-15T09:44:20Z</time>
      </trkpt>
      <trkpt lat="60.0172724" lon="17.7462343">
        <ele>52.0486</ele>
        <time>2014-06-15T09:44:21Z</time>
      </trkpt>
      <trkpt lat="60.0172972" lon="17.7462376">
        <ele>52.5292</ele>
        <time>2014-06-15T09:44:22Z</time>
      </trkpt>
      <trkpt lat="60.0173227" lon="17.7462397">
        <ele>53.0098</ele>
        <time>2014-06-15T09:44:23Z</time>
      </trkpt>
      <trkpt lat="60.0173497" lon="17.7462594">
        <ele>53.0098</ele>
        <time>2014-06-15T09:44:24Z</time>
      </trkpt>
      <trkpt lat="60.0173632" lon="17.7462848">
        <ele>51.5679</ele>
        <time>2014-06-15T09:44:25Z</time>
      </trkpt>
      <trkpt lat="60.0173735" lon="17.7463085">
        <ele>50.126</ele>
        <time>2014-06-15T09:44:26Z</time>
      </trkpt>
      <trkpt lat="60.0173926" lon="17.7463381">
        <ele>49.6453</ele>
        <time>2014-06-15T09:44:27Z</time>
      </trkpt>
      <trkpt lat="60.0174181" lon="17.7463682">
        <ele>49.1646</ele>
        <time>2014-06-15T09:44:28Z</time>
      </trkpt>
      <trkpt lat="60.0174366" lon="17.7464044">
        <ele>48.2034</ele>
        <time>2014-06-15T09:44:29Z</time>
      </trkpt>
      <trkpt lat="60.0174532" lon="17.7464402">
        <ele>47.7225</ele>
        <time>2014-06-15T09:44:30Z</time>
      </trkpt>
      <trkpt lat="60.0174701" lon="17.7464706">
        <ele>47.2418</ele>
        <time>2014-06-15T09:44:31Z</time>
      </trkpt>
      <trkpt lat="60.0174884" lon="17.7464997">
        <ele>46.7612</ele>
        <time>2014-06-15T09:44:32Z</time>
      </trkpt>
      <trkpt lat="60.0175076" lon="17.7465343">
        <ele>46.2806</ele>
        <time>2014-06-15T09:44:33Z</time>
      </trkpt>
      <trkpt lat="60.0175278" lon="17.7465728">
        <ele>46.7612</ele>
        <time>2014-06-15T09:44:34Z</time>
      </trkpt>
      <trkpt lat="60.0175437" lon="17.7466104">
        <ele>45.7999</ele>
        <time>2014-06-15T09:44:35Z</time>
      </trkpt>
      <trkpt lat="60.0175605" lon="17.7466379">
        <ele>44.8386</ele>
        <time>2014-06-15T09:44:36Z</time>
      </trkpt>
      <trkpt lat="60.0175795" lon="17.7466623">
        <ele>44.358</ele>
        <time>2014-06-15T09:44:37Z</time>
      </trkpt>
      <trkpt lat="60.0175972" lon="17.7466821">
        <ele>43.8773</ele>
        <time>2014-06-15T09:44:38Z</time>
      </trkpt>
      <trkpt lat="60.0176221" lon="17.7466997">
        <ele>43.8773</ele>
        <time>2014-06-15T09:44:39Z</time>
      </trkpt>
      <trkpt lat="60.0176386" lon="17.7467099">
        <ele>42.4354</ele>
        <time>2014-06-15T09:44:40Z</time>
      </trkpt>
      <trkpt lat="60.017659" lon="17.7467189">
        <ele>42.4354</ele>
        <time>2014-06-15T09:44:41Z</time>
      </trkpt>
      <trkpt lat="60.0176805" lon="17.7467158">
        <ele>41.9547</ele>
        <time>2014-06-15T09:44:42Z</time>
      </trkpt>
      <trkpt lat="60.0177008" lon="17.7467147">
        <ele>41.474</ele>
        <time>2014-06-15T09:44:43Z</time>
      </trkpt>
      <trkpt lat="60.0177323" lon="17.7467215">
        <ele>41.9547</ele>
        <time>2014-06-15T09:44:44Z</time>
      </trkpt>
      <trkpt lat="60.017761" lon="17.7467161">
        <ele>41.474</ele>
        <time>2014-06-15T09:44:45Z</time>
      </trkpt>
      <trkpt lat="60.0177937" lon="17.746707">
        <ele>41.9547</ele>
        <time>2014-06-15T09:44:46Z</time>
      </trkpt>
      <trkpt lat="60.0178251" lon="17.7467008">
        <ele>41.9547</ele>
        <time>2014-06-15T09:44:47Z</time>
      </trkpt>
      <trkpt lat="60.0178538" lon="17.7466981">
        <ele>41.9547</ele>
        <time>2014-06-15T09:44:48Z</time>
      </trkpt>
      <trkpt lat="60.017878" lon="17.7466965">
        <ele>41.474</ele>
        <time>2014-06-15T09:44:49Z</time>
      </trkpt>
      <trkpt lat="60.0178997" lon="17.7466924">
        <ele>40.5128</ele>
        <time>2014-06-15T09:44:50Z</time>
      </trkpt>
      <trkpt lat="60.0179244" lon="17.7466877">
        <ele>40.9934</ele>
        <time>2014-06-15T09:44:51Z</time>
      </trkpt>
      <trkpt lat="60.0179451" lon="17.7466907">
        <ele>40.9934</ele>
        <time>2014-06-15T09:44:52Z</time>
      </trkpt>
      <trkpt lat="60.0179687" lon="17.7466981">
        <ele>40.5128</ele>
        <time>2014-06-15T09:44:53Z</time>
      </trkpt>
      <trkpt lat="60.0179961" lon="17.746708">
        <ele>40.5128</ele>
        <time>2014-06-15T09:44:54Z</time>
      </trkpt>
      <trkpt lat="60.0180204" lon="17.7467184">
        <ele>40.9934</ele>
        <time>2014-06-15T09:44:55Z</time>
      </trkpt>
      <trkpt lat="60.0180458" lon="17.7467266">
        <ele>40.9934</ele>
        <time>2014-06-15T09:44:56Z</time>
      </trkpt>
      <trkpt lat="60.0180687" lon="17.7467375">
        <ele>40.5128</ele>
        <time>2014-06-15T09:44:57Z</time>
      </trkpt>
      <trkpt lat="60.0180955" lon="17.7467453">
        <ele>40.5128</ele>
        <time>2014-06-15T09:44:58Z</time>
      </trkpt>
      <trkpt lat="60.0181204" lon="17.7467582">
        <ele>40.9934</ele>
        <time>2014-06-15T09:44:59Z</time>
      </trkpt>
      <trkpt lat="60.0181421" lon="17.7467687">
        <ele>40.9934</ele>
        <time>2014-06-15T09:45:00Z</time>
      </trkpt>
      <trkpt lat="60.0181663" lon="17.7467784">
        <ele>40.9934</ele>
        <time>2014-06-15T09:45:01Z</time>
      </trkpt>
      <trkpt lat="60.0181908" lon="17.7467834">
        <ele>41.9547</ele>
        <time>2014-06-15T09:45:02Z</time>
      </trkpt>
      <trkpt lat="60.0182162" lon="17.7467875">
        <ele>42.4354</ele>
        <time>2014-06-15T09:45:03Z</time>
      </trkpt>
      <trkpt lat="60.0182446" lon="17.7467919">
        <ele>42.916</ele>
        <time>2014-06-15T09:45:04Z</time>
      </trkpt>
      <trkpt lat="60.0182702" lon="17.7468021">
        <ele>42.916</ele>
        <time>2014-06-15T09:45:05Z</time>
      </trkpt>
      <trkpt lat="60.0182955" lon="17.746813">
        <ele>42.4354</ele>
        <time>2014-06-15T09:45:06Z</time>
      </trkpt>
      <trkpt lat="60.0183253" lon="17.7468255">
        <ele>42.916</ele>
        <time>2014-06-15T09:45:07Z</time>
      </trkpt>
      <trkpt lat="60.018352" lon="17.7468358">
        <ele>42.4354</ele>
        <time>2014-06-15T09:45:08Z</time>
      </trkpt>
      <trkpt lat="60.0183768" lon="17.7468472">
        <ele>42.4354</ele>
        <time>2014-06-15T09:45:09Z</time>
      </trkpt>
      <trkpt lat="60.0184042" lon="17.7468528">
        <ele>42.4354</ele>
        <time>2014-06-15T09:45:10Z</time>
      </trkpt>
      <trkpt lat="60.0184332" lon="17.7468633">
        <ele>41.9547</ele>
        <time>2014-06-15T09:45:11Z</time>
      </trkpt>
      <trkpt lat="60.0184619" lon="17.7468777">
        <ele>41.9547</ele>
        <time>2014-06-15T09:45:12Z</time>
      </trkpt>
      <trkpt lat="60.018483" lon="17.7468841">
        <ele>41.474</ele>
        <time>2014-06-15T09:45:13Z</time>
      </trkpt>
      <trkpt lat="60.0185048" lon="17.7468901">
        <ele>41.474</ele>
        <time>2014-06-15T09:45:14Z</time>
      </trkpt>
      <trkpt lat="60.0185286" lon="17.7468959">
        <ele>41.474</ele>
        <time>2014-06-15T09:45:15Z</time>
      </trkpt>
      <trkpt lat="60.0185539" lon="17.7468949">
        <ele>40.9934</ele>
        <time>2014-06-15T09:45:16Z</time>
      </trkpt>
      <trkpt lat="60.0185804" lon="17.7468873">
        <ele>40.5128</ele>
        <time>2014-06-15T09:45:17Z</time>
      </trkpt>
      <trkpt lat="60.0186105" lon="17.7468656">
        <ele>40.5128</ele>
        <time>2014-06-15T09:45:18Z</time>
      </trkpt>
      <trkpt lat="60.0186384" lon="17.7468358">
        <ele>40.0321</ele>
        <time>2014-06-15T09:45:19Z</time>
      </trkpt>
      <trkpt lat="60.018661" lon="17.7468119">
        <ele>40.0321</ele>
        <time>2014-06-15T09:45:20Z</time>
      </trkpt>
      <trkpt lat="60.0186856" lon="17.7467971">
        <ele>40.0321</ele>
        <time>2014-06-15T09:45:21Z</time>
      </trkpt>
      <trkpt lat="60.0187131" lon="17.746787">
        <ele>40.0321</ele>
        <time>2014-06-15T09:45:22Z</time>
      </trkpt>
      <trkpt lat="60.0187393" lon="17.7467796">
        <ele>40.0321</ele>
        <time>2014-06-15T09:45:23Z</time>
      </trkpt>
      <trkpt lat="60.0187632" lon="17.7467733">
        <ele>40.5128</ele>
        <time>2014-06-15T09:45:24Z</time>
      </trkpt>
      <trkpt lat="60.018787" lon="17.7467581">
        <ele>40.0321</ele>
        <time>2014-06-15T09:45:25Z</time>
      </trkpt>
      <trkpt lat="60.0188192" lon="17.7467503">
        <ele>40.0321</ele>
        <time>2014-06-15T09:45:26Z</time>
      </trkpt>
      <trkpt lat="60.0188483" lon="17.7467411">
        <ele>40.5128</ele>
        <time>2014-06-15T09:45:27Z</time>
      </trkpt>
      <trkpt lat="60.0188781" lon="17.746733">
        <ele>40.5128</ele>
        <time>2014-06-15T09:45:28Z</time>
      </trkpt>
      <trkpt lat="60.0189048" lon="17.7467225">
        <ele>40.5128</ele>
        <time>2014-06-15T09:45:29Z</time>
      </trkpt>
      <trkpt lat="60.018934" lon="17.7467131">
        <ele>41.474</ele>
        <time>2014-06-15T09:45:30Z</time>
      </trkpt>
      <trkpt lat="60.0189576" lon="17.7467037">
        <ele>41.474</ele>
        <time>2014-06-15T09:45:31Z</time>
      </trkpt>
      <trkpt lat="60.0189803" lon="17.7467044">
        <ele>42.4354</ele>
        <time>2014-06-15T09:45:32Z</time>
      </trkpt>
      <trkpt lat="60.019" lon="17.7467002">
        <ele>42.4354</ele>
        <time>2014-06-15T09:45:33Z</time>
      </trkpt>
      <trkpt lat="60.0190229" lon="17.7466956">
        <ele>42.916</ele>
        <time>2014-06-15T09:45:34Z</time>
      </trkpt>
      <trkpt lat="60.0190407" lon="17.7467001">
        <ele>42.916</ele>
        <time>2014-06-15T09:45:35Z</time>
      </trkpt>
      <trkpt lat="60.0190591" lon="17.7467048">
        <ele>43.3966</ele>
        <time>2014-06-15T09:45:36Z</time>
      </trkpt>
      <trkpt lat="60.0190785" lon="17.7467096">
        <ele>43.3966</ele>
        <time>2014-06-15T09:45:37Z</time>
      </trkpt>
      <trkpt lat="60.019099" lon="17.7467042">
        <ele>43.3966</ele>
        <time>2014-06-15T09:45:38Z</time>
      </trkpt>
      <trkpt lat="60.0191247" lon="17.7466924">
        <ele>43.8773</ele>
        <time>2014-06-15T09:45:39Z</time>
      </trkpt>
      <trkpt lat="60.019156" lon="17.7466764">
        <ele>43.8773</ele>
        <time>2014-06-15T09:45:40Z</time>
      </trkpt>
      <trkpt lat="60.0191858" lon="17.7466583">
        <ele>43.8773</ele>
        <time>2014-06-15T09:45:41Z</time>
      </trkpt>
      <trkpt lat="60.0192098" lon="17.7466376">
        <ele>44.358</ele>
        <time>2014-06-15T09:45:42Z</time>
      </trkpt>
      <trkpt lat="60.0192346" lon="17.7466359">
        <ele>44.8386</ele>
        <time>2014-06-15T09:45:43Z</time>
      </trkpt>
      <trkpt lat="60.019263" lon="17.7466294">
        <ele>45.3192</ele>
        <time>2014-06-15T09:45:44Z</time>
      </trkpt>
      <trkpt lat="60.0192961" lon="17.7466184">
        <ele>46.2806</ele>
        <time>2014-06-15T09:45:45Z</time>
      </trkpt>
      <trkpt lat="60.0193304" lon="17.7466075">
        <ele>47.2418</ele>
        <time>2014-06-15T09:45:46Z</time>
      </trkpt>
      <trkpt lat="60.0193629" lon="17.7466071">
        <ele>48.684</ele>
        <time>2014-06-15T09:45:47Z</time>
      </trkpt>
      <trkpt lat="60.0193988" lon="17.7466064">
        <ele>49.6453</ele>
        <time>2014-06-15T09:45:48Z</time>
      </trkpt>
      <trkpt lat="60.0194319" lon="17.7466147">
        <ele>50.6066</ele>
        <time>2014-06-15T09:45:49Z</time>
      </trkpt>
      <trkpt lat="60.0194673" lon="17.7466218">
        <ele>51.5679</ele>
        <time>2014-06-15T09:45:50Z</time>
      </trkpt>
      <trkpt lat="60.0194945" lon="17.7466355">
        <ele>51.5679</ele>
        <time>2014-06-15T09:45:51Z</time>
      </trkpt>
      <trkpt lat="60.0195228" lon="17.7466474">
        <ele>51.5679</ele>
        <time>2014-06-15T09:45:52Z</time>
      </trkpt>
      <trkpt lat="60.0195513" lon="17.7466619">
        <ele>52.0486</ele>
        <time>2014-06-15T09:45:53Z</time>
      </trkpt>
      <trkpt lat="60.0195821" lon="17.7466751">
        <ele>53.4905</ele>
        <time>2014-06-15T09:45:54Z</time>
      </trkpt>
      <trkpt lat="60.0196224" lon="17.7466881">
        <ele>53.0098</ele>
        <time>2014-06-15T09:45:56Z</time>
      </trkpt>
      <trkpt lat="60.0196522" lon="17.7466956">
        <ele>53.4905</ele>
        <time>2014-06-15T09:45:57Z</time>
      </trkpt>
      <trkpt lat="60.0196754" lon="17.7467033">
        <ele>54.4518</ele>
        <time>2014-06-15T09:45:58Z</time>
      </trkpt>
      <trkpt lat="60.0197093" lon="17.7467067">
        <ele>54.9324</ele>
        <time>2014-06-15T09:45:59Z</time>
      </trkpt>
      <trkpt lat="60.0197387" lon="17.7467189">
        <ele>55.4131</ele>
        <time>2014-06-15T09:46:00Z</time>
      </trkpt>
      <trkpt lat="60.019774" lon="17.7467234">
        <ele>56.3745</ele>
        <time>2014-06-15T09:46:01Z</time>
      </trkpt>
      <trkpt lat="60.0198141" lon="17.7467297">
        <ele>57.3358</ele>
        <time>2014-06-15T09:46:02Z</time>
      </trkpt>
      <trkpt lat="60.0198442" lon="17.7467423">
        <ele>57.8165</ele>
        <time>2014-06-15T09:46:03Z</time>
      </trkpt>
      <trkpt lat="60.0198638" lon="17.7467516">
        <ele>57.3358</ele>
        <time>2014-06-15T09:46:04Z</time>
      </trkpt>
      <trkpt lat="60.0198853" lon="17.7467645">
        <ele>57.3358</ele>
        <time>2014-06-15T09:46:05Z</time>
      </trkpt>
      <trkpt lat="60.0199134" lon="17.7467713">
        <ele>57.3358</ele>
        <time>2014-06-15T09:46:06Z</time>
      </trkpt>
      <trkpt lat="60.0199457" lon="17.7467712">
        <ele>57.8165</ele>
        <time>2014-06-15T09:46:07Z</time>
      </trkpt>
      <trkpt lat="60.019979" lon="17.7467846">
        <ele>58.2971</ele>
        <time>2014-06-15T09:46:08Z</time>
      </trkpt>
      <trkpt lat="60.0200013" lon="17.746801">
        <ele>57.8165</ele>
        <time>2014-06-15T09:46:09Z</time>
      </trkpt>
      <trkpt lat="60.0200302" lon="17.7468155">
        <ele>58.2971</ele>
        <time>2014-06-15T09:46:10Z</time>
      </trkpt>
      <trkpt lat="60.0200574" lon="17.7468416">
        <ele>58.7777</ele>
        <time>2014-06-15T09:46:11Z</time>
      </trkpt>
      <trkpt lat="60.0200759" lon="17.7468731">
        <ele>57.8165</ele>
        <time>2014-06-15T09:46:12Z</time>
      </trkpt>
      <trkpt lat="60.0200783" lon="17.7469043">
        <ele>55.4131</ele>
        <time>2014-06-15T09:46:13Z</time>
      </trkpt>
      <trkpt lat="60.0200843" lon="17.7469458">
        <ele>53.9712</ele>
        <time>2014-06-15T09:46:14Z</time>
      </trkpt>
      <trkpt lat="60.0200951" lon="17.7469954">
        <ele>54.4518</ele>
        <time>2014-06-15T09:46:15Z</time>
      </trkpt>
      <trkpt lat="60.0201028" lon="17.7470415">
        <ele>53.4905</ele>
        <time>2014-06-15T09:46:16Z</time>
      </trkpt>
      <trkpt lat="60.0201064" lon="17.747096">
        <ele>52.5292</ele>
        <time>2014-06-15T09:46:17Z</time>
      </trkpt>
      <trkpt lat="60.0201216" lon="17.7471482">
        <ele>52.5292</ele>
        <time>2014-06-15T09:46:18Z</time>
      </trkpt>
      <trkpt lat="60.020134" lon="17.7471939">
        <ele>52.5292</ele>
        <time>2014-06-15T09:46:19Z</time>
      </trkpt>
      <trkpt lat="60.0201482" lon="17.7472353">
        <ele>52.5292</ele>
        <time>2014-06-15T09:46:20Z</time>
      </trkpt>
      <trkpt lat="60.0201654" lon="17.7472778">
        <ele>52.5292</ele>
        <time>2014-06-15T09:46:21Z</time>
      </trkpt>
      <trkpt lat="60.020186" lon="17.7473173">
        <ele>52.0486</ele>
        <time>2014-06-15T09:46:22Z</time>
      </trkpt>
      <trkpt lat="60.0202048" lon="17.7473502">
        <ele>51.5679</ele>
        <time>2014-06-15T09:46:23Z</time>
      </trkpt>
      <trkpt lat="60.0202236" lon="17.7473803">
        <ele>51.0872</ele>
        <time>2014-06-15T09:46:24Z</time>
      </trkpt>
      <trkpt lat="60.0202395" lon="17.7474259">
        <ele>51.5679</ele>
        <time>2014-06-15T09:46:25Z</time>
      </trkpt>
      <trkpt lat="60.0202479" lon="17.7474772">
        <ele>51.0872</ele>
        <time>2014-06-15T09:46:26Z</time>
      </trkpt>
      <trkpt lat="60.0202577" lon="17.7475309">
        <ele>51.0872</ele>
        <time>2014-06-15T09:46:27Z</time>
      </trkpt>
      <trkpt lat="60.0202676" lon="17.7475827">
        <ele>51.0872</ele>
        <time>2014-06-15T09:46:28Z</time>
      </trkpt>
      <trkpt lat="60.0202736" lon="17.7476399">
        <ele>51.0872</ele>
        <time>2014-06-15T09:46:29Z</time>
      </trkpt>
      <trkpt lat="60.020277" lon="17.7477005">
        <ele>50.126</ele>
        <time>2014-06-15T09:46:30Z</time>
      </trkpt>
      <trkpt lat="60.020285" lon="17.7477633">
        <ele>50.126</ele>
        <time>2014-06-15T09:46:31Z</time>
      </trkpt>
      <trkpt lat="60.0202931" lon="17.7478036">
        <ele>51.0872</ele>
        <time>2014-06-15T09:46:32Z</time>
      </trkpt>
      <trkpt lat="60.0203033" lon="17.7478553">
        <ele>52.0486</ele>
        <time>2014-06-15T09:46:33Z</time>
      </trkpt>
      <trkpt lat="60.0203132" lon="17.7479181">
        <ele>52.0486</ele>
        <time>2014-06-15T09:46:34Z</time>
      </trkpt>
      <trkpt lat="60.0203266" lon="17.7479797">
        <ele>53.0098</ele>
        <time>2014-06-15T09:46:35Z</time>
      </trkpt>
      <trkpt lat="60.0203333" lon="17.7480473">
        <ele>54.4518</ele>
        <time>2014-06-15T09:46:36Z</time>
      </trkpt>
      <trkpt lat="60.0203319" lon="17.7481122">
        <ele>54.9324</ele>
        <time>2014-06-15T09:46:37Z</time>
      </trkpt>
      <trkpt lat="60.020337" lon="17.7481708">
        <ele>55.4131</ele>
        <time>2014-06-15T09:46:38Z</time>
      </trkpt>
      <trkpt lat="60.0203417" lon="17.7482393">
        <ele>56.3745</ele>
        <time>2014-06-15T09:46:39Z</time>
      </trkpt>
      <trkpt lat="60.0203484" lon="17.7482953">
        <ele>56.3745</ele>
        <time>2014-06-15T09:46:40Z</time>
      </trkpt>
      <trkpt lat="60.020353" lon="17.7483521">
        <ele>56.8551</ele>
        <time>2014-06-15T09:46:41Z</time>
      </trkpt>
      <trkpt lat="60.0203577" lon="17.748404">
        <ele>57.3358</ele>
        <time>2014-06-15T09:46:42Z</time>
      </trkpt>
      <trkpt lat="60.0203589" lon="17.7484511">
        <ele>57.3358</ele>
        <time>2014-06-15T09:46:43Z</time>
      </trkpt>
      <trkpt lat="60.0203696" lon="17.748496">
        <ele>57.8165</ele>
        <time>2014-06-15T09:46:44Z</time>
      </trkpt>
      <trkpt lat="60.0203824" lon="17.7485431">
        <ele>58.2971</ele>
        <time>2014-06-15T09:46:45Z</time>
      </trkpt>
      <trkpt lat="60.020393" lon="17.7485924">
        <ele>58.7777</ele>
        <time>2014-06-15T09:46:46Z</time>
      </trkpt>
      <trkpt lat="60.020409" lon="17.7486364">
        <ele>59.2584</ele>
        <time>2014-06-15T09:46:47Z</time>
      </trkpt>
      <trkpt lat="60.0204224" lon="17.7486764">
        <ele>59.7391</ele>
        <time>2014-06-15T09:46:48Z</time>
      </trkpt>
      <trkpt lat="60.0204396" lon="17.7487132">
        <ele>59.7391</ele>
        <time>2014-06-15T09:46:49Z</time>
      </trkpt>
      <trkpt lat="60.0204555" lon="17.7487588">
        <ele>58.2971</ele>
        <time>2014-06-15T09:46:50Z</time>
      </trkpt>
      <trkpt lat="60.0204775" lon="17.7488216">
        <ele>58.7777</ele>
        <time>2014-06-15T09:46:51Z</time>
      </trkpt>
      <trkpt lat="60.0204951" lon="17.7488692">
        <ele>58.2971</ele>
        <time>2014-06-15T09:46:52Z</time>
      </trkpt>
      <trkpt lat="60.0205142" lon="17.7489048">
        <ele>58.7777</ele>
        <time>2014-06-15T09:46:53Z</time>
      </trkpt>
      <trkpt lat="60.0205357" lon="17.7489302">
        <ele>58.7777</ele>
        <time>2014-06-15T09:46:54Z</time>
      </trkpt>
      <trkpt lat="60.0205634" lon="17.7489545">
        <ele>59.2584</ele>
        <time>2014-06-15T09:46:55Z</time>
      </trkpt>
      <trkpt lat="60.0205954" lon="17.7489721">
        <ele>59.7391</ele>
        <time>2014-06-15T09:46:56Z</time>
      </trkpt>
      <trkpt lat="60.0206272" lon="17.7489867">
        <ele>60.2197</ele>
        <time>2014-06-15T09:46:57Z</time>
      </trkpt>
      <trkpt lat="60.020655" lon="17.7490043">
        <ele>60.2197</ele>
        <time>2014-06-15T09:46:58Z</time>
      </trkpt>
      <trkpt lat="60.0206799" lon="17.7490295">
        <ele>60.7003</ele>
        <time>2014-06-15T09:46:59Z</time>
      </trkpt>
      <trkpt lat="60.0207058" lon="17.7490489">
        <ele>60.7003</ele>
        <time>2014-06-15T09:47:00Z</time>
      </trkpt>
      <trkpt lat="60.0207318" lon="17.749067">
        <ele>61.181</ele>
        <time>2014-06-15T09:47:01Z</time>
      </trkpt>
      <trkpt lat="60.0207501" lon="17.7490946">
        <ele>60.7003</ele>
        <time>2014-06-15T09:47:02Z</time>
      </trkpt>
      <trkpt lat="60.02077" lon="17.7491256">
        <ele>60.7003</ele>
        <time>2014-06-15T09:47:03Z</time>
      </trkpt>
      <trkpt lat="60.0207949" lon="17.7491556">
        <ele>60.7003</ele>
        <time>2014-06-15T09:47:04Z</time>
      </trkpt>
      <trkpt lat="60.0207973" lon="17.7491654">
        <ele>56.3745</ele>
        <time>2014-06-15T09:47:05Z</time>
      </trkpt>
      <trkpt lat="60.0208188" lon="17.7491882">
        <ele>56.3745</ele>
        <time>2014-06-15T09:47:06Z</time>
      </trkpt>
      <trkpt lat="60.020841" lon="17.7492178">
        <ele>56.3745</ele>
        <time>2014-06-15T09:47:07Z</time>
      </trkpt>
      <trkpt lat="60.0208655" lon="17.7492474">
        <ele>55.8938</ele>
        <time>2014-06-15T09:47:08Z</time>
      </trkpt>
      <trkpt lat="60.0208907" lon="17.7492689">
        <ele>55.8938</ele>
        <time>2014-06-15T09:47:09Z</time>
      </trkpt>
      <trkpt lat="60.0209187" lon="17.7492926">
        <ele>55.8938</ele>
        <time>2014-06-15T09:47:10Z</time>
      </trkpt>
      <trkpt lat="60.0209432" lon="17.7493187">
        <ele>55.4131</ele>
        <time>2014-06-15T09:47:11Z</time>
      </trkpt>
      <trkpt lat="60.0209629" lon="17.7493463">
        <ele>55.8938</ele>
        <time>2014-06-15T09:47:12Z</time>
      </trkpt>
      <trkpt lat="60.0209851" lon="17.7493755">
        <ele>56.3745</ele>
        <time>2014-06-15T09:47:13Z</time>
      </trkpt>
      <trkpt lat="60.0210093" lon="17.7494082">
        <ele>55.8938</ele>
        <time>2014-06-15T09:47:14Z</time>
      </trkpt>
      <trkpt lat="60.0210352" lon="17.749444">
        <ele>55.8938</ele>
        <time>2014-06-15T09:47:15Z</time>
      </trkpt>
      <trkpt lat="60.0210607" lon="17.749483">
        <ele>55.8938</ele>
        <time>2014-06-15T09:47:16Z</time>
      </trkpt>
      <trkpt lat="60.0210829" lon="17.7495264">
        <ele>55.8938</ele>
        <time>2014-06-15T09:47:17Z</time>
      </trkpt>
      <trkpt lat="60.0210954" lon="17.7495752">
        <ele>55.4131</ele>
        <time>2014-06-15T09:47:18Z</time>
      </trkpt>
      <trkpt lat="60.0210851" lon="17.749617">
        <ele>51.0872</ele>
        <time>2014-06-15T09:47:19Z</time>
      </trkpt>
      <trkpt lat="60.021086" lon="17.7496547">
        <ele>48.2034</ele>
        <time>2014-06-15T09:47:20Z</time>
      </trkpt>
      <trkpt lat="60.0210942" lon="17.7496938">
        <ele>46.7612</ele>
        <time>2014-06-15T09:47:21Z</time>
      </trkpt>
      <trkpt lat="60.0211096" lon="17.7497389">
        <ele>45.7999</ele>
        <time>2014-06-15T09:47:22Z</time>
      </trkpt>
      <trkpt lat="60.0211336" lon="17.7497791">
        <ele>46.7612</ele>
        <time>2014-06-15T09:47:23Z</time>
      </trkpt>
      <trkpt lat="60.0211441" lon="17.7498259">
        <ele>46.7612</ele>
        <time>2014-06-15T09:47:24Z</time>
      </trkpt>
      <trkpt lat="60.0211526" lon="17.7498834">
        <ele>45.7999</ele>
        <time>2014-06-15T09:47:25Z</time>
      </trkpt>
      <trkpt lat="60.0211597" lon="17.7499384">
        <ele>45.7999</ele>
        <time>2014-06-15T09:47:26Z</time>
      </trkpt>
      <trkpt lat="60.0211699" lon="17.7499845">
        <ele>45.3192</ele>
        <time>2014-06-15T09:47:27Z</time>
      </trkpt>
      <trkpt lat="60.0211808" lon="17.7500315">
        <ele>45.7999</ele>
        <time>2014-06-15T09:47:28Z</time>
      </trkpt>
      <trkpt lat="60.0211916" lon="17.7500828">
        <ele>46.2806</ele>
        <time>2014-06-15T09:47:29Z</time>
      </trkpt>
      <trkpt lat="60.0212021" lon="17.7501289">
        <ele>46.7612</ele>
        <time>2014-06-15T09:47:30Z</time>
      </trkpt>
      <trkpt lat="60.0212206" lon="17.7501722">
        <ele>48.2034</ele>
        <time>2014-06-15T09:47:31Z</time>
      </trkpt>
      <trkpt lat="60.02123" lon="17.7502066">
        <ele>48.684</ele>
        <time>2014-06-15T09:47:32Z</time>
      </trkpt>
      <trkpt lat="60.0212352" lon="17.7502474">
        <ele>49.6453</ele>
        <time>2014-06-15T09:47:33Z</time>
      </trkpt>
      <trkpt lat="60.0212448" lon="17.7503062">
        <ele>50.6066</ele>
        <time>2014-06-15T09:47:34Z</time>
      </trkpt>
      <trkpt lat="60.0212533" lon="17.750365">
        <ele>51.0872</ele>
        <time>2014-06-15T09:47:35Z</time>
      </trkpt>
      <trkpt lat="60.0212565" lon="17.7504307">
        <ele>51.5679</ele>
        <time>2014-06-15T09:47:36Z</time>
      </trkpt>
      <trkpt lat="60.0212527" lon="17.7505053">
        <ele>51.5679</ele>
        <time>2014-06-15T09:47:37Z</time>
      </trkpt>
      <trkpt lat="60.0212512" lon="17.7505811">
        <ele>51.5679</ele>
        <time>2014-06-15T09:47:38Z</time>
      </trkpt>
      <trkpt lat="60.0212537" lon="17.7506443">
        <ele>51.5679</ele>
        <time>2014-06-15T09:47:39Z</time>
      </trkpt>
      <trkpt lat="60.0212482" lon="17.7507012">
        <ele>51.5679</ele>
        <time>2014-06-15T09:47:40Z</time>
      </trkpt>
      <trkpt lat="60.0212414" lon="17.7507525">
        <ele>51.0872</ele>
        <time>2014-06-15T09:47:41Z</time>
      </trkpt>
      <trkpt lat="60.0212372" lon="17.7508049">
        <ele>50.6066</ele>
        <time>2014-06-15T09:47:42Z</time>
      </trkpt>
      <trkpt lat="60.0212304" lon="17.7508697">
        <ele>49.6453</ele>
        <time>2014-06-15T09:47:43Z</time>
      </trkpt>
      <trkpt lat="60.0212133" lon="17.7509233">
        <ele>48.684</ele>
        <time>2014-06-15T09:47:44Z</time>
      </trkpt>
      <trkpt lat="60.0212052" lon="17.7509682">
        <ele>48.684</ele>
        <time>2014-06-15T09:47:45Z</time>
      </trkpt>
      <trkpt lat="60.0211967" lon="17.7510137">
        <ele>48.2034</ele>
        <time>2014-06-15T09:47:46Z</time>
      </trkpt>
      <trkpt lat="60.0211877" lon="17.7510603">
        <ele>48.684</ele>
        <time>2014-06-15T09:47:47Z</time>
      </trkpt>
      <trkpt lat="60.021182" lon="17.7511034">
        <ele>49.1646</ele>
        <time>2014-06-15T09:47:48Z</time>
      </trkpt>
      <trkpt lat="60.0211649" lon="17.7511421">
        <ele>47.2418</ele>
        <time>2014-06-15T09:47:49Z</time>
      </trkpt>
      <trkpt lat="60.0211465" lon="17.7511894">
        <ele>46.2806</ele>
        <time>2014-06-15T09:47:50Z</time>
      </trkpt>
      <trkpt lat="60.0211352" lon="17.7512364">
        <ele>46.2806</ele>
        <time>2014-06-15T09:47:51Z</time>
      </trkpt>
      <trkpt lat="60.0211245" lon="17.7512875">
        <ele>46.2806</ele>
        <time>2014-06-15T09:47:52Z</time>
      </trkpt>
      <trkpt lat="60.0211103" lon="17.75133">
        <ele>44.8386</ele>
        <time>2014-06-15T09:47:53Z</time>
      </trkpt>
      <trkpt lat="60.0210977" lon="17.7513766">
        <ele>44.8386</ele>
        <time>2014-06-15T09:47:54Z</time>
      </trkpt>
      <trkpt lat="60.0210801" lon="17.751428">
        <ele>44.358</ele>
        <time>2014-06-15T09:47:55Z</time>
      </trkpt>
      <trkpt lat="60.0210672" lon="17.7514768">
        <ele>44.358</ele>
        <time>2014-06-15T09:47:56Z</time>
      </trkpt>
      <trkpt lat="60.0210477" lon="17.751518">
        <ele>43.8773</ele>
        <time>2014-06-15T09:47:57Z</time>
      </trkpt>
      <trkpt lat="60.0210259" lon="17.7515618">
        <ele>42.916</ele>
        <time>2014-06-15T09:47:58Z</time>
      </trkpt>
      <trkpt lat="60.0210077" lon="17.7516046">
        <ele>42.4354</ele>
        <time>2014-06-15T09:47:59Z</time>
      </trkpt>
      <trkpt lat="60.0209916" lon="17.7516487">
        <ele>41.474</ele>
        <time>2014-06-15T09:48:00Z</time>
      </trkpt>
      <trkpt lat="60.0209844" lon="17.7516975">
        <ele>41.474</ele>
        <time>2014-06-15T09:48:01Z</time>
      </trkpt>
      <trkpt lat="60.0209783" lon="17.7517503">
        <ele>41.9547</ele>
        <time>2014-06-15T09:48:02Z</time>
      </trkpt>
      <trkpt lat="60.0209664" lon="17.7517958">
        <ele>41.9547</ele>
        <time>2014-06-15T09:48:03Z</time>
      </trkpt>
      <trkpt lat="60.020952" lon="17.7518425">
        <ele>41.474</ele>
        <time>2014-06-15T09:48:04Z</time>
      </trkpt>
      <trkpt lat="60.0209333" lon="17.7518875">
        <ele>41.474</ele>
        <time>2014-06-15T09:48:05Z</time>
      </trkpt>
      <trkpt lat="60.0209172" lon="17.7519284">
        <ele>41.9547</ele>
        <time>2014-06-15T09:48:06Z</time>
      </trkpt>
      <trkpt lat="60.0209053" lon="17.75197">
        <ele>42.4354</ele>
        <time>2014-06-15T09:48:07Z</time>
      </trkpt>
      <trkpt lat="60.0208913" lon="17.7520175">
        <ele>41.9547</ele>
        <time>2014-06-15T09:48:08Z</time>
      </trkpt>
      <trkpt lat="60.0208855" lon="17.7520652">
        <ele>41.9547</ele>
        <time>2014-06-15T09:48:09Z</time>
      </trkpt>
      <trkpt lat="60.0208843" lon="17.7521051">
        <ele>43.3966</ele>
        <time>2014-06-15T09:48:10Z</time>
      </trkpt>
      <trkpt lat="60.020873" lon="17.7521491">
        <ele>43.8773</ele>
        <time>2014-06-15T09:48:11Z</time>
      </trkpt>
      <trkpt lat="60.0208618" lon="17.7521966">
        <ele>44.358</ele>
        <time>2014-06-15T09:48:12Z</time>
      </trkpt>
      <trkpt lat="60.020851" lon="17.7522489">
        <ele>44.8386</ele>
        <time>2014-06-15T09:48:13Z</time>
      </trkpt>
      <trkpt lat="60.0208393" lon="17.752301">
        <ele>44.8386</ele>
        <time>2014-06-15T09:48:14Z</time>
      </trkpt>
      <trkpt lat="60.0208249" lon="17.7523505">
        <ele>45.3192</ele>
        <time>2014-06-15T09:48:15Z</time>
      </trkpt>
      <trkpt lat="60.0208073" lon="17.7524013">
        <ele>45.3192</ele>
        <time>2014-06-15T09:48:16Z</time>
      </trkpt>
      <trkpt lat="60.0207912" lon="17.7524527">
        <ele>44.358</ele>
        <time>2014-06-15T09:48:17Z</time>
      </trkpt>
      <trkpt lat="60.0207771" lon="17.7524996">
        <ele>43.8773</ele>
        <time>2014-06-15T09:48:18Z</time>
      </trkpt>
      <trkpt lat="60.0207615" lon="17.7525453">
        <ele>43.8773</ele>
        <time>2014-06-15T09:48:19Z</time>
      </trkpt>
      <trkpt lat="60.0207456" lon="17.7525946">
        <ele>43.8773</ele>
        <time>2014-06-15T09:48:20Z</time>
      </trkpt>
      <trkpt lat="60.0207328" lon="17.7526439">
        <ele>44.358</ele>
        <time>2014-06-15T09:48:21Z</time>
      </trkpt>
      <trkpt lat="60.0207163" lon="17.7526927">
        <ele>44.358</ele>
        <time>2014-06-15T09:48:22Z</time>
      </trkpt>
      <trkpt lat="60.0206985" lon="17.7527387">
        <ele>43.8773</ele>
        <time>2014-06-15T09:48:23Z</time>
      </trkpt>
      <trkpt lat="60.0206825" lon="17.7527873">
        <ele>44.358</ele>
        <time>2014-06-15T09:48:24Z</time>
      </trkpt>
      <trkpt lat="60.0206717" lon="17.7528317">
        <ele>44.358</ele>
        <time>2014-06-15T09:48:25Z</time>
      </trkpt>
      <trkpt lat="60.0206636" lon="17.752877">
        <ele>44.358</ele>
        <time>2014-06-15T09:48:26Z</time>
      </trkpt>
      <trkpt lat="60.0206515" lon="17.7529252">
        <ele>44.358</ele>
        <time>2014-06-15T09:48:27Z</time>
      </trkpt>
      <trkpt lat="60.0206399" lon="17.7529784">
        <ele>44.8386</ele>
        <time>2014-06-15T09:48:28Z</time>
      </trkpt>
      <trkpt lat="60.0206323" lon="17.7530259">
        <ele>45.7999</ele>
        <time>2014-06-15T09:48:29Z</time>
      </trkpt>
      <trkpt lat="60.0206246" lon="17.7530717">
        <ele>45.7999</ele>
        <time>2014-06-15T09:48:30Z</time>
      </trkpt>
      <trkpt lat="60.0206194" lon="17.753113">
        <ele>46.2806</ele>
        <time>2014-06-15T09:48:31Z</time>
      </trkpt>
      <trkpt lat="60.0206127" lon="17.7531576">
        <ele>46.2806</ele>
        <time>2014-06-15T09:48:32Z</time>
      </trkpt>
      <trkpt lat="60.0206073" lon="17.7532042">
        <ele>46.7612</ele>
        <time>2014-06-15T09:48:33Z</time>
      </trkpt>
      <trkpt lat="60.0205922" lon="17.7532549">
        <ele>46.7612</ele>
        <time>2014-06-15T09:48:34Z</time>
      </trkpt>
      <trkpt lat="60.0205726" lon="17.7533036">
        <ele>46.2806</ele>
        <time>2014-06-15T09:48:35Z</time>
      </trkpt>
      <trkpt lat="60.020559" lon="17.7533473">
        <ele>46.7612</ele>
        <time>2014-06-15T09:48:36Z</time>
      </trkpt>
      <trkpt lat="60.0205504" lon="17.7533915">
        <ele>46.2806</ele>
        <time>2014-06-15T09:48:37Z</time>
      </trkpt>
      <trkpt lat="60.0205433" lon="17.7534401">
        <ele>46.7612</ele>
        <time>2014-06-15T09:48:38Z</time>
      </trkpt>
      <trkpt lat="60.0205312" lon="17.7534911">
        <ele>47.2418</ele>
        <time>2014-06-15T09:48:39Z</time>
      </trkpt>
      <trkpt lat="60.0205152" lon="17.7535399">
        <ele>48.2034</ele>
        <time>2014-06-15T09:48:40Z</time>
      </trkpt>
      <trkpt lat="60.020497" lon="17.7535926">
        <ele>48.684</ele>
        <time>2014-06-15T09:48:41Z</time>
      </trkpt>
      <trkpt lat="60.0204794" lon="17.7536498">
        <ele>48.2034</ele>
        <time>2014-06-15T09:48:42Z</time>
      </trkpt>
      <trkpt lat="60.0204591" lon="17.7536988">
        <ele>46.7612</ele>
        <time>2014-06-15T09:48:43Z</time>
      </trkpt>
      <trkpt lat="60.0204451" lon="17.7537451">
        <ele>46.7612</ele>
        <time>2014-06-15T09:48:44Z</time>
      </trkpt>
      <trkpt lat="60.020434" lon="17.753798">
        <ele>47.2418</ele>
        <time>2014-06-15T09:48:45Z</time>
      </trkpt>
      <trkpt lat="60.0204317" lon="17.7538565">
        <ele>47.2418</ele>
        <time>2014-06-15T09:48:46Z</time>
      </trkpt>
      <trkpt lat="60.0204267" lon="17.753913">
        <ele>47.2418</ele>
        <time>2014-06-15T09:48:47Z</time>
      </trkpt>
      <trkpt lat="60.0204137" lon="17.7539631">
        <ele>48.2034</ele>
        <time>2014-06-15T09:48:48Z</time>
      </trkpt>
      <trkpt lat="60.0204021" lon="17.7540148">
        <ele>48.2034</ele>
        <time>2014-06-15T09:48:49Z</time>
      </trkpt>
      <trkpt lat="60.0203932" lon="17.7540653">
        <ele>47.2418</ele>
        <time>2014-06-15T09:48:50Z</time>
      </trkpt>
      <trkpt lat="60.0203836" lon="17.7541088">
        <ele>47.2418</ele>
        <time>2014-06-15T09:48:51Z</time>
      </trkpt>
      <trkpt lat="60.0203741" lon="17.7541559">
        <ele>47.7225</ele>
        <time>2014-06-15T09:48:52Z</time>
      </trkpt>
      <trkpt lat="60.0203666" lon="17.7542132">
        <ele>47.7225</ele>
        <time>2014-06-15T09:48:53Z</time>
      </trkpt>
      <trkpt lat="60.0203563" lon="17.7542679">
        <ele>47.2418</ele>
        <time>2014-06-15T09:48:54Z</time>
      </trkpt>
      <trkpt lat="60.0203396" lon="17.7543182">
        <ele>47.2418</ele>
        <time>2014-06-15T09:48:55Z</time>
      </trkpt>
      <trkpt lat="60.0203256" lon="17.754365">
        <ele>46.7612</ele>
        <time>2014-06-15T09:48:56Z</time>
      </trkpt>
      <trkpt lat="60.0203147" lon="17.7544098">
        <ele>45.3192</ele>
        <time>2014-06-15T09:48:57Z</time>
      </trkpt>
      <trkpt lat="60.0202992" lon="17.7544582">
        <ele>45.3192</ele>
        <time>2014-06-15T09:48:58Z</time>
      </trkpt>
      <trkpt lat="60.0202897" lon="17.754503">
        <ele>46.2806</ele>
        <time>2014-06-15T09:48:59Z</time>
      </trkpt>
      <trkpt lat="60.0202841" lon="17.7545505">
        <ele>45.7999</ele>
        <time>2014-06-15T09:49:00Z</time>
      </trkpt>
      <trkpt lat="60.0202712" lon="17.7545983">
        <ele>45.7999</ele>
        <time>2014-06-15T09:49:01Z</time>
      </trkpt>
      <trkpt lat="60.0202523" lon="17.7546469">
        <ele>44.358</ele>
        <time>2014-06-15T09:49:02Z</time>
      </trkpt>
      <trkpt lat="60.0202412" lon="17.7546886">
        <ele>44.358</ele>
        <time>2014-06-15T09:49:03Z</time>
      </trkpt>
      <trkpt lat="60.0202282" lon="17.7547364">
        <ele>44.358</ele>
        <time>2014-06-15T09:49:04Z</time>
      </trkpt>
      <trkpt lat="60.0202136" lon="17.7547791">
        <ele>43.8773</ele>
        <time>2014-06-15T09:49:05Z</time>
      </trkpt>
      <trkpt lat="60.0202027" lon="17.7548236">
        <ele>43.3966</ele>
        <time>2014-06-15T09:49:06Z</time>
      </trkpt>
      <trkpt lat="60.0201881" lon="17.7548754">
        <ele>43.3966</ele>
        <time>2014-06-15T09:49:07Z</time>
      </trkpt>
      <trkpt lat="60.0201764" lon="17.7549283">
        <ele>43.3966</ele>
        <time>2014-06-15T09:49:08Z</time>
      </trkpt>
      <trkpt lat="60.0201722" lon="17.7549821">
        <ele>44.358</ele>
        <time>2014-06-15T09:49:09Z</time>
      </trkpt>
      <trkpt lat="60.0201643" lon="17.7550391">
        <ele>44.8386</ele>
        <time>2014-06-15T09:49:10Z</time>
      </trkpt>
      <trkpt lat="60.0201589" lon="17.755091">
        <ele>44.8386</ele>
        <time>2014-06-15T09:49:11Z</time>
      </trkpt>
      <trkpt lat="60.0201499" lon="17.7551405">
        <ele>44.8386</ele>
        <time>2014-06-15T09:49:12Z</time>
      </trkpt>
      <trkpt lat="60.020137" lon="17.755189">
        <ele>44.358</ele>
        <time>2014-06-15T09:49:13Z</time>
      </trkpt>
      <trkpt lat="60.0201308" lon="17.7552328">
        <ele>44.358</ele>
        <time>2014-06-15T09:49:14Z</time>
      </trkpt>
      <trkpt lat="60.020124" lon="17.755278">
        <ele>43.8773</ele>
        <time>2014-06-15T09:49:15Z</time>
      </trkpt>
      <trkpt lat="60.0201172" lon="17.7553301">
        <ele>43.8773</ele>
        <time>2014-06-15T09:49:16Z</time>
      </trkpt>
      <trkpt lat="60.0201106" lon="17.7553824">
        <ele>43.8773</ele>
        <time>2014-06-15T09:49:17Z</time>
      </trkpt>
      <trkpt lat="60.0201021" lon="17.7554355">
        <ele>43.8773</ele>
        <time>2014-06-15T09:49:18Z</time>
      </trkpt>
      <trkpt lat="60.0201035" lon="17.755495">
        <ele>44.358</ele>
        <time>2014-06-15T09:49:19Z</time>
      </trkpt>
      <trkpt lat="60.0201008" lon="17.7555478">
        <ele>44.8386</ele>
        <time>2014-06-15T09:49:20Z</time>
      </trkpt>
      <trkpt lat="60.0200941" lon="17.755601">
        <ele>45.3192</ele>
        <time>2014-06-15T09:49:21Z</time>
      </trkpt>
      <trkpt lat="60.0200909" lon="17.7556549">
        <ele>46.2806</ele>
        <time>2014-06-15T09:49:22Z</time>
      </trkpt>
      <trkpt lat="60.0200894" lon="17.755707">
        <ele>47.2418</ele>
        <time>2014-06-15T09:49:23Z</time>
      </trkpt>
      <trkpt lat="60.020091" lon="17.7557642">
        <ele>48.684</ele>
        <time>2014-06-15T09:49:24Z</time>
      </trkpt>
      <trkpt lat="60.020091" lon="17.7558203">
        <ele>49.1646</ele>
        <time>2014-06-15T09:49:25Z</time>
      </trkpt>
      <trkpt lat="60.0200919" lon="17.7558768">
        <ele>50.6066</ele>
        <time>2014-06-15T09:49:26Z</time>
      </trkpt>
      <trkpt lat="60.0200867" lon="17.7559307">
        <ele>51.5679</ele>
        <time>2014-06-15T09:49:27Z</time>
      </trkpt>
      <trkpt lat="60.0200842" lon="17.7559788">
        <ele>52.5292</ele>
        <time>2014-06-15T09:49:28Z</time>
      </trkpt>
      <trkpt lat="60.0200867" lon="17.7560337">
        <ele>53.9712</ele>
        <time>2014-06-15T09:49:29Z</time>
      </trkpt>
      <trkpt lat="60.0200798" lon="17.7560953">
        <ele>55.4131</ele>
        <time>2014-06-15T09:49:30Z</time>
      </trkpt>
      <trkpt lat="60.0200687" lon="17.7561529">
        <ele>55.8938</ele>
        <time>2014-06-15T09:49:31Z</time>
      </trkpt>
      <trkpt lat="60.0200588" lon="17.7562135">
        <ele>56.3745</ele>
        <time>2014-06-15T09:49:32Z</time>
      </trkpt>
      <trkpt lat="60.020049" lon="17.7562694">
        <ele>57.3358</ele>
        <time>2014-06-15T09:49:33Z</time>
      </trkpt>
      <trkpt lat="60.0200397" lon="17.7563234">
        <ele>57.8165</ele>
        <time>2014-06-15T09:49:34Z</time>
      </trkpt>
      <trkpt lat="60.0200379" lon="17.7563807">
        <ele>58.7777</ele>
        <time>2014-06-15T09:49:35Z</time>
      </trkpt>
      <trkpt lat="60.0200403" lon="17.7564414">
        <ele>58.7777</ele>
        <time>2014-06-15T09:49:36Z</time>
      </trkpt>
      <trkpt lat="60.0200402" lon="17.7564998">
        <ele>58.2971</ele>
        <time>2014-06-15T09:49:37Z</time>
      </trkpt>
      <trkpt lat="60.0200381" lon="17.7565479">
        <ele>57.3358</ele>
        <time>2014-06-15T09:49:38Z</time>
      </trkpt>
      <trkpt lat="60.0200329" lon="17.7566016">
        <ele>57.8165</ele>
        <time>2014-06-15T09:49:39Z</time>
      </trkpt>
      <trkpt lat="60.0200262" lon="17.7566531">
        <ele>57.8165</ele>
        <time>2014-06-15T09:49:40Z</time>
      </trkpt>
      <trkpt lat="60.0200242" lon="17.756707">
        <ele>58.2971</ele>
        <time>2014-06-15T09:49:41Z</time>
      </trkpt>
      <trkpt lat="60.02002" lon="17.7567634">
        <ele>58.2971</ele>
        <time>2014-06-15T09:49:42Z</time>
      </trkpt>
      <trkpt lat="60.0200094" lon="17.7568206">
        <ele>58.2971</ele>
        <time>2014-06-15T09:49:43Z</time>
      </trkpt>
      <trkpt lat="60.0199904" lon="17.7568812">
        <ele>58.7777</ele>
        <time>2014-06-15T09:49:44Z</time>
      </trkpt>
      <trkpt lat="60.0199672" lon="17.7569348">
        <ele>59.2584</ele>
        <time>2014-06-15T09:49:45Z</time>
      </trkpt>
      <trkpt lat="60.0199443" lon="17.7569759">
        <ele>58.7777</ele>
        <time>2014-06-15T09:49:46Z</time>
      </trkpt>
      <trkpt lat="60.0199174" lon="17.7570122">
        <ele>56.3745</ele>
        <time>2014-06-15T09:49:47Z</time>
      </trkpt>
      <trkpt lat="60.0198956" lon="17.7570558">
        <ele>55.8938</ele>
        <time>2014-06-15T09:49:48Z</time>
      </trkpt>
      <trkpt lat="60.0198754" lon="17.7570985">
        <ele>55.8938</ele>
        <time>2014-06-15T09:49:49Z</time>
      </trkpt>
      <trkpt lat="60.0198677" lon="17.7571343">
        <ele>55.8938</ele>
        <time>2014-06-15T09:49:50Z</time>
      </trkpt>
      <trkpt lat="60.019852" lon="17.7571672">
        <ele>55.8938</ele>
        <time>2014-06-15T09:49:51Z</time>
      </trkpt>
      <trkpt lat="60.0198242" lon="17.7572029">
        <ele>54.9324</ele>
        <time>2014-06-15T09:49:52Z</time>
      </trkpt>
      <trkpt lat="60.0198085" lon="17.7572509">
        <ele>55.8938</ele>
        <time>2014-06-15T09:49:53Z</time>
      </trkpt>
      <trkpt lat="60.0197927" lon="17.7573018">
        <ele>56.8551</ele>
        <time>2014-06-15T09:49:54Z</time>
      </trkpt>
      <trkpt lat="60.0197755" lon="17.7573407">
        <ele>56.3745</ele>
        <time>2014-06-15T09:49:55Z</time>
      </trkpt>
      <trkpt lat="60.0197607" lon="17.7573804">
        <ele>56.3745</ele>
        <time>2014-06-15T09:49:56Z</time>
      </trkpt>
      <trkpt lat="60.0197423" lon="17.7574189">
        <ele>55.8938</ele>
        <time>2014-06-15T09:49:57Z</time>
      </trkpt>
      <trkpt lat="60.0197283" lon="17.7574581">
        <ele>55.8938</ele>
        <time>2014-06-15T09:49:58Z</time>
      </trkpt>
      <trkpt lat="60.0197212" lon="17.7574992">
        <ele>55.4131</ele>
        <time>2014-06-15T09:49:59Z</time>
      </trkpt>
      <trkpt lat="60.0197175" lon="17.7575359">
        <ele>55.8938</ele>
        <time>2014-06-15T09:50:00Z</time>
      </trkpt>
      <trkpt lat="60.0197134" lon="17.7575821">
        <ele>55.8938</ele>
        <time>2014-06-15T09:50:01Z</time>
      </trkpt>
      <trkpt lat="60.0197158" lon="17.7576331">
        <ele>55.8938</ele>
        <time>2014-06-15T09:50:02Z</time>
      </trkpt>
      <trkpt lat="60.0197195" lon="17.7576877">
        <ele>56.3745</ele>
        <time>2014-06-15T09:50:03Z</time>
      </trkpt>
      <trkpt lat="60.019722" lon="17.7577425">
        <ele>56.8551</ele>
        <time>2014-06-15T09:50:04Z</time>
      </trkpt>
      <trkpt lat="60.0197205" lon="17.7577942">
        <ele>56.8551</ele>
        <time>2014-06-15T09:50:05Z</time>
      </trkpt>
      <trkpt lat="60.01972" lon="17.7578443">
        <ele>57.3358</ele>
        <time>2014-06-15T09:50:06Z</time>
      </trkpt>
      <trkpt lat="60.0197178" lon="17.7579021">
        <ele>57.8165</ele>
        <time>2014-06-15T09:50:07Z</time>
      </trkpt>
      <trkpt lat="60.0197146" lon="17.7579634">
        <ele>58.2971</ele>
        <time>2014-06-15T09:50:08Z</time>
      </trkpt>
      <trkpt lat="60.0197163" lon="17.7580197">
        <ele>58.7777</ele>
        <time>2014-06-15T09:50:09Z</time>
      </trkpt>
      <trkpt lat="60.0197189" lon="17.7580752">
        <ele>58.7777</ele>
        <time>2014-06-15T09:50:10Z</time>
      </trkpt>
      <trkpt lat="60.0197191" lon="17.7581375">
        <ele>58.7777</ele>
        <time>2014-06-15T09:50:11Z</time>
      </trkpt>
      <trkpt lat="60.0197216" lon="17.7582012">
        <ele>59.2584</ele>
        <time>2014-06-15T09:50:12Z</time>
      </trkpt>
      <trkpt lat="60.0197258" lon="17.7582503">
        <ele>59.7391</ele>
        <time>2014-06-15T09:50:13Z</time>
      </trkpt>
      <trkpt lat="60.0197266" lon="17.7582982">
        <ele>59.7391</ele>
        <time>2014-06-15T09:50:14Z</time>
      </trkpt>
      <trkpt lat="60.019722" lon="17.7583369">
        <ele>60.2197</ele>
        <time>2014-06-15T09:50:15Z</time>
      </trkpt>
      <trkpt lat="60.0197122" lon="17.7583827">
        <ele>60.7003</ele>
        <time>2014-06-15T09:50:16Z</time>
      </trkpt>
      <trkpt lat="60.0196921" lon="17.7584466">
        <ele>61.181</ele>
        <time>2014-06-15T09:50:17Z</time>
      </trkpt>
      <trkpt lat="60.019674" lon="17.7585132">
        <ele>62.6229</ele>
        <time>2014-06-15T09:50:18Z</time>
      </trkpt>
      <trkpt lat="60.0196552" lon="17.7585692">
        <ele>61.6617</ele>
        <time>2014-06-15T09:50:19Z</time>
      </trkpt>
      <trkpt lat="60.0196449" lon="17.7586228">
        <ele>61.181</ele>
        <time>2014-06-15T09:50:20Z</time>
      </trkpt>
      <trkpt lat="60.0196429" lon="17.7586738">
        <ele>62.6229</ele>
        <time>2014-06-15T09:50:21Z</time>
      </trkpt>
      <trkpt lat="60.0196397" lon="17.7587241">
        <ele>63.1036</ele>
        <time>2014-06-15T09:50:22Z</time>
      </trkpt>
      <trkpt lat="60.0196381" lon="17.7587781">
        <ele>63.1036</ele>
        <time>2014-06-15T09:50:23Z</time>
      </trkpt>
      <trkpt lat="60.0196357" lon="17.7588268">
        <ele>62.6229</ele>
        <time>2014-06-15T09:50:24Z</time>
      </trkpt>
      <trkpt lat="60.0196354" lon="17.7588775">
        <ele>62.6229</ele>
        <time>2014-06-15T09:50:25Z</time>
      </trkpt>
      <trkpt lat="60.0196383" lon="17.758934">
        <ele>62.6229</ele>
        <time>2014-06-15T09:50:26Z</time>
      </trkpt>
      <trkpt lat="60.0196377" lon="17.7589875">
        <ele>62.6229</ele>
        <time>2014-06-15T09:50:27Z</time>
      </trkpt>
      <trkpt lat="60.0196407" lon="17.7590382">
        <ele>62.6229</ele>
        <time>2014-06-15T09:50:28Z</time>
      </trkpt>
      <trkpt lat="60.019643" lon="17.7590889">
        <ele>62.6229</ele>
        <time>2014-06-15T09:50:29Z</time>
      </trkpt>
      <trkpt lat="60.0196616" lon="17.7591478">
        <ele>65.0264</ele>
        <time>2014-06-15T09:50:30Z</time>
      </trkpt>
      <trkpt lat="60.0196685" lon="17.7592022">
        <ele>65.5071</ele>
        <time>2014-06-15T09:50:31Z</time>
      </trkpt>
      <trkpt lat="60.0196688" lon="17.7592547">
        <ele>65.5071</ele>
        <time>2014-06-15T09:50:32Z</time>
      </trkpt>
      <trkpt lat="60.019673" lon="17.7593127">
        <ele>65.0264</ele>
        <time>2014-06-15T09:50:33Z</time>
      </trkpt>
      <trkpt lat="60.0196812" lon="17.7593728">
        <ele>65.0264</ele>
        <time>2014-06-15T09:50:34Z</time>
      </trkpt>
      <trkpt lat="60.0196849" lon="17.759426">
        <ele>65.0264</ele>
        <time>2014-06-15T09:50:35Z</time>
      </trkpt>
      <trkpt lat="60.0196898" lon="17.7594749">
        <ele>65.0264</ele>
        <time>2014-06-15T09:50:36Z</time>
      </trkpt>
      <trkpt lat="60.0196895" lon="17.7595259">
        <ele>65.0264</ele>
        <time>2014-06-15T09:50:37Z</time>
      </trkpt>
      <trkpt lat="60.0196891" lon="17.7595764">
        <ele>65.5071</ele>
        <time>2014-06-15T09:50:38Z</time>
      </trkpt>
      <trkpt lat="60.0196879" lon="17.7596281">
        <ele>65.9877</ele>
        <time>2014-06-15T09:50:39Z</time>
      </trkpt>
      <trkpt lat="60.0196852" lon="17.7596804">
        <ele>65.9877</ele>
        <time>2014-06-15T09:50:40Z</time>
      </trkpt>
      <trkpt lat="60.0196838" lon="17.7597297">
        <ele>65.5071</ele>
        <time>2014-06-15T09:50:41Z</time>
      </trkpt>
      <trkpt lat="60.0196813" lon="17.759782">
        <ele>65.5071</ele>
        <time>2014-06-15T09:50:42Z</time>
      </trkpt>
      <trkpt lat="60.019677" lon="17.7598367">
        <ele>65.0264</ele>
        <time>2014-06-15T09:50:43Z</time>
      </trkpt>
      <trkpt lat="60.0196768" lon="17.7598917">
        <ele>64.5457</ele>
        <time>2014-06-15T09:50:44Z</time>
      </trkpt>
      <trkpt lat="60.0196801" lon="17.7599482">
        <ele>64.5457</ele>
        <time>2014-06-15T09:50:45Z</time>
      </trkpt>
      <trkpt lat="60.0196807" lon="17.7599938">
        <ele>65.0264</ele>
        <time>2014-06-15T09:50:46Z</time>
      </trkpt>
      <trkpt lat="60.0196812" lon="17.7600462">
        <ele>65.0264</ele>
        <time>2014-06-15T09:50:47Z</time>
      </trkpt>
      <trkpt lat="60.0196807" lon="17.7600991">
        <ele>64.5457</ele>
        <time>2014-06-15T09:50:48Z</time>
      </trkpt>
      <trkpt lat="60.0196759" lon="17.7601487">
        <ele>64.5457</ele>
        <time>2014-06-15T09:50:49Z</time>
      </trkpt>
      <trkpt lat="60.0196739" lon="17.7602038">
        <ele>64.5457</ele>
        <time>2014-06-15T09:50:50Z</time>
      </trkpt>
      <trkpt lat="60.0196734" lon="17.760256">
        <ele>64.5457</ele>
        <time>2014-06-15T09:50:51Z</time>
      </trkpt>
      <trkpt lat="60.0196579" lon="17.7603032">
        <ele>64.5457</ele>
        <time>2014-06-15T09:50:52Z</time>
      </trkpt>
      <trkpt lat="60.0196372" lon="17.7603475">
        <ele>64.0651</ele>
        <time>2014-06-15T09:50:53Z</time>
      </trkpt>
      <trkpt lat="60.0196051" lon="17.7603859">
        <ele>60.7003</ele>
        <time>2014-06-15T09:50:54Z</time>
      </trkpt>
      <trkpt lat="60.0195798" lon="17.7604237">
        <ele>59.2584</ele>
        <time>2014-06-15T09:50:55Z</time>
      </trkpt>
      <trkpt lat="60.0195636" lon="17.7604631">
        <ele>58.7777</ele>
        <time>2014-06-15T09:50:56Z</time>
      </trkpt>
      <trkpt lat="60.0195482" lon="17.7605081">
        <ele>58.2971</ele>
        <time>2014-06-15T09:50:57Z</time>
      </trkpt>
      <trkpt lat="60.0195377" lon="17.7605544">
        <ele>58.2971</ele>
        <time>2014-06-15T09:50:58Z</time>
      </trkpt>
      <trkpt lat="60.0195259" lon="17.7606021">
        <ele>57.8165</ele>
        <time>2014-06-15T09:50:59Z</time>
      </trkpt>
      <trkpt lat="60.0195206" lon="17.7606518">
        <ele>57.8165</ele>
        <time>2014-06-15T09:51:00Z</time>
      </trkpt>
      <trkpt lat="60.0195237" lon="17.7607089">
        <ele>57.8165</ele>
        <time>2014-06-15T09:51:01Z</time>
      </trkpt>
      <trkpt lat="60.0195206" lon="17.7607683">
        <ele>58.2971</ele>
        <time>2014-06-15T09:51:02Z</time>
      </trkpt>
      <trkpt lat="60.0195211" lon="17.7608278">
        <ele>58.2971</ele>
        <time>2014-06-15T09:51:03Z</time>
      </trkpt>
      <trkpt lat="60.0195246" lon="17.76089">
        <ele>58.2971</ele>
        <time>2014-06-15T09:51:04Z</time>
      </trkpt>
      <trkpt lat="60.0195257" lon="17.7609518">
        <ele>59.2584</ele>
        <time>2014-06-15T09:51:05Z</time>
      </trkpt>
      <trkpt lat="60.0195206" lon="17.7610087">
        <ele>59.2584</ele>
        <time>2014-06-15T09:51:06Z</time>
      </trkpt>
      <trkpt lat="60.0195116" lon="17.7610605">
        <ele>58.7777</ele>
        <time>2014-06-15T09:51:07Z</time>
      </trkpt>
      <trkpt lat="60.0195004" lon="17.7611137">
        <ele>58.2971</ele>
        <time>2014-06-15T09:51:08Z</time>
      </trkpt>
      <trkpt lat="60.0194926" lon="17.7611673">
        <ele>58.2971</ele>
        <time>2014-06-15T09:51:09Z</time>
      </trkpt>
      <trkpt lat="60.0194869" lon="17.7612176">
        <ele>58.2971</ele>
        <time>2014-06-15T09:51:10Z</time>
      </trkpt>
      <trkpt lat="60.0194776" lon="17.7612734">
        <ele>58.7777</ele>
        <time>2014-06-15T09:51:11Z</time>
      </trkpt>
      <trkpt lat="60.0194712" lon="17.7613273">
        <ele>59.2584</ele>
        <time>2014-06-15T09:51:12Z</time>
      </trkpt>
      <trkpt lat="60.0194645" lon="17.7613837">
        <ele>59.7391</ele>
        <time>2014-06-15T09:51:13Z</time>
      </trkpt>
      <trkpt lat="60.0194538" lon="17.7614355">
        <ele>59.7391</ele>
        <time>2014-06-15T09:51:14Z</time>
      </trkpt>
      <trkpt lat="60.0194455" lon="17.761483">
        <ele>60.2197</ele>
        <time>2014-06-15T09:51:15Z</time>
      </trkpt>
      <trkpt lat="60.0194373" lon="17.7615335">
        <ele>60.2197</ele>
        <time>2014-06-15T09:51:16Z</time>
      </trkpt>
      <trkpt lat="60.0194243" lon="17.7615816">
        <ele>59.7391</ele>
        <time>2014-06-15T09:51:17Z</time>
      </trkpt>
      <trkpt lat="60.0194256" lon="17.7616263">
        <ele>60.7003</ele>
        <time>2014-06-15T09:51:18Z</time>
      </trkpt>
      <trkpt lat="60.0194232" lon="17.7616715">
        <ele>61.181</ele>
        <time>2014-06-15T09:51:19Z</time>
      </trkpt>
      <trkpt lat="60.019418" lon="17.761721">
        <ele>61.6617</ele>
        <time>2014-06-15T09:51:20Z</time>
      </trkpt>
      <trkpt lat="60.0194077" lon="17.7617736">
        <ele>62.1423</ele>
        <time>2014-06-15T09:51:21Z</time>
      </trkpt>
      <trkpt lat="60.0193947" lon="17.7618278">
        <ele>61.6617</ele>
        <time>2014-06-15T09:51:22Z</time>
      </trkpt>
      <trkpt lat="60.0193832" lon="17.7618774">
        <ele>61.6617</ele>
        <time>2014-06-15T09:51:23Z</time>
      </trkpt>
      <trkpt lat="60.0193724" lon="17.7619301">
        <ele>61.6617</ele>
        <time>2014-06-15T09:51:24Z</time>
      </trkpt>
      <trkpt lat="60.0193621" lon="17.76198">
        <ele>61.181</ele>
        <time>2014-06-15T09:51:25Z</time>
      </trkpt>
      <trkpt lat="60.0193574" lon="17.7620323">
        <ele>61.181</ele>
        <time>2014-06-15T09:51:26Z</time>
      </trkpt>
      <trkpt lat="60.0193577" lon="17.76208">
        <ele>61.181</ele>
        <time>2014-06-15T09:51:27Z</time>
      </trkpt>
      <trkpt lat="60.0193622" lon="17.7621251">
        <ele>61.6617</ele>
        <time>2014-06-15T09:51:28Z</time>
      </trkpt>
      <trkpt lat="60.0193611" lon="17.7621774">
        <ele>61.181</ele>
        <time>2014-06-15T09:51:29Z</time>
      </trkpt>
      <trkpt lat="60.0193564" lon="17.7622295">
        <ele>61.181</ele>
        <time>2014-06-15T09:51:30Z</time>
      </trkpt>
      <trkpt lat="60.0193522" lon="17.7622747">
        <ele>61.6617</ele>
        <time>2014-06-15T09:51:31Z</time>
      </trkpt>
      <trkpt lat="60.0193445" lon="17.7623276">
        <ele>61.6617</ele>
        <time>2014-06-15T09:51:32Z</time>
      </trkpt>
      <trkpt lat="60.0193412" lon="17.7623866">
        <ele>61.6617</ele>
        <time>2014-06-15T09:51:33Z</time>
      </trkpt>
      <trkpt lat="60.0193414" lon="17.7624409">
        <ele>61.6617</ele>
        <time>2014-06-15T09:51:34Z</time>
      </trkpt>
      <trkpt lat="60.0193394" lon="17.7624939">
        <ele>61.181</ele>
        <time>2014-06-15T09:51:35Z</time>
      </trkpt>
      <trkpt lat="60.0193398" lon="17.7625455">
        <ele>61.6617</ele>
        <time>2014-06-15T09:51:36Z</time>
      </trkpt>
      <trkpt lat="60.0193433" lon="17.7626021">
        <ele>61.6617</ele>
        <time>2014-06-15T09:51:37Z</time>
      </trkpt>
      <trkpt lat="60.0193476" lon="17.7626611">
        <ele>61.6617</ele>
        <time>2014-06-15T09:51:38Z</time>
      </trkpt>
      <trkpt lat="60.0193567" lon="17.7627205">
        <ele>62.1423</ele>
        <time>2014-06-15T09:51:39Z</time>
      </trkpt>
      <trkpt lat="60.0193673" lon="17.7627802">
        <ele>62.6229</ele>
        <time>2014-06-15T09:51:40Z</time>
      </trkpt>
      <trkpt lat="60.0193796" lon="17.7628341">
        <ele>62.6229</ele>
        <time>2014-06-15T09:51:41Z</time>
      </trkpt>
      <trkpt lat="60.0193938" lon="17.7628832">
        <ele>63.1036</ele>
        <time>2014-06-15T09:51:42Z</time>
      </trkpt>
      <trkpt lat="60.0194026" lon="17.7629299">
        <ele>62.6229</ele>
        <time>2014-06-15T09:51:43Z</time>
      </trkpt>
      <trkpt lat="60.019416" lon="17.7629847">
        <ele>62.1423</ele>
        <time>2014-06-15T09:51:44Z</time>
      </trkpt>
      <trkpt lat="60.019433" lon="17.7630357">
        <ele>62.6229</ele>
        <time>2014-06-15T09:51:45Z</time>
      </trkpt>
      <trkpt lat="60.0194501" lon="17.7630826">
        <ele>63.1036</ele>
        <time>2014-06-15T09:51:46Z</time>
      </trkpt>
      <trkpt lat="60.0194552" lon="17.7631356">
        <ele>63.5844</ele>
        <time>2014-06-15T09:51:47Z</time>
      </trkpt>
      <trkpt lat="60.0194544" lon="17.7631983">
        <ele>63.5844</ele>
        <time>2014-06-15T09:51:48Z</time>
      </trkpt>
      <trkpt lat="60.0194542" lon="17.7632651">
        <ele>63.5844</ele>
        <time>2014-06-15T09:51:49Z</time>
      </trkpt>
      <trkpt lat="60.0194489" lon="17.7633238">
        <ele>63.1036</ele>
        <time>2014-06-15T09:51:50Z</time>
      </trkpt>
      <trkpt lat="60.0194485" lon="17.7633759">
        <ele>63.1036</ele>
        <time>2014-06-15T09:51:51Z</time>
      </trkpt>
      <trkpt lat="60.0194574" lon="17.7634328">
        <ele>63.1036</ele>
        <time>2014-06-15T09:51:52Z</time>
      </trkpt>
      <trkpt lat="60.0194613" lon="17.7634858">
        <ele>63.5844</ele>
        <time>2014-06-15T09:51:53Z</time>
      </trkpt>
      <trkpt lat="60.0194683" lon="17.7635364">
        <ele>63.5844</ele>
        <time>2014-06-15T09:51:54Z</time>
      </trkpt>
      <trkpt lat="60.0194719" lon="17.7635874">
        <ele>63.5844</ele>
        <time>2014-06-15T09:51:55Z</time>
      </trkpt>
      <trkpt lat="60.0194734" lon="17.7636474">
        <ele>64.0651</ele>
        <time>2014-06-15T09:51:56Z</time>
      </trkpt>
      <trkpt lat="60.01948" lon="17.7637056">
        <ele>65.9877</ele>
        <time>2014-06-15T09:51:57Z</time>
      </trkpt>
      <trkpt lat="60.0194793" lon="17.7637643">
        <ele>66.4683</ele>
        <time>2014-06-15T09:51:58Z</time>
      </trkpt>
      <trkpt lat="60.0194788" lon="17.7638308">
        <ele>67.4297</ele>
        <time>2014-06-15T09:51:59Z</time>
      </trkpt>
      <trkpt lat="60.0194744" lon="17.7639028">
        <ele>67.4297</ele>
        <time>2014-06-15T09:52:00Z</time>
      </trkpt>
      <trkpt lat="60.0194745" lon="17.7639721">
        <ele>67.4297</ele>
        <time>2014-06-15T09:52:01Z</time>
      </trkpt>
      <trkpt lat="60.0194815" lon="17.7640449">
        <ele>67.9103</ele>
        <time>2014-06-15T09:52:02Z</time>
      </trkpt>
      <trkpt lat="60.0194881" lon="17.7641054">
        <ele>68.3909</ele>
        <time>2014-06-15T09:52:03Z</time>
      </trkpt>
      <trkpt lat="60.0194929" lon="17.7641468">
        <ele>67.9103</ele>
        <time>2014-06-15T09:52:04Z</time>
      </trkpt>
      <trkpt lat="60.0194946" lon="17.7641906">
        <ele>66.4683</ele>
        <time>2014-06-15T09:52:05Z</time>
      </trkpt>
      <trkpt lat="60.0195025" lon="17.7642451">
        <ele>66.4683</ele>
        <time>2014-06-15T09:52:06Z</time>
      </trkpt>
      <trkpt lat="60.0195056" lon="17.7642903">
        <ele>65.9877</ele>
        <time>2014-06-15T09:52:07Z</time>
      </trkpt>
      <trkpt lat="60.0195077" lon="17.764337">
        <ele>65.5071</ele>
        <time>2014-06-15T09:52:08Z</time>
      </trkpt>
      <trkpt lat="60.0195109" lon="17.764384">
        <ele>65.9877</ele>
        <time>2014-06-15T09:52:09Z</time>
      </trkpt>
      <trkpt lat="60.0195122" lon="17.7644276">
        <ele>65.5071</ele>
        <time>2014-06-15T09:52:10Z</time>
      </trkpt>
      <trkpt lat="60.0195123" lon="17.7644819">
        <ele>64.5457</ele>
        <time>2014-06-15T09:52:11Z</time>
      </trkpt>
      <trkpt lat="60.0195128" lon="17.7645395">
        <ele>63.5844</ele>
        <time>2014-06-15T09:52:12Z</time>
      </trkpt>
      <trkpt lat="60.0195165" lon="17.7645949">
        <ele>62.6229</ele>
        <time>2014-06-15T09:52:13Z</time>
      </trkpt>
      <trkpt lat="60.019517" lon="17.7646442">
        <ele>62.1423</ele>
        <time>2014-06-15T09:52:14Z</time>
      </trkpt>
      <trkpt lat="60.0195189" lon="17.764686">
        <ele>61.181</ele>
        <time>2014-06-15T09:52:15Z</time>
      </trkpt>
      <trkpt lat="60.0195282" lon="17.764727">
        <ele>60.2197</ele>
        <time>2014-06-15T09:52:16Z</time>
      </trkpt>
      <trkpt lat="60.0195424" lon="17.7647727">
        <ele>60.2197</ele>
        <time>2014-06-15T09:52:17Z</time>
      </trkpt>
      <trkpt lat="60.019551" lon="17.7648169">
        <ele>59.2584</ele>
        <time>2014-06-15T09:52:18Z</time>
      </trkpt>
      <trkpt lat="60.0195569" lon="17.7648729">
        <ele>59.2584</ele>
        <time>2014-06-15T09:52:19Z</time>
      </trkpt>
      <trkpt lat="60.0195626" lon="17.7649264">
        <ele>58.2971</ele>
        <time>2014-06-15T09:52:20Z</time>
      </trkpt>
      <trkpt lat="60.0195614" lon="17.7649777">
        <ele>57.3358</ele>
        <time>2014-06-15T09:52:21Z</time>
      </trkpt>
      <trkpt lat="60.0195621" lon="17.7650348">
        <ele>56.8551</ele>
        <time>2014-06-15T09:52:22Z</time>
      </trkpt>
      <trkpt lat="60.0195671" lon="17.7650922">
        <ele>56.8551</ele>
        <time>2014-06-15T09:52:23Z</time>
      </trkpt>
      <trkpt lat="60.0195697" lon="17.7651352">
        <ele>56.3745</ele>
        <time>2014-06-15T09:52:24Z</time>
      </trkpt>
      <trkpt lat="60.0195702" lon="17.7651683">
        <ele>55.8938</ele>
        <time>2014-06-15T09:52:25Z</time>
      </trkpt>
      <trkpt lat="60.0195678" lon="17.7652164">
        <ele>55.4131</ele>
        <time>2014-06-15T09:52:26Z</time>
      </trkpt>
      <trkpt lat="60.019568" lon="17.7652673">
        <ele>54.4518</ele>
        <time>2014-06-15T09:52:27Z</time>
      </trkpt>
      <trkpt lat="60.0195714" lon="17.7653181">
        <ele>53.4905</ele>
        <time>2014-06-15T09:52:28Z</time>
      </trkpt>
      <trkpt lat="60.0195763" lon="17.7653651">
        <ele>53.0098</ele>
        <time>2014-06-15T09:52:29Z</time>
      </trkpt>
      <trkpt lat="60.0195843" lon="17.7654071">
        <ele>52.5292</ele>
        <time>2014-06-15T09:52:30Z</time>
      </trkpt>
      <trkpt lat="60.0195921" lon="17.7654546">
        <ele>52.0486</ele>
        <time>2014-06-15T09:52:31Z</time>
      </trkpt>
      <trkpt lat="60.0196074" lon="17.7654963">
        <ele>52.0486</ele>
        <time>2014-06-15T09:52:32Z</time>
      </trkpt>
      <trkpt lat="60.0196252" lon="17.7655352">
        <ele>52.0486</ele>
        <time>2014-06-15T09:52:33Z</time>
      </trkpt>
      <trkpt lat="60.0196463" lon="17.7655778">
        <ele>51.5679</ele>
        <time>2014-06-15T09:52:34Z</time>
      </trkpt>
      <trkpt lat="60.0196658" lon="17.7656186">
        <ele>50.6066</ele>
        <time>2014-06-15T09:52:35Z</time>
      </trkpt>
      <trkpt lat="60.019681" lon="17.7656661">
        <ele>50.6066</ele>
        <time>2014-06-15T09:52:36Z</time>
      </trkpt>
      <trkpt lat="60.019697" lon="17.7657148">
        <ele>50.6066</ele>
        <time>2014-06-15T09:52:37Z</time>
      </trkpt>
      <trkpt lat="60.0197162" lon="17.765761">
        <ele>50.6066</ele>
        <time>2014-06-15T09:52:38Z</time>
      </trkpt>
      <trkpt lat="60.0197328" lon="17.7658018">
        <ele>50.6066</ele>
        <time>2014-06-15T09:52:39Z</time>
      </trkpt>
      <trkpt lat="60.0197519" lon="17.7658376">
        <ele>50.126</ele>
        <time>2014-06-15T09:52:40Z</time>
      </trkpt>
      <trkpt lat="60.0197749" lon="17.7658747">
        <ele>50.6066</ele>
        <time>2014-06-15T09:52:41Z</time>
      </trkpt>
      <trkpt lat="60.0197994" lon="17.7659145">
        <ele>50.6066</ele>
        <time>2014-06-15T09:52:42Z</time>
      </trkpt>
      <trkpt lat="60.0198237" lon="17.7659529">
        <ele>51.0872</ele>
        <time>2014-06-15T09:52:43Z</time>
      </trkpt>
      <trkpt lat="60.0198506" lon="17.7659872">
        <ele>51.5679</ele>
        <time>2014-06-15T09:52:44Z</time>
      </trkpt>
      <trkpt lat="60.0198704" lon="17.7660153">
        <ele>51.0872</ele>
        <time>2014-06-15T09:52:45Z</time>
      </trkpt>
      <trkpt lat="60.0198916" lon="17.7660394">
        <ele>51.5679</ele>
        <time>2014-06-15T09:52:46Z</time>
      </trkpt>
      <trkpt lat="60.0199131" lon="17.7660666">
        <ele>51.0872</ele>
        <time>2014-06-15T09:52:47Z</time>
      </trkpt>
      <trkpt lat="60.0199287" lon="17.7660852">
        <ele>49.1646</ele>
        <time>2014-06-15T09:52:48Z</time>
      </trkpt>
      <trkpt lat="60.0199438" lon="17.7661028">
        <ele>47.7225</ele>
        <time>2014-06-15T09:52:49Z</time>
      </trkpt>
      <trkpt lat="60.019966" lon="17.7661326">
        <ele>47.7225</ele>
        <time>2014-06-15T09:52:50Z</time>
      </trkpt>
      <trkpt lat="60.0199857" lon="17.7661566">
        <ele>46.7612</ele>
        <time>2014-06-15T09:52:51Z</time>
      </trkpt>
      <trkpt lat="60.0200113" lon="17.7661815">
        <ele>46.7612</ele>
        <time>2014-06-15T09:52:52Z</time>
      </trkpt>
      <trkpt lat="60.020039" lon="17.7662017">
        <ele>46.2806</ele>
        <time>2014-06-15T09:52:53Z</time>
      </trkpt>
      <trkpt lat="60.0200618" lon="17.7662229">
        <ele>45.7999</ele>
        <time>2014-06-15T09:52:54Z</time>
      </trkpt>
      <trkpt lat="60.0200837" lon="17.7662442">
        <ele>45.3192</ele>
        <time>2014-06-15T09:52:55Z</time>
      </trkpt>
      <trkpt lat="60.0201101" lon="17.7662669">
        <ele>45.7999</ele>
        <time>2014-06-15T09:52:56Z</time>
      </trkpt>
      <trkpt lat="60.0201343" lon="17.7662894">
        <ele>45.3192</ele>
        <time>2014-06-15T09:52:57Z</time>
      </trkpt>
      <trkpt lat="60.0201553" lon="17.7663162">
        <ele>45.3192</ele>
        <time>2014-06-15T09:52:58Z</time>
      </trkpt>
      <trkpt lat="60.0201743" lon="17.7663431">
        <ele>45.7999</ele>
        <time>2014-06-15T09:52:59Z</time>
      </trkpt>
      <trkpt lat="60.020198" lon="17.7663675">
        <ele>46.2806</ele>
        <time>2014-06-15T09:53:00Z</time>
      </trkpt>
      <trkpt lat="60.0202209" lon="17.7663865">
        <ele>45.7999</ele>
        <time>2014-06-15T09:53:01Z</time>
      </trkpt>
      <trkpt lat="60.0202483" lon="17.7664053">
        <ele>46.2806</ele>
        <time>2014-06-15T09:53:02Z</time>
      </trkpt>
      <trkpt lat="60.0202762" lon="17.7664276">
        <ele>46.2806</ele>
        <time>2014-06-15T09:53:03Z</time>
      </trkpt>
      <trkpt lat="60.0203029" lon="17.7664455">
        <ele>46.7612</ele>
        <time>2014-06-15T09:53:04Z</time>
      </trkpt>
      <trkpt lat="60.0203272" lon="17.7664633">
        <ele>47.2418</ele>
        <time>2014-06-15T09:53:05Z</time>
      </trkpt>
      <trkpt lat="60.0203525" lon="17.7664851">
        <ele>47.7225</ele>
        <time>2014-06-15T09:53:06Z</time>
      </trkpt>
      <trkpt lat="60.0203764" lon="17.7665104">
        <ele>49.1646</ele>
        <time>2014-06-15T09:53:07Z</time>
      </trkpt>
      <trkpt lat="60.0203989" lon="17.7665251">
        <ele>49.1646</ele>
        <time>2014-06-15T09:53:08Z</time>
      </trkpt>
      <trkpt lat="60.0204173" lon="17.7665369">
        <ele>49.1646</ele>
        <time>2014-06-15T09:53:09Z</time>
      </trkpt>
      <trkpt lat="60.0204354" lon="17.7665525">
        <ele>49.1646</ele>
        <time>2014-06-15T09:53:10Z</time>
      </trkpt>
      <trkpt lat="60.0204653" lon="17.7665623">
        <ele>49.6453</ele>
        <time>2014-06-15T09:53:11Z</time>
      </trkpt>
      <trkpt lat="60.0205002" lon="17.7665699">
        <ele>49.6453</ele>
        <time>2014-06-15T09:53:12Z</time>
      </trkpt>
      <trkpt lat="60.0205322" lon="17.7665746">
        <ele>50.6066</ele>
        <time>2014-06-15T09:53:13Z</time>
      </trkpt>
      <trkpt lat="60.0205608" lon="17.7665769">
        <ele>51.5679</ele>
        <time>2014-06-15T09:53:14Z</time>
      </trkpt>
      <trkpt lat="60.0205934" lon="17.7665763">
        <ele>52.0486</ele>
        <time>2014-06-15T09:53:15Z</time>
      </trkpt>
      <trkpt lat="60.020625" lon="17.7665778">
        <ele>53.0098</ele>
        <time>2014-06-15T09:53:16Z</time>
      </trkpt>
      <trkpt lat="60.0206498" lon="17.7665742">
        <ele>53.0098</ele>
        <time>2014-06-15T09:53:17Z</time>
      </trkpt>
      <trkpt lat="60.0206831" lon="17.7665725">
        <ele>53.4905</ele>
        <time>2014-06-15T09:53:18Z</time>
      </trkpt>
      <trkpt lat="60.0207219" lon="17.7665769">
        <ele>54.9324</ele>
        <time>2014-06-15T09:53:19Z</time>
      </trkpt>
      <trkpt lat="60.0207571" lon="17.766582">
        <ele>55.8938</ele>
        <time>2014-06-15T09:53:20Z</time>
      </trkpt>
      <trkpt lat="60.0207897" lon="17.7665866">
        <ele>56.3745</ele>
        <time>2014-06-15T09:53:21Z</time>
      </trkpt>
      <trkpt lat="60.0208159" lon="17.7665908">
        <ele>57.3358</ele>
        <time>2014-06-15T09:53:22Z</time>
      </trkpt>
      <trkpt lat="60.02084" lon="17.7665944">
        <ele>57.8165</ele>
        <time>2014-06-15T09:53:23Z</time>
      </trkpt>
      <trkpt lat="60.0208722" lon="17.7666016">
        <ele>58.2971</ele>
        <time>2014-06-15T09:53:24Z</time>
      </trkpt>
      <trkpt lat="60.0209016" lon="17.7666074">
        <ele>59.2584</ele>
        <time>2014-06-15T09:53:25Z</time>
      </trkpt>
      <trkpt lat="60.0209348" lon="17.7666063">
        <ele>59.2584</ele>
        <time>2014-06-15T09:53:26Z</time>
      </trkpt>
      <trkpt lat="60.0209724" lon="17.7666077">
        <ele>60.2197</ele>
        <time>2014-06-15T09:53:27Z</time>
      </trkpt>
      <trkpt lat="60.0210045" lon="17.7666223">
        <ele>61.181</ele>
        <time>2014-06-15T09:53:28Z</time>
      </trkpt>
      <trkpt lat="60.0210385" lon="17.7666227">
        <ele>62.1423</ele>
        <time>2014-06-15T09:53:29Z</time>
      </trkpt>
      <trkpt lat="60.0210731" lon="17.7666294">
        <ele>63.5844</ele>
        <time>2014-06-15T09:53:30Z</time>
      </trkpt>
      <trkpt lat="60.0211052" lon="17.7666482">
        <ele>64.0651</ele>
        <time>2014-06-15T09:53:31Z</time>
      </trkpt>
      <trkpt lat="60.021125" lon="17.7666703">
        <ele>63.1036</ele>
        <time>2014-06-15T09:53:32Z</time>
      </trkpt>
      <trkpt lat="60.021146" lon="17.7666933">
        <ele>63.1036</ele>
        <time>2014-06-15T09:53:33Z</time>
      </trkpt>
      <trkpt lat="60.0211692" lon="17.7667175">
        <ele>63.5844</ele>
        <time>2014-06-15T09:53:34Z</time>
      </trkpt>
      <trkpt lat="60.0211942" lon="17.7667424">
        <ele>64.0651</ele>
        <time>2014-06-15T09:53:35Z</time>
      </trkpt>
      <trkpt lat="60.021221" lon="17.7667741">
        <ele>64.5457</ele>
        <time>2014-06-15T09:53:36Z</time>
      </trkpt>
      <trkpt lat="60.021243" lon="17.7668099">
        <ele>64.5457</ele>
        <time>2014-06-15T09:53:37Z</time>
      </trkpt>
      <trkpt lat="60.0212602" lon="17.7668473">
        <ele>64.0651</ele>
        <time>2014-06-15T09:53:38Z</time>
      </trkpt>
      <trkpt lat="60.0212713" lon="17.7668937">
        <ele>63.5844</ele>
        <time>2014-06-15T09:53:39Z</time>
      </trkpt>
      <trkpt lat="60.0212861" lon="17.7669483">
        <ele>64.0651</ele>
        <time>2014-06-15T09:53:40Z</time>
      </trkpt>
      <trkpt lat="60.0213084" lon="17.7669991">
        <ele>65.0264</ele>
        <time>2014-06-15T09:53:41Z</time>
      </trkpt>
      <trkpt lat="60.0213212" lon="17.7670573">
        <ele>65.5071</ele>
        <time>2014-06-15T09:53:42Z</time>
      </trkpt>
      <trkpt lat="60.0213286" lon="17.7671119">
        <ele>65.0264</ele>
        <time>2014-06-15T09:53:43Z</time>
      </trkpt>
      <trkpt lat="60.0213448" lon="17.7671625">
        <ele>65.5071</ele>
        <time>2014-06-15T09:53:44Z</time>
      </trkpt>
      <trkpt lat="60.0213552" lon="17.76722">
        <ele>65.5071</ele>
        <time>2014-06-15T09:53:45Z</time>
      </trkpt>
      <trkpt lat="60.0213685" lon="17.7672735">
        <ele>65.5071</ele>
        <time>2014-06-15T09:53:46Z</time>
      </trkpt>
      <trkpt lat="60.0213827" lon="17.7673222">
        <ele>65.0264</ele>
        <time>2014-06-15T09:53:47Z</time>
      </trkpt>
      <trkpt lat="60.0213963" lon="17.7673709">
        <ele>65.0264</ele>
        <time>2014-06-15T09:53:48Z</time>
      </trkpt>
      <trkpt lat="60.0214042" lon="17.7674175">
        <ele>64.5457</ele>
        <time>2014-06-15T09:53:49Z</time>
      </trkpt>
      <trkpt lat="60.0214175" lon="17.7674595">
        <ele>63.5844</ele>
        <time>2014-06-15T09:53:50Z</time>
      </trkpt>
      <trkpt lat="60.0214353" lon="17.7675004">
        <ele>63.5844</ele>
        <time>2014-06-15T09:53:51Z</time>
      </trkpt>
      <trkpt lat="60.0214552" lon="17.7675455">
        <ele>63.5844</ele>
        <time>2014-06-15T09:53:52Z</time>
      </trkpt>
      <trkpt lat="60.021471" lon="17.7675882">
        <ele>63.5844</ele>
        <time>2014-06-15T09:53:53Z</time>
      </trkpt>
      <trkpt lat="60.0214936" lon="17.767633">
        <ele>64.0651</ele>
        <time>2014-06-15T09:53:54Z</time>
      </trkpt>
      <trkpt lat="60.0215266" lon="17.767675">
        <ele>65.0264</ele>
        <time>2014-06-15T09:53:55Z</time>
      </trkpt>
      <trkpt lat="60.0215555" lon="17.7677141">
        <ele>65.5071</ele>
        <time>2014-06-15T09:53:56Z</time>
      </trkpt>
      <trkpt lat="60.0215858" lon="17.7677552">
        <ele>65.9877</ele>
        <time>2014-06-15T09:53:57Z</time>
      </trkpt>
      <trkpt lat="60.021617" lon="17.7677951">
        <ele>66.949</ele>
        <time>2014-06-15T09:53:58Z</time>
      </trkpt>
      <trkpt lat="60.0216475" lon="17.767832">
        <ele>67.4297</ele>
        <time>2014-06-15T09:53:59Z</time>
      </trkpt>
      <trkpt lat="60.0216734" lon="17.7678662">
        <ele>67.9103</ele>
        <time>2014-06-15T09:54:00Z</time>
      </trkpt>
      <trkpt lat="60.0216968" lon="17.7678924">
        <ele>68.3909</ele>
        <time>2014-06-15T09:54:01Z</time>
      </trkpt>
      <trkpt lat="60.0217062" lon="17.7679153">
        <ele>65.0264</ele>
        <time>2014-06-15T09:54:02Z</time>
      </trkpt>
      <trkpt lat="60.0217321" lon="17.7679639">
        <ele>65.5071</ele>
        <time>2014-06-15T09:54:03Z</time>
      </trkpt>
      <trkpt lat="60.0217491" lon="17.7680132">
        <ele>65.5071</ele>
        <time>2014-06-15T09:54:04Z</time>
      </trkpt>
      <trkpt lat="60.0217637" lon="17.7680603">
        <ele>65.5071</ele>
        <time>2014-06-15T09:54:05Z</time>
      </trkpt>
      <trkpt lat="60.0217802" lon="17.7681029">
        <ele>65.0264</ele>
        <time>2014-06-15T09:54:06Z</time>
      </trkpt>
      <trkpt lat="60.0218027" lon="17.7681438">
        <ele>65.9877</ele>
        <time>2014-06-15T09:54:07Z</time>
      </trkpt>
      <trkpt lat="60.0218205" lon="17.7681819">
        <ele>65.5071</ele>
        <time>2014-06-15T09:54:08Z</time>
      </trkpt>
      <trkpt lat="60.0218351" lon="17.7682299">
        <ele>65.0264</ele>
        <time>2014-06-15T09:54:09Z</time>
      </trkpt>
      <trkpt lat="60.0218537" lon="17.7682723">
        <ele>65.0264</ele>
        <time>2014-06-15T09:54:10Z</time>
      </trkpt>
      <trkpt lat="60.0218665" lon="17.76831">
        <ele>64.5457</ele>
        <time>2014-06-15T09:54:11Z</time>
      </trkpt>
      <trkpt lat="60.0218839" lon="17.768349">
        <ele>64.0651</ele>
        <time>2014-06-15T09:54:12Z</time>
      </trkpt>
      <trkpt lat="60.021911" lon="17.7683851">
        <ele>64.0651</ele>
        <time>2014-06-15T09:54:13Z</time>
      </trkpt>
      <trkpt lat="60.0219395" lon="17.7684292">
        <ele>65.0264</ele>
        <time>2014-06-15T09:54:14Z</time>
      </trkpt>
      <trkpt lat="60.0219607" lon="17.7684738">
        <ele>65.5071</ele>
        <time>2014-06-15T09:54:15Z</time>
      </trkpt>
      <trkpt lat="60.0219792" lon="17.7685094">
        <ele>65.0264</ele>
        <time>2014-06-15T09:54:16Z</time>
      </trkpt>
      <trkpt lat="60.0220011" lon="17.7685514">
        <ele>65.0264</ele>
        <time>2014-06-15T09:54:17Z</time>
      </trkpt>
      <trkpt lat="60.0220201" lon="17.7685938">
        <ele>65.0264</ele>
        <time>2014-06-15T09:54:18Z</time>
      </trkpt>
      <trkpt lat="60.0220355" lon="17.7686227">
        <ele>64.0651</ele>
        <time>2014-06-15T09:54:19Z</time>
      </trkpt>
      <trkpt lat="60.022051" lon="17.7686618">
        <ele>63.5844</ele>
        <time>2014-06-15T09:54:20Z</time>
      </trkpt>
      <trkpt lat="60.0220681" lon="17.7687036">
        <ele>63.1036</ele>
        <time>2014-06-15T09:54:21Z</time>
      </trkpt>
      <trkpt lat="60.0220872" lon="17.7687457">
        <ele>63.1036</ele>
        <time>2014-06-15T09:54:22Z</time>
      </trkpt>
      <trkpt lat="60.0221038" lon="17.7687814">
        <ele>62.1423</ele>
        <time>2014-06-15T09:54:23Z</time>
      </trkpt>
      <trkpt lat="60.0220677" lon="17.7687213">
        <ele>54.9324</ele>
        <time>2014-06-15T09:55:00Z</time>
      </trkpt>
      <trkpt lat="60.0220656" lon="17.7687047">
        <ele>55.4131</ele>
        <time>2014-06-15T09:55:01Z</time>
      </trkpt>
      <trkpt lat="60.0220496" lon="17.7686862">
        <ele>54.9324</ele>
        <time>2014-06-15T09:55:02Z</time>
      </trkpt>
      <trkpt lat="60.0220309" lon="17.7686605">
        <ele>54.4518</ele>
        <time>2014-06-15T09:55:03Z</time>
      </trkpt>
      <trkpt lat="60.0220174" lon="17.7686235">
        <ele>53.9712</ele>
        <time>2014-06-15T09:55:04Z</time>
      </trkpt>
      <trkpt lat="60.0220029" lon="17.7685908">
        <ele>53.4905</ele>
        <time>2014-06-15T09:55:05Z</time>
      </trkpt>
      <trkpt lat="60.0219875" lon="17.7685637">
        <ele>53.0098</ele>
        <time>2014-06-15T09:55:06Z</time>
      </trkpt>
      <trkpt lat="60.0219698" lon="17.7685318">
        <ele>52.0486</ele>
        <time>2014-06-15T09:55:07Z</time>
      </trkpt>
      <trkpt lat="60.021946" lon="17.7684934">
        <ele>50.6066</ele>
        <time>2014-06-15T09:55:08Z</time>
      </trkpt>
      <trkpt lat="60.0219273" lon="17.7684415">
        <ele>49.6453</ele>
        <time>2014-06-15T09:55:09Z</time>
      </trkpt>
      <trkpt lat="60.0219065" lon="17.7683856">
        <ele>49.1646</ele>
        <time>2014-06-15T09:55:10Z</time>
      </trkpt>
      <trkpt lat="60.0218826" lon="17.7683396">
        <ele>48.2034</ele>
        <time>2014-06-15T09:55:11Z</time>
      </trkpt>
      <trkpt lat="60.0218624" lon="17.7682919">
        <ele>47.7225</ele>
        <time>2014-06-15T09:55:12Z</time>
      </trkpt>
      <trkpt lat="60.0218459" lon="17.7682423">
        <ele>46.7612</ele>
        <time>2014-06-15T09:55:13Z</time>
      </trkpt>
      <trkpt lat="60.0218257" lon="17.7681945">
        <ele>46.2806</ele>
        <time>2014-06-15T09:55:14Z</time>
      </trkpt>
      <trkpt lat="60.021808" lon="17.7681637">
        <ele>46.2806</ele>
        <time>2014-06-15T09:55:15Z</time>
      </trkpt>
      <trkpt lat="60.0217898" lon="17.7681265">
        <ele>46.2806</ele>
        <time>2014-06-15T09:55:16Z</time>
      </trkpt>
      <trkpt lat="60.0217734" lon="17.7680806">
        <ele>45.7999</ele>
        <time>2014-06-15T09:55:17Z</time>
      </trkpt>
      <trkpt lat="60.0217507" lon="17.7680422">
        <ele>45.3192</ele>
        <time>2014-06-15T09:55:18Z</time>
      </trkpt>
      <trkpt lat="60.0217283" lon="17.7680073">
        <ele>44.8386</ele>
        <time>2014-06-15T09:55:19Z</time>
      </trkpt>
      <trkpt lat="60.021704" lon="17.7679708">
        <ele>44.358</ele>
        <time>2014-06-15T09:55:20Z</time>
      </trkpt>
      <trkpt lat="60.0216797" lon="17.7679343">
        <ele>43.8773</ele>
        <time>2014-06-15T09:55:21Z</time>
      </trkpt>
      <trkpt lat="60.0216506" lon="17.7678966">
        <ele>43.8773</ele>
        <time>2014-06-15T09:55:22Z</time>
      </trkpt>
      <trkpt lat="60.0216227" lon="17.7678599">
        <ele>43.3966</ele>
        <time>2014-06-15T09:55:23Z</time>
      </trkpt>
      <trkpt lat="60.0216016" lon="17.7678149">
        <ele>42.916</ele>
        <time>2014-06-15T09:55:24Z</time>
      </trkpt>
      <trkpt lat="60.0215717" lon="17.767769">
        <ele>42.916</ele>
        <time>2014-06-15T09:55:25Z</time>
      </trkpt>
      <trkpt lat="60.0215513" lon="17.767733">
        <ele>42.4354</ele>
        <time>2014-06-15T09:55:26Z</time>
      </trkpt>
      <trkpt lat="60.0215383" lon="17.767706">
        <ele>41.474</ele>
        <time>2014-06-15T09:55:27Z</time>
      </trkpt>
      <trkpt lat="60.0215228" lon="17.7676896">
        <ele>40.9934</ele>
        <time>2014-06-15T09:55:28Z</time>
      </trkpt>
      <trkpt lat="60.0215045" lon="17.7676573">
        <ele>40.5128</ele>
        <time>2014-06-15T09:55:29Z</time>
      </trkpt>
      <trkpt lat="60.0214862" lon="17.767623">
        <ele>40.0321</ele>
        <time>2014-06-15T09:55:30Z</time>
      </trkpt>
      <trkpt lat="60.0214694" lon="17.7675812">
        <ele>38.5901</ele>
        <time>2014-06-15T09:55:31Z</time>
      </trkpt>
      <trkpt lat="60.0214518" lon="17.7675366">
        <ele>37.6287</ele>
        <time>2014-06-15T09:55:32Z</time>
      </trkpt>
      <trkpt lat="60.0214381" lon="17.7674877">
        <ele>37.6287</ele>
        <time>2014-06-15T09:55:33Z</time>
      </trkpt>
      <trkpt lat="60.0214283" lon="17.7674253">
        <ele>36.6675</ele>
        <time>2014-06-15T09:55:34Z</time>
      </trkpt>
      <trkpt lat="60.0214166" lon="17.7673712">
        <ele>36.1868</ele>
        <time>2014-06-15T09:55:35Z</time>
      </trkpt>
      <trkpt lat="60.0214026" lon="17.7673261">
        <ele>35.7061</ele>
        <time>2014-06-15T09:55:36Z</time>
      </trkpt>
      <trkpt lat="60.0213804" lon="17.7672743">
        <ele>35.2255</ele>
        <time>2014-06-15T09:55:37Z</time>
      </trkpt>
      <trkpt lat="60.0213569" lon="17.76723">
        <ele>34.7449</ele>
        <time>2014-06-15T09:55:38Z</time>
      </trkpt>
      <trkpt lat="60.021341" lon="17.7672014">
        <ele>33.7834</ele>
        <time>2014-06-15T09:55:39Z</time>
      </trkpt>
      <trkpt lat="60.0213291" lon="17.7671642">
        <ele>33.7834</ele>
        <time>2014-06-15T09:55:40Z</time>
      </trkpt>
      <trkpt lat="60.0213237" lon="17.7671119">
        <ele>32.3416</ele>
        <time>2014-06-15T09:55:41Z</time>
      </trkpt>
      <trkpt lat="60.021314" lon="17.7670648">
        <ele>31.3801</ele>
        <time>2014-06-15T09:55:42Z</time>
      </trkpt>
      <trkpt lat="60.0212975" lon="17.7670098">
        <ele>30.8995</ele>
        <time>2014-06-15T09:55:43Z</time>
      </trkpt>
      <trkpt lat="60.0212798" lon="17.7669559">
        <ele>30.4188</ele>
        <time>2014-06-15T09:55:44Z</time>
      </trkpt>
      <trkpt lat="60.0212581" lon="17.7668999">
        <ele>29.9381</ele>
        <time>2014-06-15T09:55:45Z</time>
      </trkpt>
      <trkpt lat="60.0212371" lon="17.7668492">
        <ele>29.4575</ele>
        <time>2014-06-15T09:55:46Z</time>
      </trkpt>
      <trkpt lat="60.0212177" lon="17.7668082">
        <ele>29.4575</ele>
        <time>2014-06-15T09:55:47Z</time>
      </trkpt>
      <trkpt lat="60.0212004" lon="17.7667783">
        <ele>28.4962</ele>
        <time>2014-06-15T09:55:48Z</time>
      </trkpt>
      <trkpt lat="60.0211768" lon="17.766753">
        <ele>28.9769</ele>
        <time>2014-06-15T09:55:49Z</time>
      </trkpt>
      <trkpt lat="60.0211459" lon="17.7667323">
        <ele>28.4962</ele>
        <time>2014-06-15T09:55:50Z</time>
      </trkpt>
      <trkpt lat="60.0211187" lon="17.7667011">
        <ele>27.5349</ele>
        <time>2014-06-15T09:55:51Z</time>
      </trkpt>
      <trkpt lat="60.021092" lon="17.7666876">
        <ele>27.5349</ele>
        <time>2014-06-15T09:55:52Z</time>
      </trkpt>
      <trkpt lat="60.0210659" lon="17.7666778">
        <ele>27.0543</ele>
        <time>2014-06-15T09:55:53Z</time>
      </trkpt>
      <trkpt lat="60.0210389" lon="17.7666683">
        <ele>27.0543</ele>
        <time>2014-06-15T09:55:54Z</time>
      </trkpt>
      <trkpt lat="60.0210117" lon="17.7666543">
        <ele>27.0543</ele>
        <time>2014-06-15T09:55:55Z</time>
      </trkpt>
      <trkpt lat="60.020985" lon="17.7666497">
        <ele>27.5349</ele>
        <time>2014-06-15T09:55:56Z</time>
      </trkpt>
      <trkpt lat="60.020958" lon="17.7666537">
        <ele>27.0543</ele>
        <time>2014-06-15T09:55:57Z</time>
      </trkpt>
      <trkpt lat="60.0209299" lon="17.7666543">
        <ele>27.0543</ele>
        <time>2014-06-15T09:55:58Z</time>
      </trkpt>
      <trkpt lat="60.0209045" lon="17.7666498">
        <ele>27.5349</ele>
        <time>2014-06-15T09:55:59Z</time>
      </trkpt>
      <trkpt lat="60.0208799" lon="17.7666514">
        <ele>27.5349</ele>
        <time>2014-06-15T09:56:00Z</time>
      </trkpt>
      <trkpt lat="60.0208538" lon="17.7666559">
        <ele>28.0155</ele>
        <time>2014-06-15T09:56:01Z</time>
      </trkpt>
      <trkpt lat="60.020831" lon="17.766638">
        <ele>28.9769</ele>
        <time>2014-06-15T09:56:02Z</time>
      </trkpt>
      <trkpt lat="60.0208073" lon="17.7666187">
        <ele>29.9381</ele>
        <time>2014-06-15T09:56:03Z</time>
      </trkpt>
      <trkpt lat="60.0207743" lon="17.7666217">
        <ele>28.9769</ele>
        <time>2014-06-15T09:56:04Z</time>
      </trkpt>
      <trkpt lat="60.0207379" lon="17.7666213">
        <ele>29.4575</ele>
        <time>2014-06-15T09:56:05Z</time>
      </trkpt>
      <trkpt lat="60.0207048" lon="17.7666161">
        <ele>29.4575</ele>
        <time>2014-06-15T09:56:06Z</time>
      </trkpt>
      <trkpt lat="60.0206696" lon="17.7666125">
        <ele>29.4575</ele>
        <time>2014-06-15T09:56:07Z</time>
      </trkpt>
      <trkpt lat="60.0206395" lon="17.7666022">
        <ele>29.4575</ele>
        <time>2014-06-15T09:56:08Z</time>
      </trkpt>
      <trkpt lat="60.0206093" lon="17.7666031">
        <ele>29.4575</ele>
        <time>2014-06-15T09:56:09Z</time>
      </trkpt>
      <trkpt lat="60.0205799" lon="17.7665965">
        <ele>29.4575</ele>
        <time>2014-06-15T09:56:10Z</time>
      </trkpt>
      <trkpt lat="60.0205528" lon="17.7665815">
        <ele>28.9769</ele>
        <time>2014-06-15T09:56:11Z</time>
      </trkpt>
      <trkpt lat="60.0205281" lon="17.7665674">
        <ele>28.4962</ele>
        <time>2014-06-15T09:56:12Z</time>
      </trkpt>
      <trkpt lat="60.0204976" lon="17.7665549">
        <ele>28.9769</ele>
        <time>2014-06-15T09:56:13Z</time>
      </trkpt>
      <trkpt lat="60.0204685" lon="17.7665415">
        <ele>28.9769</ele>
        <time>2014-06-15T09:56:14Z</time>
      </trkpt>
      <trkpt lat="60.0204441" lon="17.7665297">
        <ele>28.9769</ele>
        <time>2014-06-15T09:56:15Z</time>
      </trkpt>
      <trkpt lat="60.0204178" lon="17.7665044">
        <ele>28.9769</ele>
        <time>2014-06-15T09:56:16Z</time>
      </trkpt>
      <trkpt lat="60.0203954" lon="17.766471">
        <ele>28.0155</ele>
        <time>2014-06-15T09:56:17Z</time>
      </trkpt>
      <trkpt lat="60.0203689" lon="17.7664493">
        <ele>28.0155</ele>
        <time>2014-06-15T09:56:18Z</time>
      </trkpt>
      <trkpt lat="60.0203458" lon="17.7664348">
        <ele>28.0155</ele>
        <time>2014-06-15T09:56:19Z</time>
      </trkpt>
      <trkpt lat="60.0203212" lon="17.7664203">
        <ele>28.0155</ele>
        <time>2014-06-15T09:56:20Z</time>
      </trkpt>
      <trkpt lat="60.0202928" lon="17.7664127">
        <ele>27.5349</ele>
        <time>2014-06-15T09:56:21Z</time>
      </trkpt>
      <trkpt lat="60.0202615" lon="17.7664017">
        <ele>27.5349</ele>
        <time>2014-06-15T09:56:22Z</time>
      </trkpt>
      <trkpt lat="60.0202319" lon="17.7663813">
        <ele>27.5349</ele>
        <time>2014-06-15T09:56:23Z</time>
      </trkpt>
      <trkpt lat="60.020204" lon="17.7663514">
        <ele>27.5349</ele>
        <time>2014-06-15T09:56:24Z</time>
      </trkpt>
      <trkpt lat="60.0201733" lon="17.7663224">
        <ele>27.5349</ele>
        <time>2014-06-15T09:56:25Z</time>
      </trkpt>
      <trkpt lat="60.0201489" lon="17.7662981">
        <ele>27.5349</ele>
        <time>2014-06-15T09:56:26Z</time>
      </trkpt>
      <trkpt lat="60.0201244" lon="17.766272">
        <ele>27.0543</ele>
        <time>2014-06-15T09:56:27Z</time>
      </trkpt>
      <trkpt lat="60.0201" lon="17.7662467">
        <ele>27.0543</ele>
        <time>2014-06-15T09:56:28Z</time>
      </trkpt>
      <trkpt lat="60.0200744" lon="17.7662168">
        <ele>27.0543</ele>
        <time>2014-06-15T09:56:29Z</time>
      </trkpt>
      <trkpt lat="60.0200501" lon="17.7661821">
        <ele>26.5736</ele>
        <time>2014-06-15T09:56:30Z</time>
      </trkpt>
      <trkpt lat="60.0200266" lon="17.7661572">
        <ele>26.0929</ele>
        <time>2014-06-15T09:56:31Z</time>
      </trkpt>
      <trkpt lat="60.0200013" lon="17.7661354">
        <ele>26.0929</ele>
        <time>2014-06-15T09:56:32Z</time>
      </trkpt>
      <trkpt lat="60.019974" lon="17.7661122">
        <ele>25.6123</ele>
        <time>2014-06-15T09:56:33Z</time>
      </trkpt>
      <trkpt lat="60.019949" lon="17.7660905">
        <ele>25.6123</ele>
        <time>2014-06-15T09:56:34Z</time>
      </trkpt>
      <trkpt lat="60.0199312" lon="17.7660539">
        <ele>25.1317</ele>
        <time>2014-06-15T09:56:35Z</time>
      </trkpt>
      <trkpt lat="60.0199085" lon="17.7660133">
        <ele>25.1317</ele>
        <time>2014-06-15T09:56:36Z</time>
      </trkpt>
      <trkpt lat="60.0198831" lon="17.7659783">
        <ele>24.651</ele>
        <time>2014-06-15T09:56:37Z</time>
      </trkpt>
      <trkpt lat="60.0198607" lon="17.765935">
        <ele>24.651</ele>
        <time>2014-06-15T09:56:38Z</time>
      </trkpt>
      <trkpt lat="60.0198385" lon="17.765895">
        <ele>24.651</ele>
        <time>2014-06-15T09:56:39Z</time>
      </trkpt>
      <trkpt lat="60.0198164" lon="17.7658526">
        <ele>24.651</ele>
        <time>2014-06-15T09:56:40Z</time>
      </trkpt>
      <trkpt lat="60.0197952" lon="17.7658146">
        <ele>24.651</ele>
        <time>2014-06-15T09:56:41Z</time>
      </trkpt>
      <trkpt lat="60.0197758" lon="17.7657775">
        <ele>24.651</ele>
        <time>2014-06-15T09:56:42Z</time>
      </trkpt>
      <trkpt lat="60.0197592" lon="17.7657364">
        <ele>24.651</ele>
        <time>2014-06-15T09:56:43Z</time>
      </trkpt>
      <trkpt lat="60.019739" lon="17.7656945">
        <ele>25.1317</ele>
        <time>2014-06-15T09:56:44Z</time>
      </trkpt>
      <trkpt lat="60.019718" lon="17.7656455">
        <ele>25.1317</ele>
        <time>2014-06-15T09:56:45Z</time>
      </trkpt>
      <trkpt lat="60.0196997" lon="17.7655987">
        <ele>25.1317</ele>
        <time>2014-06-15T09:56:46Z</time>
      </trkpt>
      <trkpt lat="60.0196822" lon="17.7655556">
        <ele>25.6123</ele>
        <time>2014-06-15T09:56:47Z</time>
      </trkpt>
      <trkpt lat="60.0196682" lon="17.7655146">
        <ele>26.0929</ele>
        <time>2014-06-15T09:56:48Z</time>
      </trkpt>
      <trkpt lat="60.0196562" lon="17.7654706">
        <ele>26.5736</ele>
        <time>2014-06-15T09:56:49Z</time>
      </trkpt>
      <trkpt lat="60.0196448" lon="17.7654214">
        <ele>27.0543</ele>
        <time>2014-06-15T09:56:50Z</time>
      </trkpt>
      <trkpt lat="60.019634" lon="17.7653708">
        <ele>27.5349</ele>
        <time>2014-06-15T09:56:51Z</time>
      </trkpt>
      <trkpt lat="60.0196219" lon="17.7653216">
        <ele>28.0155</ele>
        <time>2014-06-15T09:56:52Z</time>
      </trkpt>
      <trkpt lat="60.0196143" lon="17.7652693">
        <ele>28.4962</ele>
        <time>2014-06-15T09:56:53Z</time>
      </trkpt>
      <trkpt lat="60.0196074" lon="17.7652205">
        <ele>28.4962</ele>
        <time>2014-06-15T09:56:54Z</time>
      </trkpt>
      <trkpt lat="60.0196009" lon="17.7651779">
        <ele>28.0155</ele>
        <time>2014-06-15T09:56:55Z</time>
      </trkpt>
      <trkpt lat="60.0195946" lon="17.7651331">
        <ele>28.4962</ele>
        <time>2014-06-15T09:56:56Z</time>
      </trkpt>
      <trkpt lat="60.0195905" lon="17.7650845">
        <ele>28.9769</ele>
        <time>2014-06-15T09:56:57Z</time>
      </trkpt>
      <trkpt lat="60.0195879" lon="17.7650303">
        <ele>29.9381</ele>
        <time>2014-06-15T09:56:58Z</time>
      </trkpt>
      <trkpt lat="60.0195833" lon="17.7649761">
        <ele>30.8995</ele>
        <time>2014-06-15T09:56:59Z</time>
      </trkpt>
      <trkpt lat="60.0195765" lon="17.7649215">
        <ele>31.8607</ele>
        <time>2014-06-15T09:57:00Z</time>
      </trkpt>
      <trkpt lat="60.0195706" lon="17.7648649">
        <ele>32.8223</ele>
        <time>2014-06-15T09:57:01Z</time>
      </trkpt>
      <trkpt lat="60.0195657" lon="17.7648188">
        <ele>33.7834</ele>
        <time>2014-06-15T09:57:02Z</time>
      </trkpt>
      <trkpt lat="60.0195538" lon="17.7647749">
        <ele>34.2642</ele>
        <time>2014-06-15T09:57:03Z</time>
      </trkpt>
      <trkpt lat="60.0195429" lon="17.7647247">
        <ele>34.2642</ele>
        <time>2014-06-15T09:57:04Z</time>
      </trkpt>
      <trkpt lat="60.0195347" lon="17.7646713">
        <ele>34.7449</ele>
        <time>2014-06-15T09:57:05Z</time>
      </trkpt>
      <trkpt lat="60.019528" lon="17.7646161">
        <ele>35.2255</ele>
        <time>2014-06-15T09:57:06Z</time>
      </trkpt>
      <trkpt lat="60.0195222" lon="17.7645628">
        <ele>35.7061</ele>
        <time>2014-06-15T09:57:07Z</time>
      </trkpt>
      <trkpt lat="60.0195113" lon="17.7645109">
        <ele>35.7061</ele>
        <time>2014-06-15T09:57:08Z</time>
      </trkpt>
      <trkpt lat="60.0194962" lon="17.7644628">
        <ele>36.6675</ele>
        <time>2014-06-15T09:57:09Z</time>
      </trkpt>
      <trkpt lat="60.0194792" lon="17.7644181">
        <ele>37.6287</ele>
        <time>2014-06-15T09:57:10Z</time>
      </trkpt>
      <trkpt lat="60.0194667" lon="17.7643691">
        <ele>38.1094</ele>
        <time>2014-06-15T09:57:11Z</time>
      </trkpt>
      <trkpt lat="60.0194579" lon="17.7643134">
        <ele>38.5901</ele>
        <time>2014-06-15T09:57:12Z</time>
      </trkpt>
      <trkpt lat="60.0194517" lon="17.7642585">
        <ele>39.0707</ele>
        <time>2014-06-15T09:57:13Z</time>
      </trkpt>
      <trkpt lat="60.0194511" lon="17.7642069">
        <ele>39.5513</ele>
        <time>2014-06-15T09:57:14Z</time>
      </trkpt>
      <trkpt lat="60.0194459" lon="17.7641585">
        <ele>40.0321</ele>
        <time>2014-06-15T09:57:15Z</time>
      </trkpt>
      <trkpt lat="60.0194408" lon="17.764116">
        <ele>40.9934</ele>
        <time>2014-06-15T09:57:16Z</time>
      </trkpt>
      <trkpt lat="60.0194413" lon="17.7640708">
        <ele>41.474</ele>
        <time>2014-06-15T09:57:17Z</time>
      </trkpt>
      <trkpt lat="60.019447" lon="17.7640225">
        <ele>41.474</ele>
        <time>2014-06-15T09:57:18Z</time>
      </trkpt>
      <trkpt lat="60.0194539" lon="17.7639777">
        <ele>41.9547</ele>
        <time>2014-06-15T09:57:19Z</time>
      </trkpt>
      <trkpt lat="60.0194584" lon="17.7639411">
        <ele>42.4354</ele>
        <time>2014-06-15T09:57:20Z</time>
      </trkpt>
      <trkpt lat="60.0194564" lon="17.7638948">
        <ele>41.9547</ele>
        <time>2014-06-15T09:57:21Z</time>
      </trkpt>
      <trkpt lat="60.0194511" lon="17.7638391">
        <ele>40.9934</ele>
        <time>2014-06-15T09:57:22Z</time>
      </trkpt>
      <trkpt lat="60.0194417" lon="17.7637806">
        <ele>40.5128</ele>
        <time>2014-06-15T09:57:23Z</time>
      </trkpt>
      <trkpt lat="60.0194336" lon="17.7637285">
        <ele>40.0321</ele>
        <time>2014-06-15T09:57:24Z</time>
      </trkpt>
      <trkpt lat="60.0194311" lon="17.7636828">
        <ele>39.5513</ele>
        <time>2014-06-15T09:57:25Z</time>
      </trkpt>
      <trkpt lat="60.0194283" lon="17.7636428">
        <ele>39.0707</ele>
        <time>2014-06-15T09:57:26Z</time>
      </trkpt>
      <trkpt lat="60.0194309" lon="17.7635994">
        <ele>38.5901</ele>
        <time>2014-06-15T09:57:27Z</time>
      </trkpt>
      <trkpt lat="60.0194357" lon="17.7635514">
        <ele>38.1094</ele>
        <time>2014-06-15T09:57:28Z</time>
      </trkpt>
      <trkpt lat="60.0194365" lon="17.7635004">
        <ele>37.6287</ele>
        <time>2014-06-15T09:57:29Z</time>
      </trkpt>
      <trkpt lat="60.0194347" lon="17.7634527">
        <ele>37.1481</ele>
        <time>2014-06-15T09:57:30Z</time>
      </trkpt>
      <trkpt lat="60.0194386" lon="17.7633991">
        <ele>36.1868</ele>
        <time>2014-06-15T09:57:31Z</time>
      </trkpt>
      <trkpt lat="60.0194336" lon="17.7633424">
        <ele>36.6675</ele>
        <time>2014-06-15T09:57:32Z</time>
      </trkpt>
      <trkpt lat="60.0194228" lon="17.7632885">
        <ele>36.1868</ele>
        <time>2014-06-15T09:57:33Z</time>
      </trkpt>
      <trkpt lat="60.0194152" lon="17.7632423">
        <ele>36.1868</ele>
        <time>2014-06-15T09:57:34Z</time>
      </trkpt>
      <trkpt lat="60.0194015" lon="17.7631884">
        <ele>36.6675</ele>
        <time>2014-06-15T09:57:35Z</time>
      </trkpt>
      <trkpt lat="60.019392" lon="17.7631284">
        <ele>36.6675</ele>
        <time>2014-06-15T09:57:36Z</time>
      </trkpt>
      <trkpt lat="60.0193854" lon="17.76308">
        <ele>36.6675</ele>
        <time>2014-06-15T09:57:37Z</time>
      </trkpt>
      <trkpt lat="60.0193792" lon="17.763033">
        <ele>37.1481</ele>
        <time>2014-06-15T09:57:38Z</time>
      </trkpt>
      <trkpt lat="60.0193714" lon="17.7629824">
        <ele>36.6675</ele>
        <time>2014-06-15T09:57:39Z</time>
      </trkpt>
      <trkpt lat="60.0193558" lon="17.7629282">
        <ele>36.6675</ele>
        <time>2014-06-15T09:57:40Z</time>
      </trkpt>
      <trkpt lat="60.0193355" lon="17.7628749">
        <ele>37.1481</ele>
        <time>2014-06-15T09:57:41Z</time>
      </trkpt>
      <trkpt lat="60.0193231" lon="17.7628246">
        <ele>37.1481</ele>
        <time>2014-06-15T09:57:42Z</time>
      </trkpt>
      <trkpt lat="60.0193132" lon="17.7627816">
        <ele>37.6287</ele>
        <time>2014-06-15T09:57:43Z</time>
      </trkpt>
      <trkpt lat="60.0193044" lon="17.7627457">
        <ele>37.6287</ele>
        <time>2014-06-15T09:57:44Z</time>
      </trkpt>
      <trkpt lat="60.0192977" lon="17.7627094">
        <ele>38.1094</ele>
        <time>2014-06-15T09:57:45Z</time>
      </trkpt>
      <trkpt lat="60.0192917" lon="17.7626627">
        <ele>39.0707</ele>
        <time>2014-06-15T09:57:46Z</time>
      </trkpt>
      <trkpt lat="60.0192888" lon="17.7626099">
        <ele>40.0321</ele>
        <time>2014-06-15T09:57:47Z</time>
      </trkpt>
      <trkpt lat="60.0192821" lon="17.7625425">
        <ele>40.5128</ele>
        <time>2014-06-15T09:57:48Z</time>
      </trkpt>
      <trkpt lat="60.0192816" lon="17.7624755">
        <ele>40.9934</ele>
        <time>2014-06-15T09:57:49Z</time>
      </trkpt>
      <trkpt lat="60.0192771" lon="17.7624107">
        <ele>41.474</ele>
        <time>2014-06-15T09:57:50Z</time>
      </trkpt>
      <trkpt lat="60.0192755" lon="17.7623558">
        <ele>41.9547</ele>
        <time>2014-06-15T09:57:51Z</time>
      </trkpt>
      <trkpt lat="60.0192747" lon="17.7623027">
        <ele>42.4354</ele>
        <time>2014-06-15T09:57:52Z</time>
      </trkpt>
      <trkpt lat="60.019279" lon="17.7622497">
        <ele>42.916</ele>
        <time>2014-06-15T09:57:53Z</time>
      </trkpt>
      <trkpt lat="60.0192823" lon="17.7621961">
        <ele>42.916</ele>
        <time>2014-06-15T09:57:54Z</time>
      </trkpt>
      <trkpt lat="60.0192943" lon="17.7621462">
        <ele>43.8773</ele>
        <time>2014-06-15T09:57:55Z</time>
      </trkpt>
      <trkpt lat="60.0193046" lon="17.7620885">
        <ele>44.8386</ele>
        <time>2014-06-15T09:57:56Z</time>
      </trkpt>
      <trkpt lat="60.0193155" lon="17.7620333">
        <ele>44.8386</ele>
        <time>2014-06-15T09:57:57Z</time>
      </trkpt>
      <trkpt lat="60.0193269" lon="17.7619757">
        <ele>44.8386</ele>
        <time>2014-06-15T09:57:58Z</time>
      </trkpt>
      <trkpt lat="60.0193329" lon="17.7619229">
        <ele>45.3192</ele>
        <time>2014-06-15T09:57:59Z</time>
      </trkpt>
      <trkpt lat="60.0193327" lon="17.7618732">
        <ele>45.7999</ele>
        <time>2014-06-15T09:58:00Z</time>
      </trkpt>
      <trkpt lat="60.0193341" lon="17.7618194">
        <ele>46.2806</ele>
        <time>2014-06-15T09:58:01Z</time>
      </trkpt>
      <trkpt lat="60.0193384" lon="17.7617623">
        <ele>46.2806</ele>
        <time>2014-06-15T09:58:02Z</time>
      </trkpt>
      <trkpt lat="60.0193425" lon="17.7617033">
        <ele>46.2806</ele>
        <time>2014-06-15T09:58:03Z</time>
      </trkpt>
      <trkpt lat="60.0193564" lon="17.7616519">
        <ele>46.2806</ele>
        <time>2014-06-15T09:58:04Z</time>
      </trkpt>
      <trkpt lat="60.0193694" lon="17.7616033">
        <ele>46.2806</ele>
        <time>2014-06-15T09:58:05Z</time>
      </trkpt>
      <trkpt lat="60.0193779" lon="17.7615603">
        <ele>46.2806</ele>
        <time>2014-06-15T09:58:06Z</time>
      </trkpt>
      <trkpt lat="60.0193862" lon="17.7615087">
        <ele>46.2806</ele>
        <time>2014-06-15T09:58:07Z</time>
      </trkpt>
      <trkpt lat="60.019392" lon="17.7614556">
        <ele>46.7612</ele>
        <time>2014-06-15T09:58:08Z</time>
      </trkpt>
      <trkpt lat="60.0193984" lon="17.761407">
        <ele>46.7612</ele>
        <time>2014-06-15T09:58:09Z</time>
      </trkpt>
      <trkpt lat="60.0194049" lon="17.7613525">
        <ele>45.7999</ele>
        <time>2014-06-15T09:58:10Z</time>
      </trkpt>
      <trkpt lat="60.0194123" lon="17.7613059">
        <ele>45.7999</ele>
        <time>2014-06-15T09:58:11Z</time>
      </trkpt>
      <trkpt lat="60.0194204" lon="17.7612657">
        <ele>45.7999</ele>
        <time>2014-06-15T09:58:12Z</time>
      </trkpt>
      <trkpt lat="60.0194295" lon="17.7612211">
        <ele>45.7999</ele>
        <time>2014-06-15T09:58:13Z</time>
      </trkpt>
      <trkpt lat="60.0194351" lon="17.7611718">
        <ele>45.7999</ele>
        <time>2014-06-15T09:58:14Z</time>
      </trkpt>
      <trkpt lat="60.0194413" lon="17.7611077">
        <ele>47.7225</ele>
        <time>2014-06-15T09:58:15Z</time>
      </trkpt>
      <trkpt lat="60.0194455" lon="17.7610505">
        <ele>47.7225</ele>
        <time>2014-06-15T09:58:16Z</time>
      </trkpt>
      <trkpt lat="60.0194511" lon="17.7609951">
        <ele>48.2034</ele>
        <time>2014-06-15T09:58:17Z</time>
      </trkpt>
      <trkpt lat="60.0194621" lon="17.7609284">
        <ele>48.2034</ele>
        <time>2014-06-15T09:58:18Z</time>
      </trkpt>
      <trkpt lat="60.0194729" lon="17.7608715">
        <ele>49.1646</ele>
        <time>2014-06-15T09:58:19Z</time>
      </trkpt>
      <trkpt lat="60.0194736" lon="17.7608196">
        <ele>49.1646</ele>
        <time>2014-06-15T09:58:20Z</time>
      </trkpt>
      <trkpt lat="60.0194745" lon="17.760756">
        <ele>49.1646</ele>
        <time>2014-06-15T09:58:21Z</time>
      </trkpt>
      <trkpt lat="60.0194765" lon="17.760699">
        <ele>49.1646</ele>
        <time>2014-06-15T09:58:22Z</time>
      </trkpt>
      <trkpt lat="60.019486" lon="17.7606433">
        <ele>49.6453</ele>
        <time>2014-06-15T09:58:23Z</time>
      </trkpt>
      <trkpt lat="60.0194993" lon="17.760587">
        <ele>49.6453</ele>
        <time>2014-06-15T09:58:24Z</time>
      </trkpt>
      <trkpt lat="60.019505" lon="17.7605267">
        <ele>49.6453</ele>
        <time>2014-06-15T09:58:25Z</time>
      </trkpt>
      <trkpt lat="60.0195139" lon="17.7604647">
        <ele>49.6453</ele>
        <time>2014-06-15T09:58:26Z</time>
      </trkpt>
      <trkpt lat="60.0195311" lon="17.760406">
        <ele>49.6453</ele>
        <time>2014-06-15T09:58:27Z</time>
      </trkpt>
      <trkpt lat="60.0195505" lon="17.7603493">
        <ele>50.126</ele>
        <time>2014-06-15T09:58:28Z</time>
      </trkpt>
      <trkpt lat="60.0195665" lon="17.7602991">
        <ele>51.0872</ele>
        <time>2014-06-15T09:58:29Z</time>
      </trkpt>
      <trkpt lat="60.0195839" lon="17.7602491">
        <ele>52.0486</ele>
        <time>2014-06-15T09:58:30Z</time>
      </trkpt>
      <trkpt lat="60.0195978" lon="17.7601978">
        <ele>52.5292</ele>
        <time>2014-06-15T09:58:31Z</time>
      </trkpt>
      <trkpt lat="60.0196045" lon="17.7601497">
        <ele>52.5292</ele>
        <time>2014-06-15T09:58:32Z</time>
      </trkpt>
      <trkpt lat="60.0196066" lon="17.760102">
        <ele>52.5292</ele>
        <time>2014-06-15T09:58:33Z</time>
      </trkpt>
      <trkpt lat="60.0196067" lon="17.7600545">
        <ele>52.5292</ele>
        <time>2014-06-15T09:58:34Z</time>
      </trkpt>
      <trkpt lat="60.0196031" lon="17.759997">
        <ele>52.5292</ele>
        <time>2014-06-15T09:58:35Z</time>
      </trkpt>
      <trkpt lat="60.019603" lon="17.7599329">
        <ele>52.0486</ele>
        <time>2014-06-15T09:58:36Z</time>
      </trkpt>
      <trkpt lat="60.019605" lon="17.7598675">
        <ele>52.0486</ele>
        <time>2014-06-15T09:58:37Z</time>
      </trkpt>
      <trkpt lat="60.0196061" lon="17.7598095">
        <ele>52.0486</ele>
        <time>2014-06-15T09:58:38Z</time>
      </trkpt>
      <trkpt lat="60.0196154" lon="17.7597523">
        <ele>52.0486</ele>
        <time>2014-06-15T09:58:39Z</time>
      </trkpt>
      <trkpt lat="60.0196253" lon="17.7596991">
        <ele>52.5292</ele>
        <time>2014-06-15T09:58:40Z</time>
      </trkpt>
      <trkpt lat="60.0196331" lon="17.7596588">
        <ele>53.0098</ele>
        <time>2014-06-15T09:58:41Z</time>
      </trkpt>
      <trkpt lat="60.0196429" lon="17.759607">
        <ele>52.5292</ele>
        <time>2014-06-15T09:58:42Z</time>
      </trkpt>
      <trkpt lat="60.0196449" lon="17.7595435">
        <ele>52.0486</ele>
        <time>2014-06-15T09:58:43Z</time>
      </trkpt>
      <trkpt lat="60.0196429" lon="17.7594835">
        <ele>52.0486</ele>
        <time>2014-06-15T09:58:44Z</time>
      </trkpt>
      <trkpt lat="60.0196396" lon="17.7594166">
        <ele>51.5679</ele>
        <time>2014-06-15T09:58:45Z</time>
      </trkpt>
      <trkpt lat="60.019637" lon="17.7593511">
        <ele>51.5679</ele>
        <time>2014-06-15T09:58:46Z</time>
      </trkpt>
      <trkpt lat="60.019629" lon="17.7592883">
        <ele>51.0872</ele>
        <time>2014-06-15T09:58:47Z</time>
      </trkpt>
      <trkpt lat="60.0196258" lon="17.7592257">
        <ele>51.0872</ele>
        <time>2014-06-15T09:58:48Z</time>
      </trkpt>
      <trkpt lat="60.0196199" lon="17.7591677">
        <ele>50.6066</ele>
        <time>2014-06-15T09:58:49Z</time>
      </trkpt>
      <trkpt lat="60.0196074" lon="17.7591076">
        <ele>50.126</ele>
        <time>2014-06-15T09:58:50Z</time>
      </trkpt>
      <trkpt lat="60.0195898" lon="17.759048">
        <ele>50.126</ele>
        <time>2014-06-15T09:58:51Z</time>
      </trkpt>
      <trkpt lat="60.0195791" lon="17.7589917">
        <ele>49.6453</ele>
        <time>2014-06-15T09:58:52Z</time>
      </trkpt>
      <trkpt lat="60.0195763" lon="17.7589351">
        <ele>49.1646</ele>
        <time>2014-06-15T09:58:53Z</time>
      </trkpt>
      <trkpt lat="60.019579" lon="17.7588838">
        <ele>48.684</ele>
        <time>2014-06-15T09:58:54Z</time>
      </trkpt>
      <trkpt lat="60.0195836" lon="17.7588289">
        <ele>48.2034</ele>
        <time>2014-06-15T09:58:55Z</time>
      </trkpt>
      <trkpt lat="60.019581" lon="17.7587683">
        <ele>47.7225</ele>
        <time>2014-06-15T09:58:56Z</time>
      </trkpt>
      <trkpt lat="60.0195735" lon="17.7587065">
        <ele>47.7225</ele>
        <time>2014-06-15T09:58:57Z</time>
      </trkpt>
      <trkpt lat="60.0195738" lon="17.7586378">
        <ele>48.2034</ele>
        <time>2014-06-15T09:58:58Z</time>
      </trkpt>
      <trkpt lat="60.019582" lon="17.7585785">
        <ele>48.2034</ele>
        <time>2014-06-15T09:58:59Z</time>
      </trkpt>
      <trkpt lat="60.019587" lon="17.7585237">
        <ele>47.7225</ele>
        <time>2014-06-15T09:59:00Z</time>
      </trkpt>
      <trkpt lat="60.0195929" lon="17.7584601">
        <ele>48.2034</ele>
        <time>2014-06-15T09:59:01Z</time>
      </trkpt>
      <trkpt lat="60.0196096" lon="17.7584021">
        <ele>48.684</ele>
        <time>2014-06-15T09:59:02Z</time>
      </trkpt>
      <trkpt lat="60.0196242" lon="17.7583425">
        <ele>49.1646</ele>
        <time>2014-06-15T09:59:03Z</time>
      </trkpt>
      <trkpt lat="60.0196434" lon="17.7582889">
        <ele>49.1646</ele>
        <time>2014-06-15T09:59:04Z</time>
      </trkpt>
      <trkpt lat="60.0196605" lon="17.7582358">
        <ele>49.1646</ele>
        <time>2014-06-15T09:59:05Z</time>
      </trkpt>
      <trkpt lat="60.0196763" lon="17.758185">
        <ele>49.1646</ele>
        <time>2014-06-15T09:59:06Z</time>
      </trkpt>
      <trkpt lat="60.0196893" lon="17.7581405">
        <ele>49.1646</ele>
        <time>2014-06-15T09:59:07Z</time>
      </trkpt>
      <trkpt lat="60.0196947" lon="17.7580998">
        <ele>49.1646</ele>
        <time>2014-06-15T09:59:08Z</time>
      </trkpt>
      <trkpt lat="60.0197014" lon="17.7580576">
        <ele>49.1646</ele>
        <time>2014-06-15T09:59:09Z</time>
      </trkpt>
      <trkpt lat="60.0197053" lon="17.7580077">
        <ele>48.684</ele>
        <time>2014-06-15T09:59:10Z</time>
      </trkpt>
      <trkpt lat="60.0197059" lon="17.7579543">
        <ele>48.684</ele>
        <time>2014-06-15T09:59:11Z</time>
      </trkpt>
      <trkpt lat="60.019706" lon="17.7578997">
        <ele>48.2034</ele>
        <time>2014-06-15T09:59:12Z</time>
      </trkpt>
      <trkpt lat="60.0197133" lon="17.7578457">
        <ele>47.7225</ele>
        <time>2014-06-15T09:59:13Z</time>
      </trkpt>
      <trkpt lat="60.0197186" lon="17.7577868">
        <ele>47.7225</ele>
        <time>2014-06-15T09:59:14Z</time>
      </trkpt>
      <trkpt lat="60.0197154" lon="17.757731">
        <ele>47.7225</ele>
        <time>2014-06-15T09:59:15Z</time>
      </trkpt>
      <trkpt lat="60.0197136" lon="17.7576799">
        <ele>47.7225</ele>
        <time>2014-06-15T09:59:16Z</time>
      </trkpt>
      <trkpt lat="60.01972" lon="17.7576305">
        <ele>48.2034</ele>
        <time>2014-06-15T09:59:17Z</time>
      </trkpt>
      <trkpt lat="60.0197268" lon="17.7575813">
        <ele>48.2034</ele>
        <time>2014-06-15T09:59:18Z</time>
      </trkpt>
      <trkpt lat="60.0197403" lon="17.7575352">
        <ele>48.684</ele>
        <time>2014-06-15T09:59:19Z</time>
      </trkpt>
      <trkpt lat="60.0197478" lon="17.7574831">
        <ele>47.7225</ele>
        <time>2014-06-15T09:59:20Z</time>
      </trkpt>
      <trkpt lat="60.0197629" lon="17.7574261">
        <ele>48.2034</ele>
        <time>2014-06-15T09:59:21Z</time>
      </trkpt>
      <trkpt lat="60.0197828" lon="17.7573746">
        <ele>48.2034</ele>
        <time>2014-06-15T09:59:22Z</time>
      </trkpt>
      <trkpt lat="60.0198033" lon="17.757321">
        <ele>48.684</ele>
        <time>2014-06-15T09:59:23Z</time>
      </trkpt>
      <trkpt lat="60.0198219" lon="17.7572603">
        <ele>49.1646</ele>
        <time>2014-06-15T09:59:24Z</time>
      </trkpt>
      <trkpt lat="60.019834" lon="17.7572013">
        <ele>48.684</ele>
        <time>2014-06-15T09:59:25Z</time>
      </trkpt>
      <trkpt lat="60.0198463" lon="17.7571489">
        <ele>47.7225</ele>
        <time>2014-06-15T09:59:26Z</time>
      </trkpt>
      <trkpt lat="60.0198651" lon="17.7571003">
        <ele>47.2418</ele>
        <time>2014-06-15T09:59:27Z</time>
      </trkpt>
      <trkpt lat="60.0198889" lon="17.7570592">
        <ele>46.7612</ele>
        <time>2014-06-15T09:59:28Z</time>
      </trkpt>
      <trkpt lat="60.019907" lon="17.7570142">
        <ele>46.7612</ele>
        <time>2014-06-15T09:59:29Z</time>
      </trkpt>
      <trkpt lat="60.0199231" lon="17.7569724">
        <ele>45.7999</ele>
        <time>2014-06-15T09:59:30Z</time>
      </trkpt>
      <trkpt lat="60.0199325" lon="17.7569273">
        <ele>44.8386</ele>
        <time>2014-06-15T09:59:31Z</time>
      </trkpt>
      <trkpt lat="60.0199395" lon="17.7568745">
        <ele>43.8773</ele>
        <time>2014-06-15T09:59:32Z</time>
      </trkpt>
      <trkpt lat="60.0199498" lon="17.7568325">
        <ele>43.3966</ele>
        <time>2014-06-15T09:59:33Z</time>
      </trkpt>
      <trkpt lat="60.0199562" lon="17.75679">
        <ele>42.4354</ele>
        <time>2014-06-15T09:59:34Z</time>
      </trkpt>
      <trkpt lat="60.019964" lon="17.7567386">
        <ele>41.9547</ele>
        <time>2014-06-15T09:59:35Z</time>
      </trkpt>
      <trkpt lat="60.0199662" lon="17.7566854">
        <ele>40.9934</ele>
        <time>2014-06-15T09:59:36Z</time>
      </trkpt>
      <trkpt lat="60.0199629" lon="17.7566257">
        <ele>40.0321</ele>
        <time>2014-06-15T09:59:37Z</time>
      </trkpt>
      <trkpt lat="60.0199607" lon="17.7565621">
        <ele>39.5513</ele>
        <time>2014-06-15T09:59:38Z</time>
      </trkpt>
      <trkpt lat="60.0199592" lon="17.7565008">
        <ele>39.0707</ele>
        <time>2014-06-15T09:59:39Z</time>
      </trkpt>
      <trkpt lat="60.019961" lon="17.7564427">
        <ele>38.5901</ele>
        <time>2014-06-15T09:59:40Z</time>
      </trkpt>
      <trkpt lat="60.0199652" lon="17.756384">
        <ele>38.5901</ele>
        <time>2014-06-15T09:59:41Z</time>
      </trkpt>
      <trkpt lat="60.0199755" lon="17.7563338">
        <ele>38.5901</ele>
        <time>2014-06-15T09:59:42Z</time>
      </trkpt>
      <trkpt lat="60.0199895" lon="17.7562802">
        <ele>38.1094</ele>
        <time>2014-06-15T09:59:43Z</time>
      </trkpt>
      <trkpt lat="60.0200021" lon="17.7562197">
        <ele>38.1094</ele>
        <time>2014-06-15T09:59:44Z</time>
      </trkpt>
      <trkpt lat="60.0200078" lon="17.7561648">
        <ele>38.1094</ele>
        <time>2014-06-15T09:59:45Z</time>
      </trkpt>
      <trkpt lat="60.0200102" lon="17.7561145">
        <ele>38.1094</ele>
        <time>2014-06-15T09:59:46Z</time>
      </trkpt>
      <trkpt lat="60.0200148" lon="17.7560653">
        <ele>38.1094</ele>
        <time>2014-06-15T09:59:47Z</time>
      </trkpt>
      <trkpt lat="60.0200225" lon="17.7560187">
        <ele>38.1094</ele>
        <time>2014-06-15T09:59:48Z</time>
      </trkpt>
      <trkpt lat="60.0200294" lon="17.7559691">
        <ele>37.6287</ele>
        <time>2014-06-15T09:59:49Z</time>
      </trkpt>
      <trkpt lat="60.020036" lon="17.7559155">
        <ele>37.6287</ele>
        <time>2014-06-15T09:59:50Z</time>
      </trkpt>
      <trkpt lat="60.0200412" lon="17.7558628">
        <ele>37.1481</ele>
        <time>2014-06-15T09:59:51Z</time>
      </trkpt>
      <trkpt lat="60.0200407" lon="17.7558037">
        <ele>37.1481</ele>
        <time>2014-06-15T09:59:52Z</time>
      </trkpt>
      <trkpt lat="60.0200406" lon="17.7557487">
        <ele>37.1481</ele>
        <time>2014-06-15T09:59:53Z</time>
      </trkpt>
      <trkpt lat="60.0200453" lon="17.755698">
        <ele>37.6287</ele>
        <time>2014-06-15T09:59:54Z</time>
      </trkpt>
      <trkpt lat="60.020053" lon="17.7556486">
        <ele>38.1094</ele>
        <time>2014-06-15T09:59:55Z</time>
      </trkpt>
      <trkpt lat="60.0200622" lon="17.7556003">
        <ele>38.1094</ele>
        <time>2014-06-15T09:59:56Z</time>
      </trkpt>
      <trkpt lat="60.020071" lon="17.7555471">
        <ele>38.5901</ele>
        <time>2014-06-15T09:59:57Z</time>
      </trkpt>
      <trkpt lat="60.0200789" lon="17.7554971">
        <ele>38.1094</ele>
        <time>2014-06-15T09:59:58Z</time>
      </trkpt>
      <trkpt lat="60.0200864" lon="17.7554459">
        <ele>38.5901</ele>
        <time>2014-06-15T09:59:59Z</time>
      </trkpt>
      <trkpt lat="60.0200933" lon="17.7553877">
        <ele>39.0707</ele>
        <time>2014-06-15T10:00:00Z</time>
      </trkpt>
      <trkpt lat="60.0200966" lon="17.755326">
        <ele>38.5901</ele>
        <time>2014-06-15T10:00:01Z</time>
      </trkpt>
      <trkpt lat="60.0201018" lon="17.755269">
        <ele>39.0707</ele>
        <time>2014-06-15T10:00:02Z</time>
      </trkpt>
      <trkpt lat="60.0201091" lon="17.7552065">
        <ele>39.5513</ele>
        <time>2014-06-15T10:00:03Z</time>
      </trkpt>
      <trkpt lat="60.0201156" lon="17.7551428">
        <ele>40.5128</ele>
        <time>2014-06-15T10:00:04Z</time>
      </trkpt>
      <trkpt lat="60.0201193" lon="17.7550816">
        <ele>41.474</ele>
        <time>2014-06-15T10:00:05Z</time>
      </trkpt>
      <trkpt lat="60.0201297" lon="17.7550351">
        <ele>41.9547</ele>
        <time>2014-06-15T10:00:06Z</time>
      </trkpt>
      <trkpt lat="60.0201379" lon="17.7549949">
        <ele>42.4354</ele>
        <time>2014-06-15T10:00:07Z</time>
      </trkpt>
      <trkpt lat="60.0201456" lon="17.7549415">
        <ele>42.916</ele>
        <time>2014-06-15T10:00:08Z</time>
      </trkpt>
      <trkpt lat="60.0201531" lon="17.7548924">
        <ele>43.3966</ele>
        <time>2014-06-15T10:00:09Z</time>
      </trkpt>
      <trkpt lat="60.020162" lon="17.7548505">
        <ele>43.8773</ele>
        <time>2014-06-15T10:00:10Z</time>
      </trkpt>
      <trkpt lat="60.0201805" lon="17.7548081">
        <ele>44.358</ele>
        <time>2014-06-15T10:00:11Z</time>
      </trkpt>
      <trkpt lat="60.0201966" lon="17.7547599">
        <ele>45.3192</ele>
        <time>2014-06-15T10:00:12Z</time>
      </trkpt>
      <trkpt lat="60.0202058" lon="17.7547033">
        <ele>46.2806</ele>
        <time>2014-06-15T10:00:13Z</time>
      </trkpt>
      <trkpt lat="60.0202141" lon="17.7546391">
        <ele>46.2806</ele>
        <time>2014-06-15T10:00:14Z</time>
      </trkpt>
      <trkpt lat="60.0202235" lon="17.7545826">
        <ele>47.2418</ele>
        <time>2014-06-15T10:00:15Z</time>
      </trkpt>
      <trkpt lat="60.0202321" lon="17.7545289">
        <ele>47.2418</ele>
        <time>2014-06-15T10:00:16Z</time>
      </trkpt>
      <trkpt lat="60.0202463" lon="17.7544833">
        <ele>47.7225</ele>
        <time>2014-06-15T10:00:17Z</time>
      </trkpt>
      <trkpt lat="60.0202541" lon="17.7544372">
        <ele>48.2034</ele>
        <time>2014-06-15T10:00:18Z</time>
      </trkpt>
      <trkpt lat="60.0202618" lon="17.7543989">
        <ele>48.2034</ele>
        <time>2014-06-15T10:00:19Z</time>
      </trkpt>
      <trkpt lat="60.0202768" lon="17.754359">
        <ele>48.684</ele>
        <time>2014-06-15T10:00:20Z</time>
      </trkpt>
      <trkpt lat="60.0202883" lon="17.7543123">
        <ele>48.684</ele>
        <time>2014-06-15T10:00:21Z</time>
      </trkpt>
      <trkpt lat="60.0202979" lon="17.7542664">
        <ele>49.1646</ele>
        <time>2014-06-15T10:00:22Z</time>
      </trkpt>
      <trkpt lat="60.0203067" lon="17.7542253">
        <ele>49.1646</ele>
        <time>2014-06-15T10:00:23Z</time>
      </trkpt>
      <trkpt lat="60.0203225" lon="17.7541865">
        <ele>48.684</ele>
        <time>2014-06-15T10:00:24Z</time>
      </trkpt>
      <trkpt lat="60.0203365" lon="17.7541413">
        <ele>49.1646</ele>
        <time>2014-06-15T10:00:25Z</time>
      </trkpt>
      <trkpt lat="60.0203473" lon="17.7540969">
        <ele>49.1646</ele>
        <time>2014-06-15T10:00:26Z</time>
      </trkpt>
      <trkpt lat="60.0203571" lon="17.7540447">
        <ele>49.1646</ele>
        <time>2014-06-15T10:00:27Z</time>
      </trkpt>
      <trkpt lat="60.0203644" lon="17.7539925">
        <ele>49.1646</ele>
        <time>2014-06-15T10:00:28Z</time>
      </trkpt>
      <trkpt lat="60.0203711" lon="17.7539447">
        <ele>49.1646</ele>
        <time>2014-06-15T10:00:29Z</time>
      </trkpt>
      <trkpt lat="60.020382" lon="17.7539016">
        <ele>48.684</ele>
        <time>2014-06-15T10:00:30Z</time>
      </trkpt>
      <trkpt lat="60.0203922" lon="17.753855">
        <ele>48.684</ele>
        <time>2014-06-15T10:00:31Z</time>
      </trkpt>
      <trkpt lat="60.0204031" lon="17.753812">
        <ele>48.2034</ele>
        <time>2014-06-15T10:00:32Z</time>
      </trkpt>
      <trkpt lat="60.0204155" lon="17.7537783">
        <ele>48.684</ele>
        <time>2014-06-15T10:00:33Z</time>
      </trkpt>
      <trkpt lat="60.0204277" lon="17.7537534">
        <ele>48.2034</ele>
        <time>2014-06-15T10:00:34Z</time>
      </trkpt>
      <trkpt lat="60.0204338" lon="17.7537072">
        <ele>49.6453</ele>
        <time>2014-06-15T10:00:35Z</time>
      </trkpt>
      <trkpt lat="60.0204466" lon="17.7536576">
        <ele>49.6453</ele>
        <time>2014-06-15T10:00:36Z</time>
      </trkpt>
      <trkpt lat="60.0204565" lon="17.7536051">
        <ele>49.6453</ele>
        <time>2014-06-15T10:00:37Z</time>
      </trkpt>
      <trkpt lat="60.0204663" lon="17.7535481">
        <ele>50.126</ele>
        <time>2014-06-15T10:00:38Z</time>
      </trkpt>
      <trkpt lat="60.0204768" lon="17.7534974">
        <ele>50.126</ele>
        <time>2014-06-15T10:00:39Z</time>
      </trkpt>
      <trkpt lat="60.0204887" lon="17.75345">
        <ele>50.126</ele>
        <time>2014-06-15T10:00:40Z</time>
      </trkpt>
      <trkpt lat="60.0204982" lon="17.7534067">
        <ele>49.6453</ele>
        <time>2014-06-15T10:00:41Z</time>
      </trkpt>
      <trkpt lat="60.0205139" lon="17.7533648">
        <ele>49.6453</ele>
        <time>2014-06-15T10:00:42Z</time>
      </trkpt>
      <trkpt lat="60.020536" lon="17.7533184">
        <ele>49.6453</ele>
        <time>2014-06-15T10:00:43Z</time>
      </trkpt>
      <trkpt lat="60.0205567" lon="17.7532749">
        <ele>49.1646</ele>
        <time>2014-06-15T10:00:44Z</time>
      </trkpt>
      <trkpt lat="60.0205707" lon="17.7532359">
        <ele>48.684</ele>
        <time>2014-06-15T10:00:45Z</time>
      </trkpt>
      <trkpt lat="60.0205797" lon="17.7531924">
        <ele>48.2034</ele>
        <time>2014-06-15T10:00:46Z</time>
      </trkpt>
      <trkpt lat="60.0205914" lon="17.7531428">
        <ele>47.7225</ele>
        <time>2014-06-15T10:00:47Z</time>
      </trkpt>
      <trkpt lat="60.0206052" lon="17.7530879">
        <ele>46.7612</ele>
        <time>2014-06-15T10:00:48Z</time>
      </trkpt>
      <trkpt lat="60.0206156" lon="17.7530286">
        <ele>46.2806</ele>
        <time>2014-06-15T10:00:49Z</time>
      </trkpt>
      <trkpt lat="60.0206286" lon="17.7529718">
        <ele>45.7999</ele>
        <time>2014-06-15T10:00:50Z</time>
      </trkpt>
      <trkpt lat="60.0206414" lon="17.7528987">
        <ele>45.3192</ele>
        <time>2014-06-15T10:00:51Z</time>
      </trkpt>
      <trkpt lat="60.0206507" lon="17.752834">
        <ele>44.8386</ele>
        <time>2014-06-15T10:00:52Z</time>
      </trkpt>
      <trkpt lat="60.020665" lon="17.7527893">
        <ele>44.8386</ele>
        <time>2014-06-15T10:00:53Z</time>
      </trkpt>
      <trkpt lat="60.0206803" lon="17.7527516">
        <ele>44.358</ele>
        <time>2014-06-15T10:00:54Z</time>
      </trkpt>
      <trkpt lat="60.0206934" lon="17.7526998">
        <ele>44.8386</ele>
        <time>2014-06-15T10:00:55Z</time>
      </trkpt>
      <trkpt lat="60.0207072" lon="17.75263">
        <ele>45.3192</ele>
        <time>2014-06-15T10:00:56Z</time>
      </trkpt>
      <trkpt lat="60.0207183" lon="17.7525641">
        <ele>44.8386</ele>
        <time>2014-06-15T10:00:57Z</time>
      </trkpt>
      <trkpt lat="60.0207334" lon="17.7525033">
        <ele>44.8386</ele>
        <time>2014-06-15T10:00:58Z</time>
      </trkpt>
      <trkpt lat="60.0207498" lon="17.7524469">
        <ele>44.8386</ele>
        <time>2014-06-15T10:00:59Z</time>
      </trkpt>
      <trkpt lat="60.0207685" lon="17.7524025">
        <ele>44.358</ele>
        <time>2014-06-15T10:01:00Z</time>
      </trkpt>
      <trkpt lat="60.0207821" lon="17.7523451">
        <ele>44.358</ele>
        <time>2014-06-15T10:01:01Z</time>
      </trkpt>
      <trkpt lat="60.020796" lon="17.7522827">
        <ele>43.8773</ele>
        <time>2014-06-15T10:01:02Z</time>
      </trkpt>
      <trkpt lat="60.0208134" lon="17.7522175">
        <ele>43.8773</ele>
        <time>2014-06-15T10:01:03Z</time>
      </trkpt>
      <trkpt lat="60.0208341" lon="17.7521567">
        <ele>43.3966</ele>
        <time>2014-06-15T10:01:04Z</time>
      </trkpt>
      <trkpt lat="60.020852" lon="17.752101">
        <ele>43.3966</ele>
        <time>2014-06-15T10:01:05Z</time>
      </trkpt>
      <trkpt lat="60.0208621" lon="17.7520453">
        <ele>43.3966</ele>
        <time>2014-06-15T10:01:06Z</time>
      </trkpt>
      <trkpt lat="60.0208747" lon="17.7519835">
        <ele>43.3966</ele>
        <time>2014-06-15T10:01:07Z</time>
      </trkpt>
      <trkpt lat="60.0208895" lon="17.7519191">
        <ele>43.3966</ele>
        <time>2014-06-15T10:01:08Z</time>
      </trkpt>
      <trkpt lat="60.0209058" lon="17.7518649">
        <ele>43.3966</ele>
        <time>2014-06-15T10:01:09Z</time>
      </trkpt>
      <trkpt lat="60.0209218" lon="17.7518098">
        <ele>42.916</ele>
        <time>2014-06-15T10:01:10Z</time>
      </trkpt>
      <trkpt lat="60.0209415" lon="17.7517637">
        <ele>42.916</ele>
        <time>2014-06-15T10:01:11Z</time>
      </trkpt>
      <trkpt lat="60.0209602" lon="17.7517102">
        <ele>43.3966</ele>
        <time>2014-06-15T10:01:12Z</time>
      </trkpt>
      <trkpt lat="60.0209793" lon="17.7516627">
        <ele>43.3966</ele>
        <time>2014-06-15T10:01:13Z</time>
      </trkpt>
      <trkpt lat="60.0209891" lon="17.7516225">
        <ele>42.916</ele>
        <time>2014-06-15T10:01:14Z</time>
      </trkpt>
      <trkpt lat="60.0210026" lon="17.7515805">
        <ele>42.4354</ele>
        <time>2014-06-15T10:01:15Z</time>
      </trkpt>
      <trkpt lat="60.0210213" lon="17.7515264">
        <ele>42.4354</ele>
        <time>2014-06-15T10:01:16Z</time>
      </trkpt>
      <trkpt lat="60.0210358" lon="17.7514638">
        <ele>42.4354</ele>
        <time>2014-06-15T10:01:17Z</time>
      </trkpt>
      <trkpt lat="60.0210518" lon="17.7514018">
        <ele>41.9547</ele>
        <time>2014-06-15T10:01:18Z</time>
      </trkpt>
      <trkpt lat="60.0210643" lon="17.7513443">
        <ele>41.9547</ele>
        <time>2014-06-15T10:01:19Z</time>
      </trkpt>
      <trkpt lat="60.0210778" lon="17.7512919">
        <ele>41.9547</ele>
        <time>2014-06-15T10:01:20Z</time>
      </trkpt>
      <trkpt lat="60.0210949" lon="17.7512307">
        <ele>41.9547</ele>
        <time>2014-06-15T10:01:21Z</time>
      </trkpt>
      <trkpt lat="60.0211161" lon="17.7511768">
        <ele>41.9547</ele>
        <time>2014-06-15T10:01:22Z</time>
      </trkpt>
      <trkpt lat="60.0211332" lon="17.7511307">
        <ele>41.474</ele>
        <time>2014-06-15T10:01:23Z</time>
      </trkpt>
      <trkpt lat="60.0211461" lon="17.7510768">
        <ele>41.9547</ele>
        <time>2014-06-15T10:01:24Z</time>
      </trkpt>
      <trkpt lat="60.0211601" lon="17.7510233">
        <ele>41.474</ele>
        <time>2014-06-15T10:01:25Z</time>
      </trkpt>
      <trkpt lat="60.0211723" lon="17.7509682">
        <ele>41.474</ele>
        <time>2014-06-15T10:01:26Z</time>
      </trkpt>
      <trkpt lat="60.0211856" lon="17.7509047">
        <ele>41.474</ele>
        <time>2014-06-15T10:01:27Z</time>
      </trkpt>
      <trkpt lat="60.0211959" lon="17.750846">
        <ele>41.474</ele>
        <time>2014-06-15T10:01:28Z</time>
      </trkpt>
      <trkpt lat="60.0212092" lon="17.7507985">
        <ele>41.9547</ele>
        <time>2014-06-15T10:01:29Z</time>
      </trkpt>
      <trkpt lat="60.0212232" lon="17.7507469">
        <ele>41.9547</ele>
        <time>2014-06-15T10:01:30Z</time>
      </trkpt>
      <trkpt lat="60.0212368" lon="17.7506921">
        <ele>41.9547</ele>
        <time>2014-06-15T10:01:31Z</time>
      </trkpt>
      <trkpt lat="60.0212461" lon="17.7506351">
        <ele>42.4354</ele>
        <time>2014-06-15T10:01:32Z</time>
      </trkpt>
      <trkpt lat="60.0212528" lon="17.750577">
        <ele>41.9547</ele>
        <time>2014-06-15T10:01:33Z</time>
      </trkpt>
      <trkpt lat="60.0212611" lon="17.7505195">
        <ele>41.9547</ele>
        <time>2014-06-15T10:01:34Z</time>
      </trkpt>
      <trkpt lat="60.021271" lon="17.7504573">
        <ele>41.474</ele>
        <time>2014-06-15T10:01:35Z</time>
      </trkpt>
      <trkpt lat="60.0212878" lon="17.7503913">
        <ele>40.9934</ele>
        <time>2014-06-15T10:01:36Z</time>
      </trkpt>
      <trkpt lat="60.0213026" lon="17.7503214">
        <ele>40.5128</ele>
        <time>2014-06-15T10:01:37Z</time>
      </trkpt>
      <trkpt lat="60.0213198" lon="17.7502491">
        <ele>40.5128</ele>
        <time>2014-06-15T10:01:38Z</time>
      </trkpt>
      <trkpt lat="60.0213367" lon="17.7501792">
        <ele>40.9934</ele>
        <time>2014-06-15T10:01:39Z</time>
      </trkpt>
      <trkpt lat="60.021348" lon="17.7501165">
        <ele>40.9934</ele>
        <time>2014-06-15T10:01:40Z</time>
      </trkpt>
      <trkpt lat="60.0213564" lon="17.7500626">
        <ele>40.5128</ele>
        <time>2014-06-15T10:01:41Z</time>
      </trkpt>
      <trkpt lat="60.0213694" lon="17.7500013">
        <ele>40.5128</ele>
        <time>2014-06-15T10:01:42Z</time>
      </trkpt>
      <trkpt lat="60.0213868" lon="17.7499361">
        <ele>40.5128</ele>
        <time>2014-06-15T10:01:43Z</time>
      </trkpt>
      <trkpt lat="60.0214103" lon="17.7498697">
        <ele>40.0321</ele>
        <time>2014-06-15T10:01:44Z</time>
      </trkpt>
      <trkpt lat="60.0214368" lon="17.7498102">
        <ele>39.5513</ele>
        <time>2014-06-15T10:01:45Z</time>
      </trkpt>
    </trkseg>
  </trk>
</gpx>